[[{"header":{"parameterUnit":"m.s-1","parameterCategory":1,"la1":30.6,"la2":29.2853,"lo1":-89.7004,"lo2":-87.6739,"dy":0.0162,"dx":0.0183,"nx":112,"ny":82,"refTime":"2024-07-09T06:00:00:Z","depth":0,"parameterNumber":2,"parameterNumberName":"U-component_of_WINDS"},"data":[0.0,0.0,0.0,0.0,0.0,0.0,0.0,0.0,0.0,0.0,0.0,0.0,0.0,0.0,0.0,0.0,0.0,0.0,0.0,0.0,0.0,0.0,0.0,0.0,0.0,0.0,0.0,0.0,0.0,0.0,0.0,0.0,0.0,0.0,0.0,0.0,0.0,0.0,0.0,0.0,0.0,0.0,0.0,0.0,0.0,0.0,0.0,0.0,0.0,0.0,0.0,0.0,0.0,0.0,0.0,0.0,0.0,0.0,0.0,0.0,0.0,0.0,0.0,0.0,0.0,0.0,0.0,0.0,0.0,0.0,0.0,0.0,0.0,0.0,0.0,0.0,0.0,0.0,0.0,0.0,0.0,0.0,0.0,0.0,0.0,0.0,0.0,0.0,0.0,0.0,0.0,-1.3084,-1.4768,-1.5436,-1.4839,-1.4394,-1.3204,-1.0984,0.0,0.0,0.0,0.0,0.0,0.0,0.0,0.0,0.0,0.0,0.0,0.0,0.0,0.0,0.0,0.0,0.0,0.0,0.0,0.0,0.0,0.0,0.0,0.0,0.0,0.0,0.0,0.0,0.0,0.0,0.0,0.0,0.0,0.0,0.0,0.0,0.0,0.0,0.0,0.0,0.0,0.0,0.0,0.0,0.0,0.0,0.0,0.0,0.0,0.0,0.0,0.0,0.0,0.0,0.0,0.0,0.0,0.0,0.0,0.0,0.0,0.0,0.0,0.0,0.0,0.0,0.0,0.0,0.0,0.0,0.0,0.0,0.0,0.0,0.0,0.0,0.0,0.0,0.0,0.0,0.0,0.0,0.0,0.0,0.0,0.0,0.0,0.0,0.0,0.0,0.0,0.0,0.0,0.0,0.0,0.0,0.0,0.0,0.0,0.0,0.0,0.0,0.0,0.0,-1.1352,-1.4067,-1.4933,-1.5261,-1.5118,-1.4748,-1.3882,-1.2373,0.0,0.0,0.0,0.0,0.0,0.0,0.0,0.0,0.0,0.0,0.0,0.0,0.0,0.0,0.0,0.0,0.0,0.0,0.0,0.0,0.0,0.0,0.0,0.0,0.0,0.0,0.0,0.0,0.0,0.0,0.0,0.0,0.0,0.0,0.0,0.0,0.0,0.0,0.0,0.0,0.0,0.0,0.0,0.0,0.0,0.0,0.0,0.0,0.0,0.0,0.0,0.0,0.0,0.0,0.0,0.0,0.0,0.0,0.0,0.0,0.0,0.0,0.0,0.0,0.0,0.0,0.0,0.0,0.0,0.0,0.0,0.0,0.0,0.0,0.0,0.0,0.0,0.0,0.0,0.0,0.0,0.0,0.0,0.0,0.0,0.0,0.0,0.0,0.0,0.0,0.0,0.0,0.0,0.0,0.0,0.0,0.0,0.0,0.0,0.0,0.0,0.0,0.0,-1.0564,-1.2136,-1.4427,-1.4801,-1.5125,-1.5754,-1.49,-1.3752,-1.2397,-1.0804,0.0,0.0,0.0,0.0,0.0,0.0,0.0,0.0,0.0,0.0,0.0,0.0,0.0,0.0,0.0,0.0,0.0,0.0,0.0,0.0,0.0,0.0,0.0,0.0,0.0,0.0,0.0,0.0,0.0,0.0,0.0,0.0,0.0,0.0,0.0,0.0,0.0,0.0,0.0,0.0,0.0,0.0,0.0,0.0,0.0,0.0,0.0,0.0,0.0,0.0,0.0,0.0,0.0,0.0,0.0,0.0,0.0,0.0,0.0,0.0,0.0,0.0,0.0,0.0,0.0,0.0,0.0,0.0,0.0,0.0,0.0,0.0,0.0,0.0,0.0,0.0,0.0,0.0,0.0,0.0,0.0,0.0,0.0,0.0,0.0,0.0,0.0,0.0,0.0,0.0,0.0,0.0,0.0,0.0,0.0,0.0,0.0,0.0,0.0,0.0,0.0,0.0,-1.1672,-1.294,-1.4408,-1.4844,-1.5338,-1.6245,-1.5015,-1.3633,-1.2296,-1.0668,0.0,0.0,0.0,0.0,0.0,0.0,0.0,0.0,0.0,0.0,0.0,0.0,0.0,0.0,0.0,0.0,0.0,0.0,0.0,0.0,0.0,0.0,0.0,0.0,0.0,0.0,0.0,0.0,0.0,0.0,0.0,0.0,0.0,0.0,0.0,0.0,0.0,0.0,0.0,0.0,0.0,0.0,0.0,0.0,0.0,0.0,0.0,0.0,0.0,0.0,0.0,0.0,0.0,0.0,0.0,0.0,0.0,0.0,0.0,0.0,0.0,0.0,0.0,0.0,0.0,0.0,0.0,0.0,0.0,0.0,0.0,0.0,0.0,0.0,0.0,0.0,0.0,0.0,0.0,0.0,0.0,0.0,0.0,0.0,0.0,0.0,0.0,0.0,0.0,0.0,0.0,0.0,0.0,0.0,0.0,0.0,0.0,0.0,0.0,0.0,0.0,0.0,-1.1994,-1.3622,-1.4156,-1.5403,-1.6202,-1.6307,-1.5168,-1.392,-1.2635,-1.0478,0.0,0.0,0.0,0.0,0.0,0.0,0.0,0.0,0.0,0.0,0.0,0.0,0.0,0.0,0.0,0.0,0.0,0.0,0.0,0.0,0.0,0.0,0.0,0.0,0.0,0.0,0.0,0.0,0.0,0.0,0.0,0.0,0.0,0.0,0.0,0.0,0.0,0.0,0.0,0.0,0.0,0.0,0.0,0.0,0.0,0.0,0.0,0.0,0.0,0.0,0.0,0.0,0.0,0.0,0.0,0.0,0.0,0.0,0.0,0.0,0.0,0.0,0.0,0.0,0.0,0.0,0.0,0.0,0.0,0.0,0.0,0.0,0.0,0.0,0.0,0.0,0.0,0.0,0.0,0.0,0.0,0.0,0.0,0.0,0.0,0.0,0.0,0.0,0.0,0.0,0.0,0.0,0.0,0.0,0.0,0.0,0.0,0.0,0.0,0.0,0.0,0.0,-1.2245,-1.3617,0.0,-1.5541,-1.6053,-1.6272,-1.5423,-1.4287,-1.2938,0.0,0.0,0.0,0.0,0.0,0.0,0.0,0.0,0.0,0.0,0.0,0.0,0.0,0.0,0.0,0.0,0.0,0.0,0.0,0.0,0.0,0.0,0.0,0.0,0.0,0.0,0.0,0.0,0.0,0.0,0.0,0.0,0.0,0.0,0.0,0.0,0.0,0.0,0.0,0.0,0.0,0.0,0.0,0.0,0.0,0.0,0.0,0.0,0.0,0.0,0.0,0.0,0.0,0.0,0.0,0.0,0.0,0.0,0.0,0.0,0.0,0.0,0.0,0.0,0.0,0.0,0.0,0.0,0.0,0.0,0.0,0.0,0.0,0.0,0.0,0.0,0.0,0.0,0.0,0.0,0.0,0.0,0.0,0.0,0.0,0.0,0.0,0.0,0.0,0.0,0.0,0.0,0.0,0.0,0.0,0.0,0.0,0.0,0.0,0.0,0.0,0.0,-1.1282,-1.2763,-1.4127,0.0,-1.5861,-1.6228,-1.6482,-1.5408,-1.4228,-1.3076,0.0,0.0,0.0,0.0,0.0,0.0,0.0,0.0,0.0,0.0,0.0,0.0,0.0,0.0,0.0,0.0,0.0,0.0,0.0,0.0,0.0,0.0,0.0,0.0,0.0,0.0,0.0,0.0,0.0,0.0,0.0,0.0,0.0,0.0,0.0,0.0,0.0,0.0,0.0,0.0,0.0,0.0,0.0,0.0,0.0,0.0,0.0,0.0,0.0,0.0,0.0,0.0,0.0,0.0,0.0,0.0,0.0,0.0,0.0,0.0,0.0,0.0,0.0,0.0,0.0,0.0,0.0,0.0,0.0,0.0,0.0,0.0,0.0,0.0,0.0,0.0,0.0,0.0,0.0,0.0,0.0,0.0,0.0,0.0,0.0,0.0,0.0,0.0,0.0,0.0,0.0,0.0,0.0,0.0,0.0,0.0,0.0,0.0,0.0,0.0,0.0,0.0,-1.1375,-1.362,-1.5278,-1.5744,-1.6455,-1.6908,-1.6908,-1.5056,-1.3661,0.0,0.0,0.0,0.0,0.0,0.0,0.0,0.0,0.0,0.0,0.0,0.0,0.0,0.0,0.0,0.0,0.0,0.0,0.0,0.0,0.0,0.0,0.0,0.0,0.0,0.0,0.0,0.0,0.0,0.0,0.0,0.0,0.0,0.0,0.0,0.0,0.0,0.0,0.0,0.0,0.0,0.0,0.0,0.0,0.0,0.0,0.0,0.0,0.0,0.0,0.0,0.0,0.0,0.0,0.0,0.0,0.0,0.0,0.0,0.0,0.0,0.0,0.0,0.0,0.0,0.0,0.0,0.0,0.0,0.0,0.0,0.0,0.0,0.0,0.0,0.0,0.0,0.0,0.0,0.0,0.0,0.0,0.0,0.0,0.0,0.0,0.0,0.0,0.0,0.0,0.0,0.0,0.0,0.0,0.0,0.0,0.0,0.0,0.0,0.0,0.0,0.0,0.0,-1.2316,-1.4062,-1.5492,-1.6469,-1.6766,-1.6908,-1.6908,-1.5579,-1.4293,-1.3296,0.0,0.0,0.0,0.0,0.0,0.0,0.0,0.0,0.0,0.0,0.0,0.0,0.0,0.0,0.0,0.0,0.0,0.0,0.0,0.0,0.0,0.0,0.0,0.0,0.0,0.0,0.0,0.0,0.0,0.0,0.0,0.0,0.0,0.0,0.0,0.0,0.0,0.0,0.0,0.0,0.0,0.0,0.0,0.0,0.0,0.0,0.0,0.0,0.0,0.0,0.0,0.0,0.0,0.0,0.0,0.0,0.0,0.0,0.0,0.0,0.0,0.0,0.0,0.0,0.0,0.0,0.0,0.0,0.0,0.0,0.0,0.0,0.0,0.0,0.0,0.0,0.0,0.0,0.0,0.0,0.0,0.0,0.0,0.0,0.0,0.0,0.0,0.0,0.0,0.0,0.0,0.0,0.0,0.0,0.0,0.0,0.0,0.0,0.0,0.0,0.0,0.0,-1.2762,-1.4359,-1.5735,-1.6798,-1.6908,-1.6908,-1.6908,-1.5799,-1.4653,-1.3626,0.0,0.0,0.0,0.0,0.0,0.0,0.0,0.0,0.0,0.0,0.0,0.0,0.0,0.0,0.0,0.0,0.0,0.0,0.0,0.0,0.0,0.0,0.0,0.0,0.0,0.0,0.0,0.0,0.0,0.0,0.0,0.0,0.0,0.0,0.0,0.0,0.0,0.0,0.0,0.0,0.0,0.0,0.0,0.0,0.0,0.0,0.0,0.0,0.0,0.0,0.0,0.0,0.0,0.0,0.0,0.0,0.0,0.0,0.0,0.0,0.0,0.0,0.0,0.0,0.0,0.0,0.0,0.0,0.0,0.0,0.0,0.0,0.0,0.0,0.0,0.0,0.0,0.0,0.0,0.0,0.0,0.0,0.0,0.0,0.0,0.0,0.0,0.0,0.0,0.0,0.0,0.0,0.0,0.0,0.0,0.0,0.0,0.0,0.0,0.0,0.0,0.0,-1.2878,-1.4617,-1.6001,-1.6817,-1.6908,-1.6908,-1.6908,-1.5826,-1.4808,-1.4021,0.0,0.0,0.0,0.0,0.0,0.0,0.0,0.0,0.0,0.0,0.0,0.0,0.0,0.0,0.0,0.0,0.0,0.0,0.0,0.0,0.0,0.0,0.0,0.0,0.0,0.0,0.0,0.0,0.0,0.0,0.0,0.0,0.0,0.0,0.0,0.0,0.0,0.0,0.0,0.0,0.0,0.0,0.0,0.0,0.0,0.0,0.0,0.0,0.0,0.0,0.0,0.0,0.0,0.0,0.0,0.0,0.0,0.0,0.0,0.0,-1.165,0.0,0.0,0.0,0.0,0.0,0.0,0.0,0.0,0.0,0.0,0.0,0.0,0.0,0.0,0.0,0.0,0.0,0.0,0.0,0.0,0.0,0.0,0.0,0.0,0.0,0.0,0.0,0.0,0.0,0.0,0.0,0.0,0.0,0.0,0.0,0.0,0.0,0.0,0.0,0.0,0.0,-1.3451,-1.4882,-1.6001,-1.6817,-1.6908,-1.6908,-1.6908,-1.6083,-1.5221,-1.4433,0.0,0.0,0.0,0.0,0.0,0.0,0.0,0.0,0.0,0.0,0.0,0.0,0.0,0.0,0.0,0.0,0.0,0.0,0.0,0.0,0.0,0.0,0.0,0.0,0.0,0.0,0.0,0.0,0.0,0.0,0.0,0.0,0.0,0.0,0.0,0.0,0.0,0.0,0.0,0.0,0.0,0.0,0.0,0.0,0.0,0.0,0.0,0.0,0.0,0.0,0.0,0.0,0.0,0.0,0.0,0.0,0.0,0.0,0.0,0.0,0.0,-1.2906,0.0,0.0,0.0,0.0,0.0,0.0,0.0,0.0,0.0,0.0,0.0,0.0,0.0,0.0,0.0,0.0,0.0,0.0,0.0,0.0,0.0,0.0,0.0,0.0,0.0,0.0,0.0,0.0,0.0,0.0,0.0,0.0,0.0,0.0,0.0,0.0,0.0,0.0,0.0,0.0,-1.3947,-1.5647,-1.6824,-1.7154,-1.7465,-1.7425,-1.6927,-1.6565,-1.6102,-1.5503,-1.4332,0.0,0.0,0.0,0.0,0.0,0.0,0.0,0.0,0.0,0.0,0.0,0.0,0.0,0.0,0.0,0.0,0.0,0.0,0.0,0.0,0.0,0.0,0.0,0.0,0.0,0.0,0.0,0.0,0.0,0.0,0.0,0.0,0.0,0.0,0.0,0.0,0.0,0.0,0.0,0.0,0.0,0.0,0.0,0.0,0.0,0.0,0.0,0.0,0.0,0.0,0.0,0.0,0.0,0.0,-1.8754,-1.8143,-1.7256,-1.6948,-1.7046,-1.628,-1.5508,-1.4795,0.0,0.0,0.0,0.0,0.0,0.0,0.0,0.0,0.0,0.0,0.0,0.0,0.0,0.0,0.0,0.0,0.0,0.0,0.0,0.0,0.0,0.0,0.0,0.0,0.0,-1.6909,-1.7093,0.0,0.0,0.0,0.0,0.0,0.0,0.0,0.0,0.0,0.0,0.0,0.0,-1.4764,-1.6722,-1.7889,-1.7756,-1.8247,-1.8171,-1.7202,-1.7268,-1.7168,-1.6763,-1.6117,-1.5053,0.0,0.0,0.0,0.0,0.0,0.0,0.0,0.0,0.0,0.0,0.0,0.0,0.0,0.0,0.0,0.0,0.0,0.0,0.0,0.0,0.0,0.0,0.0,0.0,0.0,0.0,0.0,0.0,0.0,0.0,0.0,0.0,-0.862,-1.0017,0.0,0.0,0.0,0.0,0.0,0.0,0.0,0.0,0.0,0.0,0.0,0.0,0.0,0.0,-1.2884,-1.7243,-2.0172,-2.1611,-2.0653,-2.0147,-2.0034,-1.991,-1.9848,-1.9882,-1.9724,0.0,-1.6136,-1.607,0.0,0.0,0.0,0.0,0.0,0.0,0.0,0.0,0.0,0.0,0.0,0.0,0.0,0.0,0.0,0.0,0.0,0.0,0.0,0.0,0.0,0.0,-1.9913,-1.9049,-1.8818,-1.8718,0.0,-1.6148,-1.4002,-1.3034,0.0,0.0,0.0,0.0,0.0,0.0,0.0,0.0,-1.6616,-1.7851,-1.8567,-1.8766,-1.898,-1.8839,-1.8174,-1.8237,-1.8138,-1.773,-1.7283,-1.6617,-1.5638,-1.3967,0.0,0.0,0.0,0.0,0.0,0.0,0.0,0.0,0.0,0.0,0.0,0.0,0.0,0.0,0.0,0.0,0.0,0.0,0.0,0.0,0.0,0.0,0.0,0.0,0.0,0.0,0.0,0.0,0.0,-0.8506,-0.9858,-1.1017,-1.0927,-1.0764,0.0,0.0,0.0,0.0,0.0,0.0,0.0,0.0,0.0,-1.6722,-1.6203,-1.6645,-1.8206,-1.981,-2.1528,-2.3298,-2.2418,-2.1973,-2.1963,-2.1435,-2.1207,-2.1259,-2.2825,-2.2831,-2.1525,-1.8962,-1.7419,-1.6487,0.0,0.0,0.0,0.0,0.0,-1.6079,-1.6079,-1.8355,0.0,0.0,0.0,0.0,0.0,0.0,0.0,0.0,0.0,0.0,0.0,0.0,0.0,-2.1434,-2.1697,-2.1911,-2.1209,-2.0125,-1.8608,0.0,-1.5303,-1.4478,-1.3322,0.0,0.0,0.0,0.0,0.0,-1.7829,-1.9319,-2.0145,-1.9922,-2.0256,-2.0027,-1.8898,-1.913,-1.9163,-1.8709,-1.8553,-1.8081,-1.7229,-1.5624,-1.3986,0.0,0.0,0.0,0.0,0.0,0.0,0.0,0.0,0.0,0.0,0.0,0.0,0.0,0.0,0.0,0.0,0.0,0.0,0.0,0.0,0.0,0.0,0.0,0.0,0.0,0.0,0.0,0.0,-0.9951,-1.1103,-1.2142,-1.2499,-1.2582,0.0,0.0,0.0,0.0,0.0,0.0,-1.7088,-1.7554,-1.8538,-2.0343,-1.9507,-2.0288,-2.2832,-2.2864,-2.3517,-2.4828,-2.3981,-2.3536,-2.3515,-2.306,-2.2864,-2.2966,-2.5027,-2.5895,-2.5635,-2.2238,-2.0439,-1.9606,-1.7777,-1.6624,-1.6065,-1.655,-1.8793,-2.1546,-2.1306,-2.2157,-2.3383,-2.3383,0.0,-1.9814,-1.9825,0.0,0.0,0.0,0.0,-2.0947,-2.1357,-2.2404,-2.3357,-2.3268,-2.376,-2.3977,-2.3031,-2.2844,-2.2011,0.0,-1.8317,-1.7506,-1.6181,0.0,0.0,0.0,0.0,-1.8317,-1.9235,-2.073,-2.1523,-2.1046,-2.1434,-2.118,-1.9836,-2.011,-2.0185,-1.9791,-1.9747,-1.9344,-1.8577,-1.7035,-1.5464,-1.3897,0.0,0.0,0.0,0.0,0.0,0.0,0.0,0.0,0.0,0.0,0.0,0.0,0.0,0.0,0.0,0.0,0.0,0.0,0.0,0.0,0.0,0.0,0.0,0.0,0.0,0.0,0.0,0.0,0.0,-1.3906,-1.4922,0.0,0.0,0.0,0.0,-1.6635,-1.671,-1.7352,-1.8806,-1.9911,-2.0863,-2.1693,-2.2353,-2.3705,-2.5648,-2.5712,-2.5724,-2.5812,-2.4872,-2.4425,-2.4467,-2.5315,-2.5712,-2.5723,-2.5863,-2.5895,-2.5884,-2.5646,-2.4001,-2.1728,-2.2364,-2.2571,-2.2746,-2.46,-2.5406,-2.548,-2.4585,-2.4334,-2.441,-2.441,-2.3285,-2.1953,-2.2116,-2.1483,0.0,0.0,-2.2106,-2.2968,-2.3422,-2.3995,-2.4421,-2.4403,-2.3956,-2.3545,-2.3465,-2.3011,-2.2301,0.0,-2.0487,-1.9761,-1.9168,0.0,-1.8237,-1.9024,-1.934,-1.9948,-2.1281,-2.1914,-2.2185,-2.2027,-2.2172,-2.1951,-2.1185,-2.1225,-2.1261,-2.1129,-2.0741,-2.0314,-1.9843,-1.7784,-1.6609,-1.6518,-1.3192,0.0,0.0,0.0,0.0,0.0,0.0,0.0,0.0,0.0,0.0,0.0,0.0,0.0,0.0,0.0,0.0,0.0,0.0,0.0,0.0,0.0,0.0,0.0,0.0,0.0,0.0,0.0,0.0,-1.5757,-1.6776,0.0,0.0,-1.7556,-1.8164,-1.878,-1.9394,-2.02,-2.1317,-2.2103,-2.2826,-2.3526,-2.3824,-2.4585,-2.5884,-2.5895,-2.5895,-2.5895,-2.5559,-2.5391,-2.5433,-2.5728,-2.5895,-2.5895,-2.5895,-2.5895,-2.5895,-2.5895,-2.5326,-2.4465,-2.4748,-2.4869,-2.4945,-2.5644,-2.5895,-2.5852,-2.5513,-2.5131,-2.4749,-2.4552,-2.4093,-2.3635,-2.37,-2.3471,-2.323,-2.3405,-2.3908,-2.4432,-2.4607,-2.5022,-2.5393,-2.5393,-2.5218,-2.5114,-2.5379,-2.5072,-2.4643,-2.4259,-2.3183,-2.2063,-2.1346,-2.1239,-2.1118,-2.0731,-2.1273,-2.1985,-2.2738,-2.3223,-2.3486,-2.3471,-2.3484,-2.3289,-2.2746,-2.2423,-2.1932,-2.1247,-2.0723,-2.0231,-1.9731,-1.8186,-1.708,-1.651,-1.452,-1.2774,0.0,0.0,0.0,0.0,0.0,0.0,0.0,0.0,0.0,0.0,0.0,0.0,0.0,0.0,0.0,0.0,0.0,0.0,0.0,0.0,0.0,0.0,0.0,0.0,0.0,0.0,-1.6197,-1.7105,-1.8371,-1.9146,-1.9114,-1.9814,-2.0519,-2.1125,-2.1764,-2.2479,-2.327,-2.3768,-2.4277,-2.4735,-2.4897,-2.5273,-2.5895,-2.5895,-2.5895,-2.5895,-2.5895,-2.5895,-2.5895,-2.5895,-2.5895,-2.5895,-2.5895,-2.5895,-2.5895,-2.5895,-2.5895,-2.5895,-2.5895,-2.5895,-2.5895,-2.5895,-2.5895,-2.5895,-2.5895,-2.5622,-2.5188,-2.5033,-2.4967,-2.4967,-2.4967,-2.4967,-2.4967,-2.4967,-2.5185,-2.5456,-2.5609,-2.5779,-2.5979,-2.626,-2.6218,-2.6218,-2.6652,-2.6539,-2.6326,-2.6294,-2.507,-2.3888,-2.3332,-2.3511,-2.3538,-2.2987,-2.3466,-2.397,-2.4236,-2.4386,-2.4489,-2.4489,-2.4292,-2.4054,-2.3688,-2.3167,-2.2585,-2.1865,-2.1191,-2.0588,-2.0049,-1.8541,-1.7445,-1.6856,-1.5417,-1.3855,-1.2094,0.0,0.0,0.0,0.0,0.0,0.0,0.0,0.0,0.0,0.0,0.0,0.0,0.0,0.0,0.0,0.0,0.0,0.0,0.0,0.0,0.0,0.0,0.0,-1.4889,-1.668,-1.8006,-1.7921,-1.9704,-2.0926,-2.079,-2.1751,-2.2735,-2.3651,-2.3727,-2.3956,-2.4486,-2.4986,-2.5237,-2.5237,-2.5655,-2.5895,-2.5895,-2.5895,-2.5895,-2.5895,-2.5895,-2.5895,-2.5895,-2.5895,-2.5895,-2.5895,-2.5895,-2.5895,-2.5895,-2.5895,-2.5895,-2.5895,-2.5895,-2.5895,-2.5895,-2.5895,-2.5895,-2.5895,-2.5895,-2.5895,-2.5906,-2.5895,-2.5895,-2.5906,-2.5895,-2.5895,-2.5937,-2.5937,-2.5937,-2.6021,-2.6404,-2.6218,-2.6146,-2.6981,-2.6857,-2.6652,-2.7103,-2.7226,-2.7185,-2.7226,-2.6147,-2.5246,-2.5167,-2.5144,-2.5289,-2.5766,-2.5831,0.0,-2.582,-2.5393,-2.5044,-2.5044,-2.4595,-2.4196,-2.4073,-2.3554,-2.3157,-2.3015,-2.2175,-2.1454,-2.0941,-1.8944,-1.7832,-1.7776,-1.594,-1.4453,-1.3405,0.0,0.0,0.0,0.0,0.0,0.0,0.0,0.0,0.0,0.0,0.0,0.0,0.0,0.0,0.0,0.0,0.0,0.0,0.0,0.0,0.0,0.0,-1.9148,-1.7351,-1.8203,-1.9387,-2.0434,-2.1669,-2.2553,-2.2866,-2.3476,-2.3995,-2.4257,-2.4585,-2.4836,-2.5018,-2.5437,-2.5699,-2.5699,-2.583,-2.5895,-2.5895,-2.5895,-2.5895,-2.5895,-2.5895,-2.5895,-2.5895,-2.5895,-2.5895,-2.5895,-2.5895,-2.5895,-2.5895,-2.5895,-2.5895,-2.5895,-2.5895,-2.5895,-2.5895,-2.5895,-2.5895,-2.5895,-2.5895,-2.6093,-2.629,-2.5979,-2.6093,-2.629,-2.5979,-2.6093,-2.6332,-2.6332,-2.6569,-2.6857,-2.6981,-2.694,-2.6899,-2.7144,-2.7103,-2.7144,-2.7626,-2.7441,-2.7307,-2.7626,-2.7134,-2.6649,-2.6634,-2.6325,-2.6244,-2.6675,-2.6426,0.0,-2.6546,-2.6465,-2.6382,-2.6382,-2.5883,-2.5576,-2.5529,-2.4357,-2.3433,-2.3015,-2.1661,-2.1003,-2.126,-2.0147,-1.9431,-1.9246,-1.7621,-1.6387,0.0,0.0,0.0,0.0,0.0,0.0,0.0,0.0,0.0,0.0,0.0,0.0,0.0,0.0,0.0,0.0,0.0,0.0,0.0,0.0,0.0,0.0,-2.0562,-2.1389,-2.0398,-2.0716,-2.1363,-2.2087,-2.2848,-2.358,-2.4268,-2.4607,-2.4858,-2.5065,-2.5327,-2.548,-2.548,-2.5742,-2.5895,-2.5895,-2.5895,-2.5895,-2.5895,-2.5895,-2.5895,-2.5895,-2.5895,-2.5895,-2.5895,-2.5895,-2.5895,0.0,-2.5895,-2.5895,-2.5895,-2.5895,-2.5895,0.0,0.0,0.0,0.0,0.0,-2.5895,-2.5895,-2.5895,-2.6177,-2.6445,-2.6218,-2.6456,-2.6734,-2.6498,-2.6622,-2.6775,-2.6775,-2.6981,-2.7267,-2.7441,-2.736,-2.7307,-2.7684,-2.7603,-2.7615,-2.807,-2.7938,-2.7817,-2.8111,0.0,0.0,-2.7765,-2.737,-2.7224,-2.7648,-2.7426,-2.7314,-2.7558,-2.7366,-2.7234,-2.7234,-2.6779,-2.6358,-2.6117,-2.5059,0.0,0.0,0.0,-2.1842,-2.1565,-2.0892,0.0,0.0,0.0,0.0,0.0,0.0,0.0,0.0,-1.5974,-1.59,0.0,0.0,0.0,0.0,0.0,0.0,0.0,0.0,0.0,0.0,0.0,0.0,0.0,0.0,0.0,0.0,-2.2304,-2.2967,-2.3734,-2.3839,-2.3658,-2.3135,-2.3558,-2.4235,-2.5128,-2.527,-2.5437,-2.5874,-2.5895,-2.5895,-2.5895,0.0,0.0,0.0,0.0,-2.5895,-2.5895,-2.595,-2.5994,-2.6005,-2.5928,-2.5939,-2.6005,-2.6005,-2.5994,-2.5983,-2.6037,-2.6026,-2.5983,-2.5983,-2.5992,-2.5979,-2.5906,-2.5895,-2.5906,-2.5937,-2.5979,-2.5979,-2.6021,0.0,0.0,-2.661,-2.6899,-2.7267,-2.7226,-2.7226,-2.7267,-2.7267,-2.7307,-2.7429,-2.7881,-2.7655,-2.7551,-2.8311,-2.8243,-2.8082,-2.8431,-2.851,-2.851,-2.851,-2.851,-2.851,-2.851,-2.8203,-2.8082,-2.8431,-2.851,-2.851,-2.851,-2.8102,-2.7774,-2.7774,0.0,0.0,-2.6322,-2.5733,-2.5168,-2.4604,-2.4133,-2.3323,-2.2084,-2.1734,-2.1405,-2.1035,-2.1208,-2.1551,-2.2067,-2.1697,-2.1381,-2.0976,-1.7767,-1.7209,0.0,0.0,0.0,0.0,0.0,0.0,0.0,0.0,0.0,0.0,0.0,0.0,0.0,0.0,0.0,-2.3995,-2.5161,-2.6013,-2.6484,-2.6553,-2.5793,-2.3797,-2.4366,-2.5007,-2.5193,-2.5524,-2.5797,-2.5895,-2.5895,-2.5895,-2.5895,-2.5895,0.0,-2.5895,-2.5895,-2.5895,-2.5895,-2.6289,-2.6497,-2.6606,0.0,0.0,-2.6606,-2.6606,-2.6551,-2.6464,-2.6878,-2.6835,-2.6442,-2.6442,-2.6414,-2.6362,-2.6021,-2.5895,-2.5937,-2.6249,-2.6362,-2.6456,-2.6816,-2.7249,-2.7586,-2.7196,-2.736,-2.7708,-2.7307,-2.7441,0.0,-2.776,-2.799,-2.8259,-2.8351,-2.8311,-2.8299,-2.8471,-2.8431,-2.8391,-2.8471,-2.851,-2.851,-2.851,-2.851,-2.851,-2.851,-2.8431,-2.8391,-2.8471,-2.851,-2.851,-2.851,-2.8426,-2.8366,-2.8366,-2.7885,-2.7486,-2.7378,-2.6502,-2.5721,-2.5192,-2.4662,-2.4064,-2.3439,-2.4513,-2.4873,-2.4387,-2.4303,-2.3868,-2.3031,-2.2203,-2.1679,-2.1367,-2.0361,-1.9823,0.0,0.0,0.0,0.0,0.0,0.0,0.0,0.0,0.0,0.0,0.0,-1.946,0.0,0.0,-2.3903,-2.5916,-2.6726,-2.7229,-2.7637,-2.7907,-2.7286,-2.5299,-2.5475,-2.5728,-2.5554,-2.5753,-2.5895,-2.5895,-2.5895,-2.5895,-2.5895,-2.5895,-2.6016,-2.6256,-2.6267,-2.6376,-2.6605,-2.6846,-2.6955,-2.7064,-2.6747,-2.6769,-2.7075,-2.7075,-2.6988,-2.6944,-2.7206,-2.7316,-2.7379,-2.7584,-2.7685,-2.7617,-2.7428,-2.7029,-2.6539,-2.6528,-2.6652,-2.6899,-2.7103,-2.7534,-2.7841,-2.7626,-2.7869,-2.8151,-2.7938,-2.8018,-2.8203,-2.8203,-2.8351,-2.851,-2.851,-2.851,-2.851,-2.851,-2.851,-2.851,-2.851,-2.851,-2.851,-2.851,-2.851,-2.851,-2.851,-2.851,-2.851,-2.851,-2.851,-2.851,-2.851,-2.851,-2.851,-2.851,-2.827,-2.8005,-2.7702,-2.6946,-2.6406,-2.6105,-2.5841,-2.5612,-2.536,-2.5679,-2.574,-2.5444,-2.4915,-2.4487,-2.414,-2.3232,-2.2815,-2.2783,-2.216,-2.1455,0.0,0.0,0.0,0.0,0.0,0.0,0.0,0.0,-1.9096,-2.1211,-2.1614,-2.218,-2.4144,-2.4635,-2.5388,-2.7346,-2.7751,-2.801,-2.8424,-2.8809,-2.8548,-2.7219,-2.6729,-2.6513,-2.6412,-2.6104,-2.5979,-2.6146,-2.5979,-2.5895,-2.5895,-2.5994,-2.6223,-2.6573,-2.6671,-2.6933,-2.7304,-2.7403,-2.7457,-2.7457,-2.7457,-2.7457,-2.7457,-2.7457,-2.7457,-2.7457,-2.7546,-2.79,-2.8382,-2.8769,-2.8896,-2.8896,-2.8896,-2.843,-2.7666,-2.7122,-2.7113,-2.736,-2.7441,-2.7696,-2.8002,-2.8002,-2.8243,-2.851,-2.851,-2.851,-2.851,-2.851,-2.851,-2.851,-2.851,-2.851,-2.851,-2.851,-2.851,-2.851,-2.851,-2.851,-2.851,-2.851,-2.851,-2.851,-2.851,-2.851,-2.851,-2.851,-2.851,-2.851,-2.851,-2.851,-2.851,-2.851,-2.851,-2.8342,-2.787,-2.7354,-2.7054,-2.7054,-2.6958,-2.6898,-2.6898,-2.6323,-2.5947,-2.5741,-2.5115,-2.4818,-2.4882,-2.4148,-2.3746,-2.3757,-2.3003,-2.2362,-1.7731,-1.8105,-1.8513,-1.9147,-1.9548,-2.0393,0.0,0.0,-2.2749,-2.4078,-2.4547,-2.4952,-2.573,-2.6548,-2.7392,-2.8164,-2.8739,-2.9265,-2.9796,-2.9939,-2.9814,-2.9387,-2.8036,-2.7389,-2.8068,-2.6764,-2.6218,-2.6981,-2.6343,-2.5895,-2.5895,-2.631,-2.653,-2.6584,-2.6977,-2.7261,-2.7315,-2.7696,-2.7914,-2.7914,-2.7914,-2.7914,-2.7914,-2.7914,-2.7914,-2.796,-2.8421,-2.8902,-2.9332,-2.9328,-2.9312,-2.9312,-2.9312,-2.9496,-2.9636,-2.8704,-2.8134,-2.7881,-2.8231,-2.8391,-2.8431,-2.8431,-2.8471,-2.851,-2.851,-2.851,-2.851,-2.851,-2.851,-2.851,-2.851,-2.851,-2.851,-2.851,-2.851,-2.851,-2.851,-2.851,-2.851,-2.851,-2.851,-2.851,-2.851,-2.851,-2.851,-2.851,-2.851,-2.851,-2.851,-2.851,-2.851,-2.851,-2.851,-2.8486,-2.8426,-2.7933,-2.7594,-2.7594,-2.715,-2.6898,-2.6898,-2.7265,-2.7105,-2.6347,-2.6662,-2.6124,-2.4543,-2.4235,-2.3534,-2.2564,-2.2318,-2.223,-2.044,0.0,0.0,0.0,-2.2311,-2.326,-2.4381,-2.4595,-2.4901,-2.6069,-2.625,-2.6377,-2.699,-2.7295,-2.7803,0.0,-2.9153,-2.9601,-3.0503,-3.0309,-3.0069,-2.9955,-2.8871,-2.8195,-2.839,-2.7758,-2.7528,-2.7879,-2.7557,-2.7174,-2.6663,-2.7094,-2.7253,-2.702,-2.7445,-2.7872,-2.8145,-2.8353,-2.8462,-2.8462,-2.8462,-2.8462,-2.8462,-2.8727,-2.9046,-2.9319,-2.9827,-3.013,-3.033,-3.0604,-3.0739,-3.0739,-3.0739,-3.0678,-3.044,-2.9437,-2.8917,-2.8772,-2.9246,-2.9027,-2.8558,-2.8871,-2.8763,-2.851,-2.851,-2.851,-2.851,-2.851,-2.851,-2.851,-2.851,-2.851,-2.851,-2.851,-2.851,-2.851,-2.851,-2.851,-2.851,-2.851,-2.851,-2.851,-2.851,-2.851,-2.851,-2.851,-2.851,-2.851,-2.851,-2.851,-2.851,-2.851,-2.851,-2.851,-2.851,-2.8306,-2.8186,-2.8186,-2.7981,-2.7849,-2.7849,-2.7569,-2.6984,-2.6069,-2.5773,-2.4999,-2.3691,-2.3551,-2.3256,-2.2794,-2.2706,-2.2662,-2.2024,0.0,0.0,-2.3417,-2.4405,-2.5344,-2.567,-2.6002,-2.6536,-2.7517,-2.7375,-2.7218,-2.7834,-2.7776,0.0,-2.9162,-2.9476,-2.9922,-3.088,-3.049,-3.0189,-3.042,-2.9698,-2.9152,-2.9203,-2.8703,-2.8505,-2.8743,-2.8545,-2.8219,-2.7778,-2.7988,-2.8037,-2.7933,-2.8117,-2.8442,-2.8978,-2.8839,-2.8839,-2.8978,-2.885,-2.8896,-2.9024,-2.9485,-2.9943,-3.0397,-3.0769,-3.0994,-3.1172,-3.1528,-3.1705,-3.1705,-3.1705,-3.1476,-3.1048,-3.0307,-2.9833,-2.9556,-2.9785,-2.9364,-2.8775,-2.9003,-2.8823,-2.851,-2.851,-2.851,-2.851,-2.851,-2.851,-2.851,-2.851,-2.851,-2.851,-2.851,-2.851,-2.851,-2.851,-2.851,-2.851,-2.851,-2.851,-2.851,-2.851,-2.851,-2.851,-2.851,-2.851,-2.851,-2.851,-2.851,-2.851,-2.851,-2.851,-2.851,-2.851,-2.851,-2.851,-2.851,-2.851,-2.851,-2.851,-2.7886,-2.6999,-2.5819,-2.5158,-2.4284,-2.3091,-2.3091,-2.3057,-2.3013,-2.3013,-2.2993,0.0,0.0,-2.3841,-2.4495,-2.5259,-2.6172,-2.7352,-2.7637,-2.7827,-2.8438,-2.7926,-2.7556,-2.8179,-2.8137,-2.8339,-2.9324,-2.9983,-3.0513,-3.0932,-3.049,-3.0406,-3.118,-3.0537,-3.0346,0.0,-2.9524,-2.8743,-2.9588,-2.8861,-2.8655,-2.9196,-2.8834,-2.8841,-2.9412,-2.9023,-2.9013,-2.9485,-2.9035,-2.9035,-2.9485,-2.9024,-2.9035,-2.9485,-2.9943,-3.0442,-3.0904,-3.0892,-3.1217,-3.1661,-3.1705,-3.1705,-3.1705,-3.1705,-3.1705,-3.1681,-3.1625,-3.0951,-2.9989,-2.9496,-2.9304,-2.9196,-2.8703,-2.8522,-2.851,-2.851,-2.851,-2.851,-2.851,-2.851,-2.851,-2.851,-2.851,-2.851,-2.851,-2.851,-2.851,-2.851,-2.851,-2.851,-2.851,-2.851,-2.851,-2.851,-2.851,-2.851,-2.851,-2.851,-2.851,-2.851,-2.851,-2.851,-2.851,-2.851,-2.851,-2.851,-2.851,-2.851,-2.851,-2.851,-2.851,-2.851,-2.8471,-2.7632,-2.5819,-2.5777,-2.4904,-2.3091,-2.3091,-2.3013,-2.2794,-2.2794,-2.2936,0.0,0.0,-2.5741,-2.6565,-2.7266,-2.785,-2.8193,-2.8302,-2.8234,-2.8044,-2.7359,-2.6858,-2.7059,-2.688,-2.7142,-2.8665,-2.9451,-3.0177,-3.1066,-3.0771,-3.0553,-3.0679,-3.0461,0.0,0.0,0.0,0.0,-3.0759,-3.0482,-3.0342,-3.0348,-2.9808,-2.964,-2.9963,-2.9489,-2.9347,-2.9485,-2.9347,-2.9347,-2.9485,-2.9669,-2.9988,-3.0442,-3.0578,-3.0937,-3.1439,-3.1439,-3.1528,-3.1705,-3.1705,-3.1705,-3.1705,-3.1705,-3.1705,-3.1705,-3.1705,-3.1476,-3.1151,-3.097,-3.041,-2.9845,-3.0025,-2.9605,-2.9027,-2.9027,-2.8787,-2.851,-2.851,-2.851,-2.851,-2.851,-2.851,-2.851,-2.851,-2.851,-2.851,-2.851,-2.851,-2.851,-2.851,-2.851,-2.851,-2.851,-2.851,-2.851,-2.851,-2.851,-2.851,-2.851,-2.851,-2.851,-2.851,-2.851,-2.851,-2.851,-2.851,-2.851,-2.851,-2.851,-2.851,-2.851,-2.851,-2.7926,-2.6753,-2.6121,-2.52,-2.4026,-2.3387,-2.3057,-2.3013,-2.3013,-2.3104,0.0,-2.6533,-2.7395,-2.8211,-2.888,-2.9225,-2.8744,-2.8785,-2.8581,-2.7309,-2.6478,-2.5961,-2.5956,-2.5453,-2.5781,-2.8093,-2.8775,-2.9596,-3.1172,-3.093,-3.0662,-3.0924,-3.0679,0.0,0.0,0.0,0.0,-3.1397,-3.1347,-3.1414,-3.1641,-3.0932,-3.076,-3.1288,-3.0547,-3.0193,-3.0374,-2.9977,-2.976,-2.976,-3.0216,-3.0623,-3.0904,-3.1083,-3.1395,-3.1705,-3.1705,-3.1705,-3.1705,-3.1705,-3.1705,-3.1705,-3.1705,-3.1705,-3.1705,-3.1705,-3.1705,-3.1681,-3.1488,-3.0983,-3.0398,-3.0543,-3.0134,-2.9544,-2.9352,-2.9063,-2.8751,-2.8558,-2.851,-2.851,-2.851,-2.851,-2.851,-2.851,-2.851,-2.851,-2.851,-2.851,-2.851,-2.851,-2.851,-2.851,-2.851,-2.851,-2.851,-2.851,-2.851,-2.851,-2.851,-2.851,-2.851,-2.851,-2.851,-2.851,-2.851,-2.851,-2.851,-2.851,-2.851,-2.851,-2.851,-2.851,-2.8099,-2.7226,-2.6287,-2.5368,-2.4498,-2.356,-2.3091,-2.3101,-2.3257,-2.3504,-2.6462,-2.7619,-2.8732,-2.949,-3.0133,-3.023,-2.9015,-2.9112,-2.877,-2.6358,-2.5356,-2.4876,0.0,0.0,-2.4284,-2.765,-2.8131,-2.8877,-3.1276,-3.0957,-3.0847,0.0,0.0,0.0,0.0,0.0,0.0,-3.1686,0.0,-3.1838,-3.2974,-3.2182,-3.2193,-3.3314,-3.2003,-3.1545,-3.2033,-3.088,-3.0261,-3.0261,-3.0724,-3.0949,-3.0949,-3.1484,-3.1705,-3.1705,-3.1705,-3.1705,-3.1705,-3.1705,-3.1705,-3.1705,-3.1705,-3.1705,-3.1705,-3.1705,-3.1705,-3.1633,-3.1139,-3.0958,-3.0874,-3.0338,-3.0146,-3.0037,-2.9532,-2.934,-2.9196,-2.8691,-2.8534,-2.851,-2.851,-2.851,-2.851,-2.851,-2.851,-2.851,-2.851,-2.851,-2.851,-2.851,-2.851,-2.851,-2.851,-2.851,-2.851,-2.851,-2.851,-2.851,-2.851,-2.851,-2.851,-2.851,-2.851,-2.851,-2.851,-2.851,-2.851,-2.851,-2.851,-2.851,-2.851,-2.851,-2.8099,-2.7267,-2.6329,-2.5453,-2.4584,-2.3647,-2.3154,-2.314,-2.3594,-2.4033,-2.8945,-3.002,-3.0696,-3.0944,-3.1143,-3.0895,-2.9594,-2.903,-2.8081,-2.5726,-2.4341,-2.3328,-2.2487,0.0,0.0,-2.6536,-2.8061,0.0,-3.1548,-3.1792,0.0,0.0,0.0,-3.1679,-3.1877,-3.189,0.0,0.0,-3.2535,-3.2707,-3.3404,-3.2851,-3.2985,-3.4108,-3.3066,-3.2593,-3.2735,-3.1921,-3.1282,-3.0713,-3.1261,-3.1484,-3.1484,-3.1617,-3.1705,-3.1705,-3.1705,-3.1705,-3.1705,-3.1705,-3.1705,-3.1705,-3.1705,-3.1705,-3.1705,-3.1705,-3.1705,-3.1693,-3.1548,-3.1512,-3.1488,-3.1356,-3.1043,-3.0694,-3.0506,-2.9917,-2.9268,-2.9136,-2.8823,-2.851,-2.851,-2.851,-2.851,-2.851,-2.851,-2.851,-2.851,-2.851,-2.851,-2.851,-2.851,-2.851,-2.851,-2.851,-2.851,-2.851,-2.851,-2.851,-2.851,-2.851,-2.851,-2.851,-2.851,-2.851,-2.851,-2.851,-2.851,-2.851,-2.851,-2.851,-2.851,-2.851,-2.8391,-2.8179,-2.7296,-2.6381,-2.5453,-2.4573,-2.3948,-2.3623,-2.374,-2.4189,-3.0381,-3.132,-3.1866,-3.1873,-3.1667,-3.0912,-2.883,-2.8054,-2.6852,-2.3669,-2.2454,0.0,0.0,0.0,0.0,0.0,0.0,0.0,-3.1325,-3.1874,-3.2073,0.0,-3.2036,0.0,-3.2036,-3.2266,-3.26,0.0,-3.2914,-3.314,-3.3948,-3.3714,-3.3947,-3.4799,-3.3814,-3.3006,-3.2457,-3.2077,-3.1649,-3.1261,-3.1572,-3.1705,-3.1705,-3.1705,-3.1705,-3.1705,0.0,-3.1705,-3.1705,-3.1705,-3.1705,-3.1705,-3.1705,-3.1705,-3.1705,-3.1705,-3.1705,-3.1705,-3.1705,-3.1705,-3.1705,-3.1705,-3.1512,-3.1223,-3.0995,-3.0458,-2.9893,-2.9436,-2.9088,-2.8799,-2.857,-2.851,-2.851,-2.851,-2.851,-2.851,-2.851,-2.851,-2.851,-2.851,-2.851,-2.851,-2.851,-2.851,-2.851,-2.851,-2.851,-2.851,-2.851,-2.851,-2.851,-2.851,-2.851,-2.851,-2.851,-2.851,-2.851,-2.851,-2.851,-2.851,-2.851,-2.851,-2.851,-2.851,-2.7255,-2.6329,-2.5777,-2.4738,-2.4067,-2.3799,-2.417,-2.4609,-3.1166,-3.1951,-3.2398,-3.2398,-3.1828,-3.0551,-2.7743,-2.6812,-2.539,-2.1402,0.0,0.0,-1.9565,0.0,-2.1385,-2.4408,0.0,-2.8177,-3.0899,-3.1591,-3.1905,-3.2169,-3.2218,-3.2218,-3.2218,-3.2762,-3.3129,-3.321,-3.3103,-3.3488,-3.4511,-3.4632,-3.4915,-3.5413,-3.4468,-3.336,-3.2133,-3.2001,-3.1925,-3.1837,-3.1749,-3.1705,-3.1705,-3.1705,-3.1705,-3.1705,0.0,0.0,-3.1705,-3.1705,-3.1705,-3.1705,-3.1705,-3.1705,-3.1705,-3.1705,-3.1705,-3.1705,-3.1705,-3.1705,-3.1705,-3.1705,-3.1705,-3.1621,-3.1163,-3.097,-3.073,-2.9761,-2.9412,-2.9196,-2.8739,-2.8558,-2.851,-2.851,-2.851,-2.851,-2.851,-2.851,-2.851,-2.851,-2.851,-2.851,-2.851,-2.851,-2.851,-2.851,-2.851,-2.851,-2.851,-2.851,-2.851,-2.851,-2.851,-2.851,-2.851,-2.851,-2.851,-2.851,-2.851,-2.851,-2.851,-2.851,-2.8431,-2.8351,-2.6794,-2.5872,-2.561,-2.4517,-2.3943,-2.3896,-2.4744,-2.5145,-3.1859,-3.2305,-3.2398,-3.2398,-3.149,-3.0161,-2.8522,-2.6546,0.0,0.0,0.0,-1.9382,-1.8378,-1.9103,0.0,-2.3757,0.0,0.0,0.0,0.0,-3.159,0.0,0.0,0.0,0.0,0.0,0.0,0.0,0.0,0.0,-3.4749,-3.5209,-3.5534,-3.5629,-3.5467,-3.4964,-3.4204,-3.3628,-3.3086,-3.2537,-3.1969,-3.1705,-3.1705,-3.1705,-3.1705,-3.1705,0.0,0.0,-3.1705,-3.1705,-3.1705,-3.1705,-3.1705,-3.1705,-3.1705,-3.1705,-3.1705,-3.1705,-3.1705,-3.1705,-3.1705,-3.1705,-3.1705,-3.1693,-3.1597,-3.1259,-3.0874,-3.0651,-2.9965,-2.928,-2.9184,-2.8835,-2.851,-2.851,-2.851,-2.851,-2.851,-2.851,-2.851,-2.851,-2.851,-2.851,-2.851,-2.851,-2.851,-2.851,-2.851,-2.851,-2.851,-2.851,-2.851,-2.851,-2.851,-2.851,-2.851,-2.851,-2.851,-2.851,-2.851,-2.851,-2.851,-2.851,-2.8179,-2.7429,-2.7133,-2.6216,-2.4754,-2.4813,-2.4655,-2.4316,-2.4834,-2.5273,-3.2044,-3.2398,-3.2305,-3.1951,-3.0689,-2.8981,-2.6929,0.0,0.0,0.0,0.0,-1.8031,-1.7534,0.0,0.0,0.0,0.0,0.0,0.0,0.0,0.0,0.0,0.0,0.0,0.0,0.0,0.0,0.0,0.0,0.0,-3.5249,-3.556,-3.5548,-3.5168,-3.5182,-3.484,-3.4176,-3.3501,-3.3,-3.2667,-3.2013,-3.1705,-3.1705,-3.1705,-3.1705,-3.1705,-3.1705,0.0,-3.1705,-3.1705,-3.1705,-3.1705,-3.1705,-3.1705,-3.1705,-3.1705,-3.1705,-3.1705,-3.1705,-3.1705,-3.1705,-3.1705,-3.1705,-3.1705,-3.1705,-3.1536,-3.1271,-3.0995,-3.0314,-2.9641,-2.9364,-2.8907,-2.851,-2.851,-2.851,-2.851,-2.851,-2.851,-2.851,-2.851,-2.851,-2.851,-2.851,-2.851,-2.851,-2.851,-2.851,-2.851,-2.851,-2.851,-2.851,-2.851,-2.851,-2.851,-2.851,-2.851,-2.851,-2.851,-2.851,-2.851,-2.851,-2.851,-2.8299,-2.7886,-2.6958,-2.6159,-2.553,-2.4985,-2.4729,-2.4766,-2.5205,-2.5527,-3.1813,-3.2275,-3.2228,-3.1578,-2.9999,-2.7946,-2.5303,-2.2475,0.0,0.0,0.0,-1.7,-1.7,0.0,0.0,0.0,0.0,0.0,0.0,0.0,0.0,0.0,0.0,0.0,0.0,0.0,0.0,0.0,0.0,0.0,-3.571,-3.571,-3.5467,-3.4922,-3.4922,-3.4675,-3.4134,-3.3343,-3.2927,-3.2884,-3.2101,-3.1705,-3.1705,-3.1705,-3.1705,-3.1705,-3.1705,0.0,0.0,-3.1705,-3.1705,-3.1705,-3.1705,-3.1705,-3.1705,-3.1705,-3.1705,-3.1705,-3.1705,-3.1705,-3.1705,-3.1705,-3.1705,-3.1705,-3.1705,-3.1705,-3.1621,-3.1199,-3.0579,-2.9989,-2.9581,-2.8991,-2.851,-2.851,-2.851,-2.851,-2.851,-2.851,-2.851,-2.851,-2.851,-2.851,-2.851,-2.851,-2.851,-2.851,-2.851,-2.851,-2.851,-2.851,-2.851,-2.851,-2.851,-2.851,-2.851,-2.851,-2.851,-2.851,-2.851,-2.851,-2.851,-2.851,-2.8431,-2.8219,-2.6937,-2.6253,-2.6206,-2.5325,-2.496,-2.5125,-2.5527,-2.5693,-3.112,-3.1921,-3.2228,-3.1578,-2.9894,-2.7767,-2.5266,0.0,0.0,0.0,-1.7277,-1.7,-1.7,0.0,0.0,0.0,0.0,0.0,0.0,0.0,0.0,0.0,0.0,0.0,0.0,0.0,0.0,0.0,0.0,0.0,0.0,-3.571,-3.5669,-3.5588,-3.5588,-3.5588,-3.5507,-3.4259,-3.3586,-3.3586,-3.2307,-3.1705,-3.1705,-3.1705,-3.1705,-3.1705,0.0,0.0,0.0,-3.1705,-3.1705,-3.1705,-3.1705,-3.1705,-3.1705,-3.1705,-3.1705,-3.1705,-3.1705,-3.1705,-3.1705,-3.1705,-3.1705,-3.1705,-3.1705,-3.1705,-3.1705,-3.1657,-3.091,-3.0074,-3.0025,-2.9268,-2.851,-2.851,-2.851,-2.851,-2.851,-2.851,-2.851,-2.851,-2.851,-2.851,-2.851,-2.851,-2.851,-2.851,-2.851,-2.851,-2.851,-2.851,-2.851,-2.851,-2.851,-2.851,-2.851,-2.851,-2.851,-2.851,-2.851,-2.851,-2.851,-2.851,-2.8139,-2.7348,-2.7621,-2.6934,-2.5249,-2.6041,-2.5939,-2.5125,-2.5527,-2.5693,-3.0335,-3.1289,-3.1628,-3.0966,-2.9117,-2.6892,-2.4605,0.0,-1.9017,-1.7838,-1.7277,-1.7,-1.7,-1.7495,-1.8255,0.0,-1.9361,0.0,0.0,0.0,0.0,0.0,0.0,0.0,0.0,0.0,0.0,0.0,0.0,0.0,0.0,-3.529,-3.571,-3.571,-3.571,-3.571,-3.571,-3.4384,-3.3713,-3.367,-3.2351,-3.1705,-3.1705,-3.1705,-3.1705,-3.1705,0.0,0.0,0.0,-3.1705,-3.1705,-3.1705,-3.1705,-3.1705,-3.1705,-3.1705,-3.1705,-3.1705,-3.1705,-3.1705,-3.1705,-3.1705,-3.1705,-3.1705,-3.1705,-3.1705,-3.1705,-3.1705,-3.0946,-3.0086,-3.0086,-2.9304,-2.851,-2.851,-2.851,-2.851,-2.851,-2.851,-2.851,-2.851,-2.851,-2.851,-2.851,-2.851,-2.851,-2.851,-2.851,-2.851,-2.851,-2.851,-2.851,-2.851,-2.851,-2.851,-2.851,-2.851,-2.851,-2.851,-2.851,-2.851,-2.851,-2.851,-2.8494,-2.8468,-2.8173,-2.7622,-2.6768,-2.6662,-2.6215,-2.5478,-2.5606,-2.5693,-2.8747,-2.9913,-3.0391,-2.9538,-2.7934,-2.5938,0.0,0.0,-1.848,-1.7603,-1.7196,-1.7,-1.7,-1.7495,-1.8038,0.0,-1.8323,-1.9138,-2.1912,0.0,0.0,0.0,0.0,0.0,0.0,0.0,0.0,0.0,0.0,0.0,0.0,-3.4707,-3.5236,-3.5412,-3.5628,-3.571,-3.571,-3.4551,-3.3882,-3.367,-3.2525,-3.1881,-3.1705,-3.1705,-3.1705,-3.1705,0.0,0.0,0.0,-3.1705,-3.1705,-3.1705,-3.1705,-3.1705,-3.1705,-3.1705,-3.1705,-3.1705,-3.1705,-3.1705,-3.1705,-3.1705,-3.1705,-3.1705,-3.1705,-3.1705,-3.1705,-3.1705,-3.0946,-3.0013,-2.9701,-2.9076,-2.8546,-2.8703,-2.8619,-2.8546,-2.8703,-2.8619,-2.851,-2.851,-2.851,-2.851,-2.851,-2.851,-2.851,-2.851,-2.851,-2.851,-2.851,-2.851,-2.851,-2.851,-2.851,-2.851,-2.851,-2.851,-2.851,-2.851,-2.851,-2.851,-2.851,-2.8655,-2.8919,-2.9292,-2.8999,-2.8539,-2.7914,-2.7427,-2.6711,-2.5693,-2.5693,-2.5693,-2.6198,-2.761,-2.8438,-2.7155,-2.6273,-2.4969,0.0,-1.9976,-1.8307,-1.7224,-1.7,-1.7,-1.7,-1.7495,-1.7902,-1.7916,-1.8405,-1.9614,-2.1966,0.0,0.0,0.0,0.0,0.0,0.0,0.0,0.0,0.0,0.0,0.0,0.0,-3.3921,-3.4192,-3.4788,-3.5371,-3.571,-3.571,-3.5046,-3.4343,-3.367,-3.3,-3.232,-3.1705,-3.1705,-3.1705,0.0,0.0,0.0,0.0,-3.1705,-3.1705,-3.1705,-3.1705,-3.1705,-3.1705,-3.1705,-3.1705,-3.1705,-3.1705,-3.1705,-3.1705,-3.1705,-3.1705,-3.1705,-3.1705,-3.1705,-3.1705,-3.1705,-3.0946,-2.9845,-2.8799,-2.8522,-2.8643,-2.9172,-2.8895,-2.8655,-2.9184,-2.8883,-2.851,-2.851,-2.851,-2.851,-2.851,-2.851,-2.851,-2.851,-2.851,-2.851,-2.851,-2.851,-2.851,-2.851,-2.851,-2.851,-2.851,-2.851,-2.851,-2.851,-2.851,-2.851,-2.851,-2.9015,-2.9292,-2.9304,-3.0326,-2.9907,-2.7914,-2.844,-2.7662,-2.5693,-2.5693,-2.5693,-2.3966,-2.513,-2.576,-2.4901,-2.4053,-2.2964,-2.1204,-1.9719,-1.8529,-1.7779,-1.7631,-1.7631,-1.7631,-1.778,-1.8275,-1.9474,0.0,0.0,0.0,0.0,0.0,0.0,0.0,0.0,0.0,0.0,0.0,0.0,0.0,0.0,0.0,-3.3118,-3.3607,-3.4165,-3.4368,-3.4463,-3.4463,-3.422,-3.3742,-3.3082,-3.2812,-3.2363,-3.1705,-3.1705,0.0,0.0,0.0,0.0,0.0,-3.156,-3.1488,-3.1163,-3.1163,-3.1163,-3.1163,-3.1163,-3.1163,-3.1223,-3.1585,-3.1705,-3.1705,-3.1705,-3.1705,-3.1705,-3.1705,-3.1705,-3.156,-3.0826,-3.0645,-3.0302,-2.8883,-2.8775,-2.9003,-2.8811,-2.8907,-2.9088,-2.9256,-2.9172,-2.9051,-2.9051,-2.8751,-2.851,-2.851,-2.851,-2.851,-2.851,-2.851,-2.851,-2.851,-2.851,-2.851,-2.851,-2.851,-2.851,-2.851,-2.851,-2.851,-2.851,-2.8847,-2.9051,-2.9051,-2.9556,-2.9695,-2.9374,-2.9712,-2.9082,-2.7441,-2.7578,-2.6962,-2.5693,-2.5693,-2.5693,0.0,-2.2533,-2.3025,-2.26,-2.2081,-2.1364,-2.0125,-1.9127,-1.835,-1.7984,-1.7902,-1.7902,-1.7902,-1.7902,-1.8269,-1.9325,0.0,0.0,0.0,0.0,0.0,0.0,0.0,0.0,0.0,0.0,0.0,0.0,0.0,0.0,0.0,0.0,-3.2901,-3.323,-3.3677,-3.3908,-3.3908,-3.3883,-3.3516,-3.2846,-3.2561,-3.2077,-3.1448,-3.1189,0.0,0.0,0.0,0.0,0.0,-3.097,-3.0922,-3.0621,-3.0621,-3.0621,-3.0621,-3.0621,-3.0621,-3.0669,-3.0995,-3.1247,-3.1404,-3.1404,-3.1548,-3.1705,-3.1705,-3.1705,-3.1524,-3.0669,-3.0627,-3.0555,-2.9172,-2.9051,-2.922,-2.8883,-2.9063,-2.9304,-2.9304,-2.9304,-2.9244,-2.9039,-2.8739,-2.857,-2.8775,-2.8811,-2.8871,-2.9076,-2.91,-2.91,-2.91,-2.8931,-2.8883,-2.9088,-2.8931,-2.8883,-2.9088,-2.8919,-2.8811,-2.8811,-2.9304,-2.9593,-2.9593,-2.9748,-2.9679,-2.9412,-2.9239,-2.8523,-2.7189,-2.6829,-2.6322,-2.5693,-2.5693,-2.5693,0.0,-1.9863,-2.0218,-2.017,-2.016,-1.9908,-1.8843,-1.8174,0.0,-1.7834,-1.7848,-1.7889,-1.8011,-1.7957,-1.7984,-1.8242,0.0,0.0,0.0,0.0,0.0,0.0,0.0,0.0,0.0,0.0,0.0,0.0,0.0,0.0,0.0,0.0,-3.2218,-3.2218,-3.3216,-3.3786,-3.3786,-3.3788,-3.3441,-3.2765,-3.221,-3.1592,-3.0923,-3.0367,0.0,0.0,0.0,0.0,0.0,-3.0116,-3.0103,-3.0109,-3.0067,-3.0025,-3.0025,-3.0025,-3.0025,-3.0037,-3.0074,-3.0434,-3.0922,-3.0915,-3.1308,-3.1705,-3.1705,-3.1705,-3.1597,-3.1067,-3.0946,-3.073,-2.9629,-2.9352,-2.9352,-2.9352,-2.9328,-2.9316,-2.94,-2.9376,-2.922,-2.8775,-2.8643,-2.8775,-2.9268,-2.9352,-2.952,-3.0013,-3.0086,-3.0086,-3.0086,-2.9665,-2.9544,-3.0037,-2.9641,-2.9556,-3.005,-2.9641,-2.9352,-2.9352,-2.9845,-3.0134,-3.0049,-2.9654,-2.9381,-2.9248,-2.8738,-2.8028,-2.7094,-2.6149,-2.5693,-2.5693,-2.5693,-2.5693,-1.6386,0.0,-1.7476,-1.6954,-1.6987,-1.7062,0.0,-1.662,0.0,0.0,0.0,0.0,0.0,0.0,0.0,0.0,0.0,0.0,0.0,0.0,0.0,0.0,0.0,0.0,0.0,0.0,0.0,0.0,0.0,0.0,0.0,0.0,-3.2218,-3.2218,-3.2453,-3.2589,-3.2589,-3.256,-3.2186,-3.1525,-3.1402,-3.0964,-3.0295,-3.017,0.0,0.0,0.0,0.0,-3.0851,-3.0321,-3.0124,-3.0142,-2.9678,-2.9484,-2.9484,-2.9484,-2.9484,-2.9544,-2.9941,-3.0434,-3.0983,-3.1392,-3.1609,-3.1705,-3.1705,-3.1705,-3.1597,-3.1067,-3.1211,-3.1284,-3.017,-2.9893,-2.9893,-2.9893,-2.9593,-2.952,-3.0338,-3.0194,-2.9989,-3.0266,-2.9989,-2.9749,-2.9881,-2.9893,-2.9941,-3.0074,-3.0086,-3.0086,-3.0086,-2.9977,-2.9953,-3.0074,-2.9977,-2.9953,-3.0074,-2.9977,-2.9893,-2.9893,-3.0441,-3.0374,-2.9602,-2.9867,-2.9296,-2.7764,-2.6826,-2.6284,-2.6052,-2.583,-2.5693,-2.5693,-2.5693,-2.5693,-1.4959,-1.5931,-1.6817,-1.6725,-1.703,-1.7326,-1.7326,0.0,0.0,0.0,0.0,0.0,0.0,0.0,0.0,0.0,0.0,0.0,0.0,0.0,0.0,0.0,0.0,0.0,0.0,0.0,0.0,0.0,0.0,0.0,0.0,0.0,-3.2218,-3.2218,-3.19,-3.19,-3.2218,-3.2172,-3.1971,-3.1608,-3.128,-3.0794,-3.018,-2.991,0.0,0.0,0.0,0.0,-3.0559,-2.9828,-2.9807,-3.0168,-2.9389,-2.9133,-2.9173,-2.9012,-2.9012,-2.9088,-2.9297,-2.9713,-3.0278,-3.1091,-3.1344,-3.1392,-3.1633,-3.1536,-3.1332,-3.1296,-3.1488,-3.1524,-3.0663,-3.0446,-3.0386,-3.0146,-3.0062,-3.011,-3.0446,-3.0482,-3.0458,-3.0506,-3.029,-3.017,-3.041,-3.0446,-3.053,-3.0814,-3.0807,-3.0807,-3.0807,-3.0603,-3.0543,-3.0826,-3.0591,-3.0585,-3.0826,-3.0807,-3.0711,-3.0458,-3.0537,-3.0313,-2.9801,-2.9147,-2.8075,-2.6552,-2.5965,-2.5693,-2.5693,-2.5693,-2.5693,-2.5693,-2.5693,-2.5693,-1.4517,-1.5833,-1.719,-1.744,-1.8011,-1.8486,-1.8405,0.0,0.0,0.0,0.0,0.0,0.0,0.0,0.0,0.0,0.0,0.0,0.0,0.0,0.0,0.0,0.0,0.0,0.0,0.0,0.0,0.0,0.0,0.0,0.0,0.0,0.0,-3.2218,-3.1666,-3.1579,-3.2059,-3.195,-3.195,-3.2059,-3.1394,-3.0733,-3.0139,-2.9639,-2.9118,0.0,0.0,0.0,-3.0024,-2.9172,-2.9367,-3.0177,-2.9223,-2.8961,-2.9052,-2.8657,-2.8657,-2.8764,-2.8674,-2.8919,-2.946,-3.0477,-3.0807,-3.0963,-3.1452,-3.1271,-3.1007,-3.1464,-3.1524,-3.1404,-3.1115,-3.0922,-3.0687,-3.0398,-3.0585,-3.0718,-3.0386,-3.0657,-3.0814,-3.0398,-3.0326,-3.047,-3.0958,-3.1043,-3.1199,-3.1633,-3.1705,-3.1705,-3.1705,-3.1308,-3.1211,-3.1657,-3.1308,-3.1223,-3.1669,-3.1705,-3.1524,-3.1067,-3.0489,-3.0068,-2.9749,-2.7981,-2.6552,-2.5742,-2.5693,-2.5693,-2.5693,-2.5693,-2.5693,-2.5693,-2.5693,-2.5693,-1.5562,-1.6769,-1.7427,-1.5973,-1.6462,-1.7136,0.0,0.0,0.0,0.0,0.0,0.0,0.0,0.0,0.0,0.0,0.0,0.0,0.0,0.0,0.0,0.0,0.0,0.0,0.0,0.0,0.0,0.0,0.0,0.0,0.0,0.0,0.0,-3.2218,-3.2096,-3.1813,-3.1344,-3.0859,-3.0859,-3.1344,-3.0733,-3.0139,-2.9535,-2.9457,-2.9341,0.0,0.0,-2.9263,-3.0418,-2.9289,-2.9302,-2.9999,-2.9314,-2.9052,-2.9052,-2.8843,-2.8764,-2.8825,-2.9096,-2.9232,-2.94,-3.0013,-3.0506,-3.0934,-3.1019,-3.0983,-3.0934,-3.1019,-3.0718,-3.0561,-3.138,-3.0922,-3.041,-3.1271,-3.0838,-3.0434,-3.1296,-3.1175,-3.1031,-3.1392,-3.1464,-3.1488,-3.1573,-3.1585,-3.1621,-3.1693,-3.1705,-3.1705,-3.1705,-3.1633,-3.1621,-3.1705,-3.1633,-3.1621,-3.1705,-3.1705,-3.1669,-3.1585,-3.0732,-2.9418,-2.7746,-2.6562,-2.5868,-2.5693,-2.5693,-2.5693,-2.5693,-2.5693,-2.5693,-2.5693,-2.5693,-2.5693,-1.4979,-1.624,-1.7204,-1.6381,-1.7787,-1.9285,0.0,0.0,0.0,0.0,0.0,0.0,0.0,0.0,0.0,0.0,0.0,0.0,0.0,0.0,0.0,0.0,0.0,0.0,0.0,0.0,0.0,0.0,0.0,0.0,0.0,0.0,0.0,0.0,-3.1863,-3.1505,-3.1182,-3.0582,-3.0582,-3.1182,-3.0921,-3.0469,-2.9871,-2.9871,-2.96,-2.9067,0.0,-2.9406,-3.0532,-2.9523,-2.9678,-3.038,-2.9561,-2.9365,-2.9429,-2.9091,-2.8803,-2.8654,-2.8827,-2.8871,-2.8967,-2.9484,-2.9821,-3.0074,-3.0362,-3.0254,-3.0086,-3.0374,-3.0482,-3.0669,-3.1151,-3.1139,-3.1103,-3.1585,-3.1332,-3.1115,-3.1609,-3.1524,-3.1416,-3.1657,-3.1705,-3.1705,-3.1705,-3.1705,-3.1705,-3.1705,-3.1705,-3.1705,-3.1705,-3.1705,-3.1705,-3.1705,-3.1705,-3.1705,-3.1705,-3.1705,-3.1238,-3.017,-2.9658,-2.8495,-2.6466,-2.5965,-2.5693,-2.5693,-2.5693,-2.5693,-2.5693,-2.5693,-2.5693,-2.5693,-2.5693,-2.5693,-1.4639,-1.5833,-1.7068,-1.7339,0.0,0.0,0.0,0.0,0.0,0.0,0.0,0.0,0.0,0.0,0.0,0.0,0.0,0.0,0.0,0.0,0.0,0.0,0.0,0.0,0.0,0.0,0.0,0.0,0.0,0.0,0.0,0.0,0.0,0.0,-3.1579,-3.1196,-3.1145,-3.062,-3.0582,-3.0996,-3.1033,-3.0733,-3.0165,-3.0203,-2.9716,-2.8882,-2.8882,-2.9406,-3.0266,-2.9639,-2.9909,-3.0582,-2.9806,-2.956,-2.9663,-2.9287,-2.8934,-2.8578,-2.8578,-2.855,-2.857,-2.8979,-2.9196,-2.9376,-2.9785,-2.9629,-2.9388,-2.9785,-3.0194,-3.0555,-3.0807,-3.1127,-3.1404,-3.1657,-3.1705,-3.1705,-3.1705,-3.1705,-3.1705,-3.1705,-3.1705,-3.1705,-3.1705,-3.1705,-3.1705,-3.1705,-3.1705,-3.1705,-3.1705,-3.1705,-3.1705,-3.1705,-3.1705,-3.1705,-3.1705,-3.1705,-3.0824,-2.8819,-2.868,-2.7804,-2.5781,-2.5693,-2.5693,-2.5693,-2.5693,-2.5693,-2.5693,-2.5693,-2.5693,-2.5693,-2.5693,-2.5693,-1.567,-1.6471,-1.7258,-1.8378,0.0,0.0,0.0,0.0,0.0,0.0,0.0,0.0,0.0,0.0,0.0,0.0,0.0,0.0,0.0,0.0,0.0,0.0,0.0,0.0,0.0,0.0,0.0,0.0,0.0,0.0,0.0,0.0,0.0,0.0,0.0,-3.1108,-3.0932,-3.0683,-3.0507,-3.0355,-3.0532,-3.0342,-2.9742,-2.996,-2.969,-2.9091,-2.9091,-2.9236,-2.9484,-2.9419,-2.9599,-2.9856,-2.9792,-2.965,-2.9419,-2.938,-2.9106,-2.8803,-2.8803,-2.8657,-2.8522,-2.8558,-2.8895,-2.9304,-2.9352,-2.9328,-2.9304,-2.9352,-2.9388,-2.9641,-3.0627,-3.0585,-3.0446,-3.1476,-3.1705,-3.1705,-3.1705,-3.1705,-3.1705,-3.1705,-3.1705,-3.1705,-3.1705,-3.1705,-3.1705,-3.1705,-3.1705,-3.1705,-3.1705,-3.1705,-3.1705,-3.1705,-3.1705,-3.1705,-3.1705,-3.1705,-3.0824,-2.8819,-2.868,-2.7804,-2.5781,-2.5693,-2.5693,-2.5693,-2.5693,-2.5693,-2.5693,-2.5693,-2.5693,-2.5693,-2.5693,-2.5693,-1.4761,-1.5969,-1.719,-1.8024,0.0,0.0,0.0,0.0,0.0,0.0,0.0,0.0,0.0,0.0,0.0,0.0,0.0,0.0,0.0,0.0,0.0,0.0,0.0,0.0,0.0,0.0,0.0,0.0,0.0,0.0,0.0,0.0,0.0,0.0,0.0,-3.0835,-3.0355,-3.0254,-2.9986,-2.9574,-3.0024,-3.0101,-2.9871,-2.996,-2.9729,-2.9275,-2.9275,-2.9431,-2.965,-2.965,-2.9702,-2.9792,-2.9792,-2.965,-2.9419,-2.9419,-2.9145,-2.8791,-2.8791,-2.8657,-2.851,-2.8657,-2.875,-2.8851,-2.8947,-2.8919,-2.8811,-2.8811,-2.8811,-2.9051,-3.011,-3.0482,-3.0802,-3.1536,-3.1805,-3.1849,-3.1705,-3.1805,-3.1849,-3.1705,-3.1705,-3.1705,-3.1705,-3.1705,-3.1705,-3.1705,-3.1705,-3.1705,-3.1705,-3.1705,-3.1705,-3.1705,-3.1705,-3.1705,-3.1705,-3.1705,-3.1015,-2.9441,-2.8912,-2.7804,-2.5781,-2.5693,-2.5693,-2.5693,-2.5693,-2.5693,-2.5693,-2.5693,-2.5693,-2.5693,-2.5693,-2.5693,-1.4232,-1.5616,-1.7138,0.0,0.0,0.0,0.0,0.0,0.0,0.0,0.0,0.0,0.0,0.0,0.0,0.0,0.0,0.0,0.0,0.0,0.0,0.0,0.0,0.0,0.0,0.0,0.0,0.0,0.0,0.0,0.0,0.0,0.0,0.0,0.0,-3.0508,-3.0177,-3.0152,-2.9806,-2.9197,-2.9703,-2.9896,-2.9806,-2.9896,-2.9793,-2.9521,-2.9521,-2.965,-2.9792,-2.9792,-2.9792,-2.9792,-2.9792,-2.9702,-2.9521,-2.9521,-2.9314,-2.8988,-2.8922,-2.8764,-2.8618,-2.8685,-2.8618,-2.855,-2.8657,-2.8618,-2.851,-2.851,-2.855,-2.8783,-2.9728,-3.0344,-3.0876,-3.1506,-3.1816,-3.195,-3.1805,-3.1849,-3.1849,-3.1705,-3.1705,-3.1705,-3.1705,-3.1705,-3.1705,-3.1705,-3.1705,-3.1705,-3.1705,-3.1705,-3.1705,-3.1705,-3.1705,-3.1705,-3.1705,-3.1705,-3.1294,-3.0374,-2.9108,-2.7579,-2.5781,-2.5693,-2.5693,-2.5693,-2.5693,-2.5693,-2.5693,-2.5693,-2.5693,-2.5693,-2.5693,-2.5693,-1.4463,-1.563,0.0,0.0,0.0,0.0,0.0,0.0,0.0,0.0,0.0,0.0,0.0,0.0,0.0,0.0,0.0,0.0,0.0,0.0,0.0,0.0,0.0,0.0,0.0,0.0,0.0,0.0,0.0,0.0,0.0,0.0,0.0,0.0,0.0,0.0,-3.0607,-3.0457,-3.005,-2.9419,-2.965,-2.965,-2.9419,-2.9702,-2.9792,-2.9792,-2.9792,-2.9792,-2.9792,-2.9792,-2.9792,-2.9792,-2.9792,-2.9792,-2.9792,-2.9792,-2.965,-2.938,-2.917,-2.8961,-2.8764,-2.8578,-2.851,-2.851,-2.851,-2.851,-2.851,-2.851,-2.8657,-2.8925,-2.9448,-2.9983,-3.0572,-3.1332,-3.1766,-3.1994,-3.1994,-3.1849,-3.1717,-3.1705,-3.1705,-3.1705,-3.1705,-3.1705,-3.1705,-3.1705,-3.1705,-3.1705,-3.1705,-3.1705,-3.1705,-3.1705,-3.1705,-3.1705,-3.1705,-3.1705,-3.1705,-3.1705,-2.92,-2.7125,-2.5781,-2.5693,-2.5693,-2.5693,-2.5693,-2.5693,-2.5693,-2.5693,-2.5693,-2.5693,-2.5693,-2.5693,-1.4873,0.0,0.0,0.0,0.0,0.0,0.0,0.0,0.0,0.0,0.0,0.0,0.0,0.0,0.0,0.0,0.0,0.0,0.0,0.0,0.0,0.0,0.0,0.0,0.0,0.0,0.0,0.0,0.0,0.0,0.0,0.0,0.0,0.0,0.0,0.0,-3.0024,-2.9998,-2.9895,-2.9702,-2.9753,-2.9753,-2.9702,-2.9753,-2.9792,-2.9792,-2.9792,-2.9792,-2.9792,-2.9792,-2.9792,-2.9792,-2.9792,-2.9792,-2.9792,-2.9792,-2.965,-2.938,-2.9341,-2.9197,-2.9,-2.9118,-2.8922,-2.8724,-2.8895,-2.8803,-2.8724,-2.8724,-2.8855,-2.9077,-2.9382,-3.0161,-3.0971,-3.1229,-3.1822,-3.2213,-3.1849,-3.1981,-3.2125,-3.1937,-3.1893,-3.1893,-3.1893,-3.1805,-3.1705,-3.1705,-3.1705,-3.1705,-3.1705,-3.1705,-3.1705,-3.1705,-3.1705,-3.1705,-3.1705,-3.1705,-3.1705,-3.1705,-2.9612,-2.7579,-2.5781,-2.5693,-2.5693,-2.5693,-2.5693,-2.5693,-2.5693,-2.5693,-2.5693,-2.5693,-2.5693,-2.5693,-1.5394,0.0,0.0,0.0,0.0,0.0,0.0,0.0,0.0,0.0,0.0,0.0,0.0,0.0,0.0,0.0,0.0,0.0,0.0,0.0,0.0,0.0,0.0,0.0,0.0,0.0,0.0,0.0,0.0,0.0,0.0,0.0,0.0,0.0,0.0,0.0,-2.9792,-2.9792,-2.9792,-2.9792,-2.9792,-2.9792,-2.9792,-2.9792,-2.9792,-2.9792,-2.9792,-2.9792,-2.9792,-2.9792,-2.9792,-2.9792,-2.9792,-2.9792,-2.9792,-2.9792,-2.9702,-2.956,-2.9419,-2.9302,-2.9197,-2.9184,-2.8988,-2.8803,-2.8855,-2.8843,-2.8791,-2.8791,-2.8961,-2.9197,-2.9341,-2.9967,-3.0677,-3.1186,-3.1908,-3.2419,-3.2145,-3.2257,-3.23,-3.2038,-3.1994,-3.1994,-3.1893,-3.1761,-3.1705,-3.1705,-3.1705,-3.1705,-3.1705,-3.1705,-3.1705,-3.1705,-3.1705,-3.1705,-3.1705,-3.1705,-3.1705,-3.1705,-2.9061,-2.6972,-2.5732,-2.5693,-2.5693,-2.5693,-2.5693,-2.5693,-2.5693,-2.5693,-2.5693,-2.5693,-2.5693,-2.5693,0.0,0.0,0.0,0.0,0.0,0.0,0.0,0.0,0.0,0.0,0.0,0.0,0.0,0.0,0.0,0.0,0.0,0.0,0.0,0.0,0.0,0.0,0.0,0.0,0.0,0.0,0.0,0.0,0.0,0.0,0.0,0.0,0.0,0.0,0.0,0.0,-2.9792,-2.9792,-2.9792,0.0,-2.9792,-2.9792,-2.9792,-2.9792,-2.9792,-2.9792,-2.9792,-2.9792,-2.9792,-2.9792,-2.9792,-2.9792,-2.9792,-2.9792,-2.9792,-2.9792,-2.9792,-2.9753,-2.9509,-2.9419,-2.938,-2.8988,-2.8843,-2.8803,-2.8618,-2.8697,-2.8843,-2.8843,-2.9079,-2.9353,-2.9353,-2.9534,-2.9991,-3.1009,-3.2009,-3.2711,-3.268,-3.2519,-3.23,-3.2081,-3.1994,-3.1937,-3.1761,-3.1705,-3.1705,-3.1705,-3.1705,-3.1705,-3.1705,-3.1705,-3.1705,-3.1705,-3.1705,-3.1705,-3.1705,-3.1705,-3.1528,-3.1205,-2.7731,-2.5693,-2.5693,-2.5693,-2.5693,-2.5693,-2.5693,-2.5693,-2.5693,-2.5693,-2.5693,-2.5693,-2.5693,-2.5693,0.0,0.0,0.0,0.0,0.0,0.0,0.0,0.0,0.0,0.0,0.0,0.0,0.0,0.0,0.0,0.0,0.0,0.0,0.0,0.0,0.0,0.0,0.0,0.0,0.0,0.0,0.0,0.0,0.0,0.0,0.0,0.0,0.0,0.0,0.0,-2.9792,-2.9792,-2.9792,-2.9792,0.0,-2.9792,-2.9792,-2.9792,-2.9792,-2.9792,-2.9792,-2.9792,-2.9792,-2.9792,-2.9792,-2.9792,-2.9792,-2.9792,-2.9792,-2.9792,-2.9792,-2.9792,-2.9792,-2.974,-2.9702,-2.9663,-2.9353,-2.9145,-2.9013,-2.8973,-2.9013,-2.9052,-2.9157,-2.9443,-2.9702,-2.9702,-2.9456,-2.9401,-3.0002,-3.1596,-3.2896,-3.2562,-3.2431,-3.2344,-3.2113,-3.2069,-3.2025,-3.1937,-3.1805,-3.1705,-3.1705,-3.1705,-3.1705,-3.1705,-3.1705,-3.1705,-3.1705,-3.1705,-3.1705,-3.1705,-3.1705,-3.0362,-2.7173,-2.6197,-2.5693,-2.5693,-2.5693,-2.5693,-2.5693,-2.5693,-2.5693,-2.5693,-2.5693,-2.5693,-2.5693,-2.5693,-2.5693,0.0,0.0,0.0,0.0,0.0,0.0,0.0,0.0,0.0,0.0,0.0,0.0,0.0,0.0,0.0,0.0,0.0,0.0,0.0,0.0,0.0,0.0,0.0,0.0,0.0,0.0,0.0,0.0,0.0,0.0,0.0,0.0,0.0,0.0,-2.9859,-2.9792,-2.9792,-2.9792,-2.9792,-2.9792,-2.9792,-2.9792,-2.9792,-2.9792,-2.9792,-2.9792,-2.9792,-2.9792,-2.9792,-2.9792,-2.9792,-2.9792,-2.9792,-2.9792,-2.9792,-2.9792,-2.9792,-2.9792,-2.9792,-2.9792,-2.9753,-2.947,-2.9341,-2.9236,-2.9131,-2.9131,-2.9197,-2.9275,-2.9534,-2.9792,-2.9792,-2.9624,-2.9507,-2.9753,-3.106,-3.2223,-3.197,-3.2363,-3.2692,-3.2593,-3.2376,-3.2169,-3.1893,-3.1749,-3.1705,-3.1705,-3.1705,-3.1705,-3.1705,-3.1705,-3.1705,-3.1705,-3.1705,-3.0913,-2.898,-2.8841,-2.7908,-2.583,-2.5693,-2.5693,-2.5693,-2.5693,-2.5693,-2.5693,-2.5693,-2.5693,-2.5693,-2.5693,-2.5693,-2.5693,-2.5693,-2.5693,0.0,0.0,0.0,0.0,0.0,0.0,0.0,0.0,0.0,0.0,0.0,0.0,0.0,0.0,0.0,0.0,0.0,0.0,0.0,0.0,0.0,0.0,0.0,0.0,0.0,0.0,0.0,0.0,0.0,0.0,0.0,0.0,-2.9503,-2.8787,-2.9252,-2.9503,-2.9503,-2.9503,-2.9503,-2.9503,-2.9591,-2.9691,-2.9792,-2.9792,-2.9792,-2.9792,-2.9792,-2.9792,-2.9792,-2.9792,-2.9792,-2.9792,-2.9792,-2.9792,-2.9792,-2.9792,-2.9792,-2.9792,-2.9792,-2.9792,-2.9753,-2.947,-2.9419,-2.938,-2.9197,-2.9197,-2.9314,-2.9353,-2.9573,-2.9792,-2.9792,-2.9792,-2.9792,-2.9792,-3.047,-3.111,-3.111,-3.1851,-3.2616,-3.3048,-3.2649,-3.2169,-3.1749,-3.1705,-3.1705,-3.1705,-3.1705,-3.1705,-3.1705,-3.1705,-3.1705,-3.1705,-3.1705,-3.0362,-2.704,-2.611,-2.5693,-2.5693,-2.5693,-2.5693,-2.5693,-2.5693,-2.5693,-2.5693,-2.5693,-2.5693,-2.5693,-2.5693,-2.5693,-2.5693,-2.5693,-2.5693,0.0,0.0,0.0,0.0,0.0,0.0,0.0,0.0,0.0,0.0,0.0,0.0,0.0,0.0,0.0,0.0,0.0,0.0,0.0,0.0,0.0,0.0,0.0,0.0,0.0,0.0,0.0,0.0,0.0,0.0,0.0,-2.9302,-2.8898,-2.821,-2.8285,-2.8335,-2.8335,-2.8335,-2.8335,-2.8335,-2.8812,-2.9302,-2.9792,-2.9792,-2.9792,-2.9792,-2.9792,-2.9792,-2.9792,-2.9792,-2.9792,-2.9792,-2.9792,-2.9792,-2.9792,-2.9792,-2.9792,-2.9792,-2.9792,-2.9792,-2.9753,-2.947,-2.9419,-2.938,-2.9314,-2.9275,-2.9353,-2.9663,-2.9753,-2.9792,-2.9792,-2.9792,-2.9792,-2.9792,-2.9905,-3.0005,-3.0005,-3.0118,-3.0796,-3.2747,-3.2376,-3.1749,-3.1705,-3.1705,-3.1705,-3.1705,-3.1705,-3.1705,-3.1705,-3.1705,-3.1705,-3.1705,-3.1705,-3.1472,-3.0925,-2.7683,-2.5693,-2.5693,-2.5693,-2.5693,-2.5693,-2.5693,-2.5693,-2.5693,-2.5693,-2.5693,-2.5693,-2.5693,-2.5693,-2.5693,-2.5693,-2.5693,0.0,0.0,0.0,0.0,0.0,0.0,0.0,0.0,0.0,0.0,0.0,0.0,0.0,0.0,0.0,0.0,0.0,0.0,0.0,0.0,0.0,0.0,0.0,0.0,0.0,0.0,0.0,0.0,0.0,0.0,-2.8853,-2.9087,-2.8747,-2.7681,-2.7946,-2.8109,-2.8109,-2.8109,-2.8109,-2.8109,-2.8624,-2.9026,-2.9315,-2.9641,-2.9792,-2.9792,-2.9792,-2.9792,-2.9792,-2.9792,-2.9792,-2.9792,-2.9792,-2.9792,-2.9792,-2.9792,-2.9792,-2.9792,-2.9792,-2.9792,-2.9792,-2.965,-2.9611,-2.9611,-2.9573,-2.9573,-2.9611,-2.9753,-2.9792,-2.9792,-2.9792,-2.9792,-2.9792,-2.9792,-2.9792,-2.9792,-2.9792,-2.9792,-3.0444,-3.2696,-3.2766,-3.2494,-3.2494,-3.2494,-3.2494,-3.2494,-3.2025,-3.1705,-3.1705,-3.1705,-3.1705,-3.1705,-3.1705,-3.1705,-3.1705,-2.8002,-2.5693,-2.5693,-2.5693,-2.5693,-2.5693,-2.5693,-2.5693,-2.5693,-2.5693,-2.5693,-2.5693,-2.5693,-2.5693,-2.5693,-2.5693,-2.5693,0.0,0.0,0.0,0.0,0.0,0.0,0.0,0.0,0.0,0.0,0.0,0.0,0.0,0.0,0.0,0.0,0.0,0.0,0.0,0.0,0.0,0.0,0.0,0.0,0.0,0.0,0.0,0.0,0.0,0.0,-2.8492,-2.8729,-2.8369,-2.737,-2.7576,-2.7682,-2.7682,-2.7682,-2.7758,-2.7896,-2.831,-2.8549,-2.87,-2.9315,-2.9578,-2.9578,-2.9729,-2.9792,-2.9792,-2.9792,-2.9792,-2.9792,-2.9792,-2.9792,-2.9792,-2.9792,-2.9792,-2.9792,-2.9792,-2.9792,-2.9792,-2.9792,-2.9792,-2.9792,-2.9792,-2.9792,-2.9792,-2.9792,-2.9792,-2.9792,-2.9792,-2.9792,-2.9792,-2.9792,-2.9792,-2.9792,-2.9792,-3.0231,-3.111,-3.2797,-3.3124,-3.3124,-3.3124,-3.3124,-3.3124,-3.3124,-3.2506,-3.2057,-3.2057,-3.2057,-3.2057,-3.2057,-3.1837,-3.1294,-3.0272,-2.74,-2.5693,-2.5693,-2.5693,-2.5693,-2.5693,-2.5693,-2.5693,-2.5693,-2.5693,-2.5693,-2.5693,-2.5693,-2.5693,-2.5693,-2.5693,-2.5693,0.0,0.0,0.0,0.0,0.0,0.0,0.0,0.0,0.0,0.0,0.0,0.0,0.0,0.0,0.0,0.0,0.0,0.0,0.0,0.0,0.0,0.0,0.0,0.0,0.0,0.0,0.0,0.0,0.0,0.0,-2.846,-2.7927,-2.7556,-2.749,-2.6914,-2.6575,-2.6575,-2.6575,-2.6839,-2.7318,-2.7356,-2.7645,-2.816,-2.8687,-2.8938,-2.8963,-2.9553,-2.9792,-2.9792,-2.9792,-2.9792,-2.9792,-2.9792,-2.9792,-2.9792,-2.9792,-2.9792,-2.9792,-2.9792,-2.9792,-2.9792,-2.9792,-2.9792,-2.9792,-2.9792,-2.9792,-2.9792,-2.9792,-2.9792,-2.9792,-2.9792,-2.9792,-2.9792,-2.9792,-2.9792,-2.9792,-2.9792,-3.1436,-3.2943,-3.3099,-3.3124,-3.3124,-3.3124,-3.3124,-3.3124,-3.3124,-3.3081,-3.3038,-3.3038,-3.3038,-3.3038,-3.3038,-3.2232,-3.0136,-2.6342,-2.583,-2.5693,-2.5693,-2.5693,-2.5693,-2.5693,-2.5693,-2.5693,-2.5693,-2.5693,-2.5693,-2.5693,-2.5693,-2.5693,-2.5693,-2.5693,-2.5693,0.0,0.0,0.0,0.0,0.0,0.0,0.0,0.0,0.0,0.0,0.0,0.0,0.0,0.0,0.0,0.0,0.0,0.0,0.0,0.0,0.0,0.0,0.0,0.0,0.0,0.0,0.0,0.0,0.0,0.0,-2.7855,-2.8051,-2.7769,-2.6871,-2.6624,-2.6499,-2.6499,-2.6499,-2.66,-2.6788,-2.7153,-2.7394,-2.7595,-2.8147,-2.8398,-2.8436,-2.9001,-2.9453,-2.9792,-2.9792,-2.9792,-2.9792,-2.9792,-2.9792,-2.9792,-2.9792,-2.9792,-2.9792,-2.9792,-2.9792,-2.9792,-2.9792,-2.9792,-2.9792,-2.9792,-2.9792,-2.9792,-2.9792,-2.9792,-2.9792,-2.9792,-2.9792,-2.9792,-2.9792,-2.9792,-2.9792,-2.9792,-3.1524,-3.3124,-3.3124,-3.3124,-3.3124,-3.3124,-3.3124,-3.3124,-3.3124,-3.3124,-3.3124,-3.3124,-3.3124,-3.3124,-3.3124,-3.281,-3.1769,-2.9715,-3.0102,-3.0463,-3.0463,-2.7484,-2.5693,-2.5693,-2.5693,-2.5693,-2.5693,-2.7247,-2.7295,-2.5693,-2.5693,-2.5693,-2.5693,-2.5693,-2.5693,0.0,0.0,0.0,0.0,0.0,0.0,0.0,0.0,0.0,0.0,0.0,0.0,0.0,0.0,0.0,0.0,0.0,0.0,0.0,0.0,0.0,0.0,0.0,0.0,0.0,0.0,0.0,0.0,0.0,0.0,-2.6942,-2.7294,-2.7209,-2.6521,-2.6499,-2.6499,-2.6499,-2.6499,-2.6499,-2.6499,-2.6864,-2.704,-2.7065,-2.7582,-2.7821,-2.7871,-2.8574,-2.9151,-2.9515,-2.9716,-2.9792,-2.9792,-2.9792,-2.9792,-2.9792,-2.9792,-2.9792,-2.9792,-2.9792,-2.9792,-2.9792,-2.9792,-2.9792,-2.9792,-2.9792,-2.9792,-2.9792,-2.9792,-2.9792,-2.9792,-2.9792,-2.9792,-2.9792,-2.9792,-2.9792,-2.9792,-2.9792,-3.1524,-3.3124,-3.3124,-3.3124,-3.3124,-3.3124,-3.3124,-3.3124,-3.3124,-3.3124,-3.3124,-3.3124,-3.3124,-3.3124,-3.3124,-3.3124,-3.2853,-3.2232,-3.2723,-3.3124,-3.3124,-3.0,-2.8168,-2.8168,-2.8168,-2.8168,-2.8168,-2.9818,-2.9818,-2.8168,-2.6935,-2.611,-2.5693,-2.5693,-2.5693,0.0,0.0,0.0,0.0,0.0,0.0,0.0,0.0,0.0,0.0,0.0,0.0,0.0,0.0,0.0,0.0,0.0,0.0,0.0,0.0,0.0,0.0,0.0,0.0,0.0,0.0,0.0,0.0,0.0,-2.5116,-2.5772,-2.5664,-2.5824,-2.6424,-2.6461,-2.6461,-2.6461,-2.6487,-2.6499,-2.6499,-2.6499,-2.6499,-2.6512,-2.7052,-2.7291,-2.7354,-2.8411,-2.885,-2.8913,-2.9553,-2.9792,-2.9792,-2.9792,-2.9792,-2.9792,-2.9792,-2.9792,-2.9792,-2.9792,-2.9792,-2.9792,-2.9792,-2.9792,-2.9792,-2.9792,-2.9792,-2.9792,-2.9792,-2.9792,-2.9792,-2.9792,-2.9792,-2.9792,-2.9792,-2.9792,-2.9792,-2.9792,-3.1474,-3.3006,-3.3111,-3.3124,-3.3124,-3.3124,-3.3124,-3.3124,-3.3124,-3.3124,-3.3124,-3.3124,-3.3124,-3.3124,-3.3124,-3.3124,-3.3124,-3.3124,-3.3124,-3.3124,-3.3124,-3.3124,-3.3124,-3.3124,-3.3124,-3.3124,-3.3124,-3.3124,-3.3124,-3.3081,-2.9418,-2.6982,-2.5781,-2.5732,-2.5693,-1.0516,0.0,0.0,0.0,0.0,0.0,0.0,0.0,0.0,0.0,0.0,0.0,0.0,0.0,0.0,0.0,0.0,0.0,0.0,0.0,0.0,0.0,0.0,0.0,0.0,0.0,0.0,0.0,-2.5834,-2.5566,-2.5709,-2.5288,-2.5109,-2.5272,-2.5636,-2.5837,-2.5837,-2.6285,-2.6499,-2.6499,-2.6499,-2.6499,-2.6499,-2.665,-2.6725,-2.6763,-2.7431,-2.7959,-2.8411,-2.939,-2.9792,-2.9792,-2.9792,-2.9792,-2.9792,-2.9792,-2.9792,-2.9792,-2.9792,-2.9792,-2.9792,-2.9792,-2.9792,-2.9792,-2.9792,-2.9792,-2.9792,-2.9792,-2.9792,-2.9792,-2.9792,-2.9792,-2.9792,-2.9792,-2.9792,-2.9792,-2.9792,-3.0269,-3.1173,-3.281,-3.3124,-3.3124,-3.3124,-3.3124,-3.3124,-3.3124,-3.3124,-3.3124,-3.3124,-3.3124,-3.3124,-3.3124,-3.3124,-3.3124,-3.3124,-3.3124,-3.3124,-3.3124,-3.3124,-3.3124,-3.3124,-3.3124,-3.3124,-3.3124,-3.3124,-3.3124,-3.3081,-2.9533,-2.7699,-2.7474,-2.6284,-2.5693,-1.141,-1.2228,0.0,0.0,0.0,0.0,0.0,0.0,0.0,0.0,0.0,0.0,0.0,0.0,0.0,0.0,0.0,0.0,0.0,0.0,0.0,0.0,0.0,0.0,0.0,0.0,0.0,0.0,-2.5265,-2.5049,-2.4998,-2.4659,-2.4582,-2.4775,-2.5109,-2.5272,-2.5272,-2.5858,-2.6135,-2.6135,-2.6386,-2.6499,-2.6499,-2.6499,-2.6499,-2.6524,-2.7077,-2.7595,-2.8172,-2.9063,-2.9578,-2.9792,-2.9792,-2.9792,-2.9792,-2.9792,-2.9792,-2.9792,-2.9792,-2.9792,-2.9792,-2.9792,-2.9792,-2.9792,-2.9792,-2.9792,-2.9792,-2.9792,-2.9792,-2.9792,-2.9792,-2.9792,-2.9792,-2.9792,-2.9792,-2.9792,-2.9792,-2.9792,-3.0168,-3.1461,-3.2495,-3.3124,-3.3124,-3.3124,-3.3124,-3.3124,-3.3124,-3.3124,-3.3124,-3.3124,-3.3124,-3.3124,-3.3124,-3.3124,-3.3124,-3.3124,-3.3124,-3.3124,-3.3124,-3.3124,-3.3124,-3.3124,-3.3124,-3.3124,-3.3124,-3.3124,-3.3124,-3.1045,-2.9074,-2.7152,-2.6149,-2.5693,-1.2923,-1.3463,0.0,0.0,0.0,0.0,-1.5128,-1.5467,0.0,0.0,0.0,0.0,0.0,0.0,0.0,0.0,0.0,0.0,0.0,0.0,0.0,0.0,0.0,0.0,0.0,0.0,-2.5162,-2.435,-2.4234,-2.4118,-2.391,-2.3904,-2.413,-2.4587,-2.4662,-2.47,-2.47,-2.5247,-2.5536,-2.5598,-2.6147,-2.6436,-2.6499,-2.6499,-2.6499,-2.6524,-2.7014,-2.7507,-2.8059,-2.8574,-2.9214,-2.9792,-2.9792,-2.9792,-2.9792,-2.9792,-2.9792,-2.9792,-2.9792,-2.9792,-2.9792,-2.9792,-2.9792,-2.9792,-2.9792,-2.9792,-2.9792,-2.9792,-2.9792,-2.9792,-2.9792,-2.9792,-2.9792,-2.9792,-2.9792,-2.9792,-2.9792,-2.9792,-2.9792,-2.9792,-3.1373,-3.2792,-3.3074,-3.3124,-3.3124,-3.3124,-3.3124,-3.3124,-3.3124,-3.3124,-3.3124,-3.3124,-3.3124,-3.3124,-3.3124,-3.3124,-3.3124,-3.3124,-3.3124,-3.3124,-3.3124,-3.3124,-3.3124,-3.3124,-3.3124,-3.3124,-3.3124,-3.3124,-3.0598,-2.5878,-2.5878,-2.5878,-1.4295,-1.4884,-1.5718,-1.4412,0.0,0.0,0.0,-1.4048,0.0,0.0,0.0,0.0,0.0,0.0,0.0,0.0,0.0,0.0,0.0,0.0,0.0,0.0,0.0,0.0,0.0,0.0,-2.3693,-2.5425,-2.5105,-2.4361,-2.3319,-2.3283,-2.3321,-2.3434,-2.3916,-2.4167,-2.4167,-2.4707,-2.5184,-2.5598,-2.5711,-2.6047,-2.6499,-2.6499,-2.6499,-2.6499,-2.6612,-2.6964,-2.7494,-2.8034,-2.8875,-2.9792,-2.9792,-2.9792,-2.9792,-2.9792,-2.9792,-2.9792,-2.9792,-2.9792,-2.9792,-2.9792,-2.9792,-2.9792,-2.9792,-2.9792,-2.9792,-2.9792,-2.9792,-2.9792,-2.9792,-2.9792,-2.9792,-2.9792,-2.9792,-2.9792,-2.9792,-2.9792,-2.9792,-2.9792,-3.0143,-3.0997,-3.2767,-3.3124,-3.3124,-3.3124,-3.3124,-3.3124,-3.3124,-3.3124,-3.3124,-3.3124,-3.3124,-3.3124,-3.3124,-3.3124,-3.3124,-3.3124,-3.3124,-3.3124,-3.3124,-3.3124,-3.3124,-3.3124,-3.3124,-3.3124,-3.3124,-3.3124,-3.0979,-2.6976,-2.6976,-2.6976,0.0,-1.568,-1.63,-1.5512,0.0,0.0,0.0,0.0,0.0,0.0,0.0,0.0,0.0,0.0,0.0,0.0,0.0,0.0,0.0,0.0,0.0,0.0,0.0,0.0,0.0,0.0,-2.3187,-2.4082,-2.4077,-2.3657,-2.2753,-2.2957,-2.3108,-2.3108,-2.3384,-2.3534,-2.3534,-2.413,-2.4544,-2.4808,-2.5335,-2.5749,-2.6072,-2.6361,-2.6499,-2.6499,-2.6499,-2.6801,-2.7306,-2.7582,-2.8348,-2.939,-2.9679,-2.9792,-2.9792,-2.9792,-2.9792,-2.9792,-2.9792,-2.9792,-2.9792,-2.9792,-2.9792,-2.9792,-2.9792,-2.9792,-2.9792,-2.9792,-2.9792,-2.9792,-2.9792,-2.9792,-2.9792,-2.9792,-2.9792,-2.9792,-2.9792,-2.9792,-2.9792,-2.9792,-2.9792,-3.0495,-3.2747,-3.3124,-3.3124,-3.3124,-3.3124,-3.3124,-3.3124,-3.3124,-3.3124,-3.3124,-3.3124,-3.3124,-3.3124,-3.3124,-3.3124,-3.3124,-3.3124,-3.3124,-3.3124,-3.3124,-3.3124,-3.3124,-3.3124,-3.3124,-3.3124,-3.3124,-3.1125,-2.7309,-2.7309,-2.7309,0.0,0.0,0.0,0.0,0.0,-1.6346,0.0,0.0,0.0,-1.6769,0.0,0.0,0.0,0.0,0.0,0.0,0.0,0.0,0.0,0.0,0.0,0.0,0.0,0.0,0.0,0.0,-2.2643,-2.2255,-2.2488,-2.2523,-2.2326,-2.2706,-2.2995,-2.3108,-2.3108,-2.3108,-2.3108,-2.3572,-2.3891,-2.4004,-2.4983,-2.5498,-2.5611,-2.6223,-2.6499,-2.6499,-2.6499,-2.6751,-2.7165,-2.7278,-2.7808,-2.8674,-2.9365,-2.9691,-2.9792,-2.9792,-2.9792,-2.9792,-2.9792,-2.9792,-2.9792,-2.9792,-2.9792,-2.9792,-2.9792,-2.9792,-2.9792,-2.9792,-2.9792,-2.9792,-2.9792,-2.9792,-2.9792,-2.9792,-2.9792,-2.9792,-2.9792,-2.9792,-2.9792,-2.9792,-2.9792,-3.0357,-3.2139,-3.2847,-3.3124,-3.3124,-3.3124,-3.3124,-3.3124,-3.3124,-3.3124,-3.3124,-3.3124,-3.3124,-3.3124,-3.3124,-3.3124,-3.3124,-3.3124,-3.3124,-3.3124,-3.3124,-3.3124,-3.3124,-3.3124,-3.3124,-3.3124,-3.3124,-3.1125,-2.7309,-2.7309,-2.7309,0.0,0.0,0.0,0.0,-1.7978,0.0,0.0,0.0,-1.6183,-1.5349,0.0,0.0,0.0,0.0,0.0,0.0,0.0,0.0,0.0,0.0,0.0,0.0,0.0,0.0,0.0,0.0,0.0,-2.1572,-2.1211,-2.1367,-2.2263,-2.2372,-2.2606,-2.3083,-2.3108,-2.3108,-2.3108,-2.317,-2.3459,-2.4004,-2.4619,-2.5146,-2.5611,-2.6223,-2.6499,-2.6499,-2.6499,-2.6524,-2.6625,-2.7115,-2.7356,-2.757,-2.8612,-2.934,-2.9792,-2.9792,-2.9792,-2.9792,-2.9792,-2.9792,-2.9792,-2.9792,-2.9792,-2.9792,-2.9792,-2.9792,-2.9792,-2.9792,-2.9792,-2.9792,-2.9792,-2.9792,-2.9792,-2.9792,-2.9792,-2.9792,-2.9792,-2.9792,-2.9792,-2.9792,-2.9792,-2.9867,-3.0118,-3.1788,-3.3124,-3.3124,-3.3124,-3.3124,-3.3124,-3.3124,-3.3124,-3.3124,-3.3124,-3.3124,-3.3124,-3.3124,-3.3124,-3.3124,-3.3124,-3.3124,-3.3124,-3.3124,-3.3124,-3.3124,-3.3124,-3.3124,-3.3124,-3.3124,-3.1125,-2.7309,-2.7309,-2.7309,0.0,0.0,0.0,0.0,0.0,0.0,0.0,0.0,-1.6463,0.0,0.0,0.0,0.0,0.0,0.0,0.0,0.0,0.0,0.0,0.0,0.0,0.0,0.0,0.0,0.0,0.0,0.0,0.0,0.0,-2.0695,-2.1232,-2.1923,-2.2393,-2.2619,-2.2945,-2.3108,-2.3108,-2.3108,-2.3233,-2.3471,-2.4067,-2.4632,-2.5159,-2.5711,-2.6172,-2.6499,-2.6499,-2.6499,-2.6512,-2.6738,-2.7027,-2.7331,-2.7795,-2.8511,-2.934,-2.9666,-2.9792,-2.9792,-2.9792,-2.9792,-2.9792,-2.9792,-2.9792,-2.9792,-2.9792,-2.9792,-2.9792,-2.9792,-2.9792,-2.9792,-2.9792,-2.9792,-2.9792,-2.9792,-2.9792,-2.9792,-2.9792,-2.9792,-2.9792,-2.9792,-2.9792,-2.9792,-2.9792,-3.0557,-3.1599,-3.2923,-3.3124,-3.3124,-3.3124,-3.3124,-3.3124,-3.3124,-3.3124,-3.3124,-3.3124,-3.3124,-3.3124,-3.3124,-3.3124,-3.3124,-3.3124,-3.3124,-3.3124,-3.3124,-3.3124,-3.3124,-3.3124,-3.3124,-3.2251,-3.0621,-2.8351,-2.7309,-1.9122,0.0,0.0,0.0,0.0,0.0,0.0,0.0,0.0,0.0,0.0,0.0,0.0,0.0,0.0,0.0,0.0,0.0,0.0,0.0,0.0,0.0,0.0,0.0,0.0,0.0,0.0,0.0,0.0,0.0,-2.0269,-2.1308,-2.1995,-2.2297,-2.2819,-2.3108,-2.3108,-2.3108,-2.3108,-2.3108,-2.3715,-2.4293,-2.4813,-2.536,-2.5912,-2.6499,-2.6499,-2.6499,-2.6499,-2.6499,-2.6738,-2.7102,-2.7218,-2.7871,-2.8737,-2.9352,-2.9654,-2.9792,-2.9792,-2.9792,-2.9792,-2.9792,-2.9792,-2.9792,-2.9792,-2.9792,-2.9792,-2.9792,-2.9792,-2.9792,-2.9792,-2.9792,-2.9792,-2.9792,-2.9792,-2.9792,-2.9792,-2.9792,-2.9792,-2.9792,-2.9792,-2.9792,-2.9792,-2.9792,-3.0545,-3.2797,-3.3124,-3.3124,-3.3124,-3.3124,-3.3124,-3.3124,-3.3124,-3.3124,-3.3124,-3.3124,-3.3124,-3.3124,-3.3124,-3.3124,-3.3124,-3.3124,-3.3124,-3.3124,-3.3124,-3.3124,-3.3124,-3.3124,-3.3124,-3.3025,-3.0215,-2.8585,0.0,0.0,0.0,-1.8575,0.0,0.0,0.0,0.0,-1.72,0.0,0.0,0.0,0.0,0.0,-1.5492,-1.4984,0.0,0.0,0.0,0.0,0.0,0.0,0.0,0.0,0.0,0.0,0.0,0.0,0.0,0.0,-1.9686,-2.0415,-2.1232,-2.2284,-2.2819,-2.3108,-2.3108,-2.3108,-2.3108,-2.3108,-2.3715,-2.4293,-2.4813,-2.536,-2.5912,-2.6499,-2.6499,-2.6499,-2.6499,-2.6499,-2.6499,-2.6575,-2.7115,-2.7632,-2.8197,-2.8712,-2.9315,-2.9792,-2.9792,-2.9792,-2.9792,-2.9792,-2.9792,-2.9792,-2.9792,-2.9792,-2.9792,-2.9792,-2.9792,-2.9792,-2.9792,-2.9792,-2.9792,-2.9792,-2.9792,-2.9792,-2.9792,-2.9792,-2.9792,-2.9792,-2.9792,-2.9792,-2.9792,-2.9792,-3.0545,-3.2797,-3.3124,-3.3124,-3.3124,-3.3124,-3.3124,-3.3124,-3.3124,-3.3124,-3.3124,-3.3124,-3.3124,-3.3124,-3.3124,-3.3124,-3.3124,-3.3124,-3.3124,-3.3124,-3.3124,-3.3124,-3.3124,-3.3124,-3.3124,-3.3124,-3.2982,-3.1889,0.0,0.0,-2.1278,-1.9669,0.0,0.0,0.0,0.0,0.0,0.0,0.0,0.0,0.0,0.0,-1.563,-1.5462,-1.4821,0.0,0.0,0.0,0.0,0.0,0.0,0.0,0.0,0.0,0.0,0.0,0.0,0.0,0.0,-1.9573,-2.0439,-2.1232,-2.2121,-2.2732,-2.3108,-2.3108,-2.3108,-2.3108,-2.3308,-2.3885,-2.48,-2.5008,-2.5586,-2.6499,-2.6499,-2.6499,-2.6499,-2.6499,-2.6499,-2.6512,-2.67,-2.7341,-2.8172,-2.8687,-2.9289,-2.9792,-2.9792,-2.9792,-2.9792,-2.9792,-2.9792,-2.9792,-2.9792,-2.9792,-2.9792,-2.9792,-2.9792,-2.9792,-2.9792,-2.9792,-2.9792,-2.9792,-2.9792,-2.9792,-2.9792,-2.9792,-2.9792,-2.9792,-2.9792,-2.9792,-2.9792,-2.9792,-3.0545,-3.2797,-3.3124,-3.3124,-3.3124,-3.3124,-3.3124,-3.3124,-3.3124,-3.3124,-3.3124,-3.3124,-3.3124,-3.3124,-3.3124,-3.3124,-3.3124,-3.3124,-3.3124,-3.3124,-3.3124,-3.3124,-3.3124,-3.3124,-3.3124,-3.3124,-3.3124,-3.2754,-2.1946,-2.2072,0.0,-2.0472,-2.0065,0.0,-1.8009,0.0,0.0,0.0,0.0,0.0,0.0,0.0,-1.5981,-1.5982,-1.5082,-1.3997,0.0,0.0,0.0,0.0,0.0,0.0,0.0,0.0,-1.5879,-1.6923,0.0,0.0,0.0,0.0,-1.9874,-2.0666,-2.1732,-2.2543,-2.3095,-2.3108,-2.3108,-2.3108,-2.3108,-2.3597,-2.4531,-2.47,-2.531,-2.6197,-2.6411,-2.6499,-2.6499,-2.6499,-2.6499,-2.6499,-2.6499,-2.7165,-2.8147,-2.8511,-2.9126,-2.9792,-2.9792,-2.9792,-2.9792,-2.9792,-2.9792,-2.9792,-2.9792,-2.9792,-2.9792,-2.9792,-2.9792,-2.9792,-2.9792,-2.9792,-2.9792,-2.9792,-2.9792,-2.9792,-2.9792,-2.9792,-2.9792,-2.9792,-2.9792,-2.9792,-2.9792,-2.9792,-3.0545,-3.2797,-3.3124,-3.3124,-3.3124,-3.3124,-3.3124,-3.3124,-3.3124,-3.3124,-3.3124,-3.3124,-3.3124,-3.3124,-3.3124,-3.3124,-3.3124,-3.3124,-3.3124,-3.3124,-3.3124,-3.3124,-3.3124,-3.3124,-3.3124,-3.3124,-3.3124,-3.3124]},{"header":{"parameterUnit":"m.s-1","parameterCategory":1,"la1":30.6,"la2":29.2853,"lo1":-89.7004,"lo2":-87.6739,"dy":0.0162,"dx":0.0183,"nx":112,"ny":82,"refTime":"2024-07-09T06:00:00:Z","depth":0,"parameterNumber":3,"parameterNumberName":"V-component_of_WINDS"},"data":[0.0,0.0,0.0,0.0,0.0,0.0,0.0,0.0,0.0,0.0,0.0,0.0,0.0,0.0,0.0,0.0,0.0,0.0,0.0,0.0,0.0,0.0,0.0,0.0,0.0,0.0,0.0,0.0,0.0,0.0,0.0,0.0,0.0,0.0,0.0,0.0,0.0,0.0,0.0,0.0,0.0,0.0,0.0,0.0,0.0,0.0,0.0,0.0,0.0,0.0,0.0,0.0,0.0,0.0,0.0,0.0,0.0,0.0,0.0,0.0,0.0,0.0,0.0,0.0,0.0,0.0,0.0,0.0,0.0,0.0,0.0,0.0,0.0,0.0,0.0,0.0,0.0,0.0,0.0,0.0,0.0,0.0,0.0,0.0,0.0,0.0,0.0,0.0,0.0,0.0,0.0,-2.6605,-3.0195,-3.1825,-3.0508,-3.1044,-2.9312,-2.4314,0.0,0.0,0.0,0.0,0.0,0.0,0.0,0.0,0.0,0.0,0.0,0.0,0.0,0.0,0.0,0.0,0.0,0.0,0.0,0.0,0.0,0.0,0.0,0.0,0.0,0.0,0.0,0.0,0.0,0.0,0.0,0.0,0.0,0.0,0.0,0.0,0.0,0.0,0.0,0.0,0.0,0.0,0.0,0.0,0.0,0.0,0.0,0.0,0.0,0.0,0.0,0.0,0.0,0.0,0.0,0.0,0.0,0.0,0.0,0.0,0.0,0.0,0.0,0.0,0.0,0.0,0.0,0.0,0.0,0.0,0.0,0.0,0.0,0.0,0.0,0.0,0.0,0.0,0.0,0.0,0.0,0.0,0.0,0.0,0.0,0.0,0.0,0.0,0.0,0.0,0.0,0.0,0.0,0.0,0.0,0.0,0.0,0.0,0.0,0.0,0.0,0.0,0.0,0.0,-2.3082,-2.8842,-3.1308,-3.245,-3.2237,-3.1007,-2.9105,-2.6383,0.0,0.0,0.0,0.0,0.0,0.0,0.0,0.0,0.0,0.0,0.0,0.0,0.0,0.0,0.0,0.0,0.0,0.0,0.0,0.0,0.0,0.0,0.0,0.0,0.0,0.0,0.0,0.0,0.0,0.0,0.0,0.0,0.0,0.0,0.0,0.0,0.0,0.0,0.0,0.0,0.0,0.0,0.0,0.0,0.0,0.0,0.0,0.0,0.0,0.0,0.0,0.0,0.0,0.0,0.0,0.0,0.0,0.0,0.0,0.0,0.0,0.0,0.0,0.0,0.0,0.0,0.0,0.0,0.0,0.0,0.0,0.0,0.0,0.0,0.0,0.0,0.0,0.0,0.0,0.0,0.0,0.0,0.0,0.0,0.0,0.0,0.0,0.0,0.0,0.0,0.0,0.0,0.0,0.0,0.0,0.0,0.0,0.0,0.0,0.0,0.0,0.0,0.0,-2.2981,-2.5588,-2.9579,-3.1651,-3.2621,-3.23,-3.0978,-2.8994,-2.6286,-2.3236,0.0,0.0,0.0,0.0,0.0,0.0,0.0,0.0,0.0,0.0,0.0,0.0,0.0,0.0,0.0,0.0,0.0,0.0,0.0,0.0,0.0,0.0,0.0,0.0,0.0,0.0,0.0,0.0,0.0,0.0,0.0,0.0,0.0,0.0,0.0,0.0,0.0,0.0,0.0,0.0,0.0,0.0,0.0,0.0,0.0,0.0,0.0,0.0,0.0,0.0,0.0,0.0,0.0,0.0,0.0,0.0,0.0,0.0,0.0,0.0,0.0,0.0,0.0,0.0,0.0,0.0,0.0,0.0,0.0,0.0,0.0,0.0,0.0,0.0,0.0,0.0,0.0,0.0,0.0,0.0,0.0,0.0,0.0,0.0,0.0,0.0,0.0,0.0,0.0,0.0,0.0,0.0,0.0,0.0,0.0,0.0,0.0,0.0,0.0,0.0,0.0,0.0,-2.591,-2.7908,-2.9871,-3.1653,-3.2521,-3.2056,-3.0531,-2.8423,-2.5707,-2.2242,0.0,0.0,0.0,0.0,0.0,0.0,0.0,0.0,0.0,0.0,0.0,0.0,0.0,0.0,0.0,0.0,0.0,0.0,0.0,0.0,0.0,0.0,0.0,0.0,0.0,0.0,0.0,0.0,0.0,0.0,0.0,0.0,0.0,0.0,0.0,0.0,0.0,0.0,0.0,0.0,0.0,0.0,0.0,0.0,0.0,0.0,0.0,0.0,0.0,0.0,0.0,0.0,0.0,0.0,0.0,0.0,0.0,0.0,0.0,0.0,0.0,0.0,0.0,0.0,0.0,0.0,0.0,0.0,0.0,0.0,0.0,0.0,0.0,0.0,0.0,0.0,0.0,0.0,0.0,0.0,0.0,0.0,0.0,0.0,0.0,0.0,0.0,0.0,0.0,0.0,0.0,0.0,0.0,0.0,0.0,0.0,0.0,0.0,0.0,0.0,0.0,0.0,-2.5504,-2.832,-3.0099,-3.1407,-3.2144,-3.209,-2.9294,-2.6883,-2.5411,-2.1074,0.0,0.0,0.0,0.0,0.0,0.0,0.0,0.0,0.0,0.0,0.0,0.0,0.0,0.0,0.0,0.0,0.0,0.0,0.0,0.0,0.0,0.0,0.0,0.0,0.0,0.0,0.0,0.0,0.0,0.0,0.0,0.0,0.0,0.0,0.0,0.0,0.0,0.0,0.0,0.0,0.0,0.0,0.0,0.0,0.0,0.0,0.0,0.0,0.0,0.0,0.0,0.0,0.0,0.0,0.0,0.0,0.0,0.0,0.0,0.0,0.0,0.0,0.0,0.0,0.0,0.0,0.0,0.0,0.0,0.0,0.0,0.0,0.0,0.0,0.0,0.0,0.0,0.0,0.0,0.0,0.0,0.0,0.0,0.0,0.0,0.0,0.0,0.0,0.0,0.0,0.0,0.0,0.0,0.0,0.0,0.0,0.0,0.0,0.0,0.0,0.0,0.0,-2.5601,-2.7997,0.0,-3.1687,-3.2197,-3.2108,-3.0107,-2.7815,-2.5324,0.0,0.0,0.0,0.0,0.0,0.0,0.0,0.0,0.0,0.0,0.0,0.0,0.0,0.0,0.0,0.0,0.0,0.0,0.0,0.0,0.0,0.0,0.0,0.0,0.0,0.0,0.0,0.0,0.0,0.0,0.0,0.0,0.0,0.0,0.0,0.0,0.0,0.0,0.0,0.0,0.0,0.0,0.0,0.0,0.0,0.0,0.0,0.0,0.0,0.0,0.0,0.0,0.0,0.0,0.0,0.0,0.0,0.0,0.0,0.0,0.0,0.0,0.0,0.0,0.0,0.0,0.0,0.0,0.0,0.0,0.0,0.0,0.0,0.0,0.0,0.0,0.0,0.0,0.0,0.0,0.0,0.0,0.0,0.0,0.0,0.0,0.0,0.0,0.0,0.0,0.0,0.0,0.0,0.0,0.0,0.0,0.0,0.0,0.0,0.0,0.0,0.0,-2.3853,-2.6023,-2.8181,0.0,-3.1725,-3.2109,-3.2001,-2.9917,-2.7625,-2.5253,0.0,0.0,0.0,0.0,0.0,0.0,0.0,0.0,0.0,0.0,0.0,0.0,0.0,0.0,0.0,0.0,0.0,0.0,0.0,0.0,0.0,0.0,0.0,0.0,0.0,0.0,0.0,0.0,0.0,0.0,0.0,0.0,0.0,0.0,0.0,0.0,0.0,0.0,0.0,0.0,0.0,0.0,0.0,0.0,0.0,0.0,0.0,0.0,0.0,0.0,0.0,0.0,0.0,0.0,0.0,0.0,0.0,0.0,0.0,0.0,0.0,0.0,0.0,0.0,0.0,0.0,0.0,0.0,0.0,0.0,0.0,0.0,0.0,0.0,0.0,0.0,0.0,0.0,0.0,0.0,0.0,0.0,0.0,0.0,0.0,0.0,0.0,0.0,0.0,0.0,0.0,0.0,0.0,0.0,0.0,0.0,0.0,0.0,0.0,0.0,0.0,0.0,-2.3982,-2.673,-2.9039,-3.0733,-3.1443,-3.18,-3.18,-2.8316,-2.5828,0.0,0.0,0.0,0.0,0.0,0.0,0.0,0.0,0.0,0.0,0.0,0.0,0.0,0.0,0.0,0.0,0.0,0.0,0.0,0.0,0.0,0.0,0.0,0.0,0.0,0.0,0.0,0.0,0.0,0.0,0.0,0.0,0.0,0.0,0.0,0.0,0.0,0.0,0.0,0.0,0.0,0.0,0.0,0.0,0.0,0.0,0.0,0.0,0.0,0.0,0.0,0.0,0.0,0.0,0.0,0.0,0.0,0.0,0.0,0.0,0.0,0.0,0.0,0.0,0.0,0.0,0.0,0.0,0.0,0.0,0.0,0.0,0.0,0.0,0.0,0.0,0.0,0.0,0.0,0.0,0.0,0.0,0.0,0.0,0.0,0.0,0.0,0.0,0.0,0.0,0.0,0.0,0.0,0.0,0.0,0.0,0.0,0.0,0.0,0.0,0.0,0.0,0.0,-2.4435,-2.6941,-2.9213,-3.1303,-3.1699,-3.18,-3.18,-2.9299,-2.6952,-2.5138,0.0,0.0,0.0,0.0,0.0,0.0,0.0,0.0,0.0,0.0,0.0,0.0,0.0,0.0,0.0,0.0,0.0,0.0,0.0,0.0,0.0,0.0,0.0,0.0,0.0,0.0,0.0,0.0,0.0,0.0,0.0,0.0,0.0,0.0,0.0,0.0,0.0,0.0,0.0,0.0,0.0,0.0,0.0,0.0,0.0,0.0,0.0,0.0,0.0,0.0,0.0,0.0,0.0,0.0,0.0,0.0,0.0,0.0,0.0,0.0,0.0,0.0,0.0,0.0,0.0,0.0,0.0,0.0,0.0,0.0,0.0,0.0,0.0,0.0,0.0,0.0,0.0,0.0,0.0,0.0,0.0,0.0,0.0,0.0,0.0,0.0,0.0,0.0,0.0,0.0,0.0,0.0,0.0,0.0,0.0,0.0,0.0,0.0,0.0,0.0,0.0,0.0,-2.4646,-2.7293,-2.9592,-3.1593,-3.18,-3.18,-3.18,-2.9713,-2.7558,-2.556,0.0,0.0,0.0,0.0,0.0,0.0,0.0,0.0,0.0,0.0,0.0,0.0,0.0,0.0,0.0,0.0,0.0,0.0,0.0,0.0,0.0,0.0,0.0,0.0,0.0,0.0,0.0,0.0,0.0,0.0,0.0,0.0,0.0,0.0,0.0,0.0,0.0,0.0,0.0,0.0,0.0,0.0,0.0,0.0,0.0,0.0,0.0,0.0,0.0,0.0,0.0,0.0,0.0,0.0,0.0,0.0,0.0,0.0,0.0,0.0,0.0,0.0,0.0,0.0,0.0,0.0,0.0,0.0,0.0,0.0,0.0,0.0,0.0,0.0,0.0,0.0,0.0,0.0,0.0,0.0,0.0,0.0,0.0,0.0,0.0,0.0,0.0,0.0,0.0,0.0,0.0,0.0,0.0,0.0,0.0,0.0,0.0,0.0,0.0,0.0,0.0,0.0,-2.4805,-2.7709,-3.0093,-3.1627,-3.18,-3.18,-3.18,-2.9765,-2.7851,-2.6301,0.0,0.0,0.0,0.0,0.0,0.0,0.0,0.0,0.0,0.0,0.0,0.0,0.0,0.0,0.0,0.0,0.0,0.0,0.0,0.0,0.0,0.0,0.0,0.0,0.0,0.0,0.0,0.0,0.0,0.0,0.0,0.0,0.0,0.0,0.0,0.0,0.0,0.0,0.0,0.0,0.0,0.0,0.0,0.0,0.0,0.0,0.0,0.0,0.0,0.0,0.0,0.0,0.0,0.0,0.0,0.0,0.0,0.0,0.0,0.0,-1.9976,0.0,0.0,0.0,0.0,0.0,0.0,0.0,0.0,0.0,0.0,0.0,0.0,0.0,0.0,0.0,0.0,0.0,0.0,0.0,0.0,0.0,0.0,0.0,0.0,0.0,0.0,0.0,0.0,0.0,0.0,0.0,0.0,0.0,0.0,0.0,0.0,0.0,0.0,0.0,0.0,0.0,-2.5431,-2.7989,-3.0093,-3.1627,-3.18,-3.18,-3.18,-3.0248,-2.8627,-2.7144,0.0,0.0,0.0,0.0,0.0,0.0,0.0,0.0,0.0,0.0,0.0,0.0,0.0,0.0,0.0,0.0,0.0,0.0,0.0,0.0,0.0,0.0,0.0,0.0,0.0,0.0,0.0,0.0,0.0,0.0,0.0,0.0,0.0,0.0,0.0,0.0,0.0,0.0,0.0,0.0,0.0,0.0,0.0,0.0,0.0,0.0,0.0,0.0,0.0,0.0,0.0,0.0,0.0,0.0,0.0,0.0,0.0,0.0,0.0,0.0,0.0,-2.1479,0.0,0.0,0.0,0.0,0.0,0.0,0.0,0.0,0.0,0.0,0.0,0.0,0.0,0.0,0.0,0.0,0.0,0.0,0.0,0.0,0.0,0.0,0.0,0.0,0.0,0.0,0.0,0.0,0.0,0.0,0.0,0.0,0.0,0.0,0.0,0.0,0.0,0.0,0.0,0.0,-2.623,-2.8819,-3.0825,-3.2178,-3.2166,-3.201,-3.1834,-3.0588,-2.935,-2.8186,-2.5462,0.0,0.0,0.0,0.0,0.0,0.0,0.0,0.0,0.0,0.0,0.0,0.0,0.0,0.0,0.0,0.0,0.0,0.0,0.0,0.0,0.0,0.0,0.0,0.0,0.0,0.0,0.0,0.0,0.0,0.0,0.0,0.0,0.0,0.0,0.0,0.0,0.0,0.0,0.0,0.0,0.0,0.0,0.0,0.0,0.0,0.0,0.0,0.0,0.0,0.0,0.0,0.0,0.0,0.0,-3.0381,-2.9105,-2.7954,-2.7387,-2.728,-2.6054,-2.4879,-2.3735,0.0,0.0,0.0,0.0,0.0,0.0,0.0,0.0,0.0,0.0,0.0,0.0,0.0,0.0,0.0,0.0,0.0,0.0,0.0,0.0,0.0,0.0,0.0,0.0,0.0,-2.9659,-2.9237,0.0,0.0,0.0,0.0,0.0,0.0,0.0,0.0,0.0,0.0,0.0,0.0,-2.7121,-2.9631,-3.1618,-3.2874,-3.2582,-3.2199,-3.1931,-3.0914,-2.9961,-2.918,-2.7023,-2.4929,0.0,0.0,0.0,0.0,0.0,0.0,0.0,0.0,0.0,0.0,0.0,0.0,0.0,0.0,0.0,0.0,0.0,0.0,0.0,0.0,0.0,0.0,0.0,0.0,0.0,0.0,0.0,0.0,0.0,0.0,0.0,0.0,-1.3242,-1.5316,0.0,0.0,0.0,0.0,0.0,0.0,0.0,0.0,0.0,0.0,0.0,0.0,0.0,0.0,-2.0669,-2.7595,-3.2282,-3.4584,-3.3133,-3.2321,-3.2138,-3.1939,-3.184,-3.1818,-3.1641,0.0,-2.5822,-2.5656,0.0,0.0,0.0,0.0,0.0,0.0,0.0,0.0,0.0,0.0,0.0,0.0,0.0,0.0,0.0,0.0,0.0,0.0,0.0,0.0,0.0,0.0,-3.1637,-3.1391,-3.2188,-3.2584,0.0,-2.8541,-2.6333,-2.5582,0.0,0.0,0.0,0.0,0.0,0.0,0.0,0.0,-2.7999,-2.9856,-3.152,-3.3254,-3.2546,-3.2062,-3.2287,-3.1351,-3.0412,-2.9654,-2.8693,-2.7452,-2.5899,-2.3303,0.0,0.0,0.0,0.0,0.0,0.0,0.0,0.0,0.0,0.0,0.0,0.0,0.0,0.0,0.0,0.0,0.0,0.0,0.0,0.0,0.0,0.0,0.0,0.0,0.0,0.0,0.0,0.0,0.0,-1.3223,-1.5511,-1.7251,-1.7193,-1.7018,0.0,0.0,0.0,0.0,0.0,0.0,0.0,0.0,0.0,-2.575,-2.5618,-2.6702,-2.9135,-3.1702,-3.4452,-3.7376,-3.5876,-3.5164,-3.5148,-3.4303,-3.3938,-3.4021,-3.5317,-3.4823,-3.2831,-2.9836,-2.7876,-2.6385,0.0,0.0,0.0,0.0,0.0,-2.4467,-2.4467,-2.7996,0.0,0.0,0.0,0.0,0.0,0.0,0.0,0.0,0.0,0.0,0.0,0.0,0.0,-3.3888,-3.4554,-3.5065,-3.5038,-3.3411,-3.12,0.0,-2.7537,-2.5985,-2.2958,0.0,0.0,0.0,0.0,0.0,-2.9527,-3.1295,-3.2713,-3.3737,-3.3217,-3.2602,-3.2163,-3.1525,-3.0817,-3.0087,-2.9193,-2.8313,-2.7373,-2.5496,-2.3451,0.0,0.0,0.0,0.0,0.0,0.0,0.0,0.0,0.0,0.0,0.0,0.0,0.0,0.0,0.0,0.0,0.0,0.0,0.0,0.0,0.0,0.0,0.0,0.0,0.0,0.0,0.0,0.0,-1.5545,-1.7428,-1.9059,-1.9572,-1.975,0.0,0.0,0.0,0.0,0.0,0.0,-2.663,-2.7096,-2.8343,-3.0662,-3.0182,-3.177,-3.5753,-3.5803,-3.6915,-3.9067,-3.81,-3.7665,-3.7632,-3.6372,-3.5803,-3.5876,-3.7633,-3.8391,-3.8096,-3.4161,-3.216,-3.13,-2.7904,-2.5906,-2.5035,-2.5791,-2.8596,-3.2019,-3.1663,-3.2927,-3.4667,-3.4667,0.0,-2.9654,-2.974,0.0,0.0,0.0,0.0,-3.1128,-3.1888,-3.3372,-3.4873,-3.5658,-3.6153,-3.6571,-3.7128,-3.6647,-3.514,0.0,-3.0942,-2.9719,-2.6277,0.0,0.0,0.0,0.0,-2.9457,-3.0933,-3.2461,-3.3623,-3.4176,-3.3726,-3.3008,-3.2054,-3.149,-3.086,-3.0044,-2.9345,-2.8746,-2.82,-2.7195,-2.5547,-2.3185,0.0,0.0,0.0,0.0,0.0,0.0,0.0,0.0,0.0,0.0,0.0,0.0,0.0,0.0,0.0,0.0,0.0,0.0,0.0,0.0,0.0,0.0,0.0,0.0,0.0,0.0,0.0,0.0,0.0,-2.101,-2.2492,0.0,0.0,0.0,0.0,-2.5433,-2.5548,-2.6528,-2.8821,-3.0082,-3.1372,-3.2697,-3.3454,-3.5228,-3.8205,-3.8209,-3.8318,-3.8448,-3.8947,-3.9183,-3.9156,-3.852,-3.8209,-3.8225,-3.8343,-3.8391,-3.8375,-3.8112,-3.6695,-3.4603,-3.3868,-3.3542,-3.3802,-3.6556,-3.7755,-3.7776,-3.6448,-3.6076,-3.6189,-3.6189,-3.4522,-3.2546,-3.2789,-3.185,0.0,0.0,-3.2773,-3.4052,-3.4806,-3.5574,-3.6206,-3.6265,-3.6538,-3.6781,-3.6832,-3.7095,-3.6842,0.0,-3.3762,-3.2169,-3.0306,0.0,-2.9185,-2.8607,-2.9429,-3.0571,-3.1774,-3.2643,-3.3518,-3.4576,-3.3738,-3.2853,-3.2236,-3.1246,-3.0224,-2.9215,-2.9348,-2.9147,-2.8404,-2.7715,-2.6839,-2.5742,-2.2965,0.0,0.0,0.0,0.0,0.0,0.0,0.0,0.0,0.0,0.0,0.0,0.0,0.0,0.0,0.0,0.0,0.0,0.0,0.0,0.0,0.0,0.0,0.0,0.0,0.0,0.0,0.0,0.0,-2.3977,-2.5528,0.0,0.0,-2.6651,-2.7443,-2.8441,-2.937,-3.0663,-3.236,-3.3315,-3.4405,-3.5629,-3.5571,-3.6448,-3.8375,-3.8391,-3.8391,-3.8391,-3.8616,-3.8727,-3.8699,-3.8504,-3.8391,-3.8391,-3.8391,-3.8391,-3.8391,-3.8391,-3.7903,-3.7138,-3.6951,-3.6869,-3.6983,-3.8019,-3.8391,-3.8327,-3.7825,-3.7258,-3.6691,-3.64,-3.572,-3.504,-3.5137,-3.4797,-3.4441,-3.47,-3.5445,-3.6222,-3.6481,-3.7096,-3.7647,-3.7647,-3.7741,-3.7763,-3.7538,-3.7791,-3.7676,-3.6478,-3.5783,-3.4715,-3.2481,-3.2318,-3.1906,-3.0164,-3.0953,-3.1839,-3.2099,-3.2784,-3.3387,-3.3755,-3.346,-3.2953,-3.226,-3.1436,-3.0466,-2.9177,-2.8785,-2.8297,-2.7598,-2.7218,-2.6681,-2.5979,-2.4836,-2.3044,0.0,0.0,0.0,0.0,0.0,0.0,0.0,0.0,0.0,0.0,0.0,0.0,0.0,0.0,0.0,0.0,0.0,0.0,0.0,0.0,0.0,0.0,0.0,0.0,0.0,0.0,-2.4529,-2.5966,-2.7822,-2.8995,-2.9016,-2.9794,-3.0709,-3.169,-3.2649,-3.3722,-3.4908,-3.5656,-3.6419,-3.7194,-3.7086,-3.7469,-3.8391,-3.8391,-3.8391,-3.8391,-3.8391,-3.8391,-3.8391,-3.8391,-3.8391,-3.8391,-3.8391,-3.8391,-3.8391,-3.8391,-3.8391,-3.8391,-3.8391,-3.8391,-3.8391,-3.8391,-3.8391,-3.8391,-3.8391,-3.7987,-3.7431,-3.7112,-3.7015,-3.7015,-3.7015,-3.7015,-3.7015,-3.7015,-3.7339,-3.7651,-3.7524,-3.7951,-3.8335,-3.8119,-3.8148,-3.8148,-3.7799,-3.7902,-3.786,-3.7119,-3.6993,-3.6349,-3.4348,-3.4368,-3.4089,-3.2376,-3.2898,-3.345,-3.3282,-3.3488,-3.363,-3.363,-3.3435,-3.2956,-3.2159,-3.1451,-3.0521,-2.928,-2.8637,-2.8014,-2.7343,-2.6977,-2.6608,-2.6268,-2.5849,-2.4677,-2.2746,0.0,0.0,0.0,0.0,0.0,0.0,0.0,0.0,0.0,0.0,0.0,0.0,0.0,0.0,0.0,0.0,0.0,0.0,0.0,0.0,0.0,0.0,0.0,-2.1214,-2.444,-2.6821,-2.6948,-2.9351,-3.1024,-3.1115,-3.2399,-3.3785,-3.5146,-3.526,-3.56,-3.6303,-3.6956,-3.7328,-3.7328,-3.8035,-3.8391,-3.8391,-3.8391,-3.8391,-3.8391,-3.8391,-3.8391,-3.8391,-3.8391,-3.8391,-3.8391,-3.8391,-3.8391,-3.8391,-3.8391,-3.8391,-3.8391,-3.8391,-3.8391,-3.8391,-3.8391,-3.8391,-3.8391,-3.8391,-3.8391,-3.8408,-3.8391,-3.8391,-3.8408,-3.8391,-3.8391,-3.8363,-3.8363,-3.8363,-3.8307,-3.7972,-3.8148,-3.8221,-3.7565,-3.7653,-3.7799,-3.7476,-3.7387,-3.7417,-3.7387,-3.7342,-3.6991,-3.6025,-3.5826,-3.57,-3.5382,-3.531,0.0,-3.5294,-3.4711,-3.4313,-3.4313,-3.3698,-3.2924,-3.1945,-3.1187,-3.0384,-2.9458,-2.8898,-2.8342,-2.7727,-2.7054,-2.675,-2.6857,-2.6012,-2.5416,-2.508,0.0,0.0,0.0,0.0,0.0,0.0,0.0,0.0,0.0,0.0,0.0,0.0,0.0,0.0,0.0,0.0,0.0,0.0,0.0,0.0,0.0,0.0,-2.4399,-2.5069,-2.6924,-2.8811,-3.0366,-3.2125,-3.3437,-3.398,-3.4887,-3.5574,-3.5963,-3.6448,-3.6821,-3.7004,-3.7711,-3.81,-3.81,-3.8294,-3.8391,-3.8391,-3.8391,-3.8391,-3.8391,-3.8391,-3.8391,-3.8391,-3.8391,-3.8391,-3.8391,-3.8391,-3.8391,-3.8391,-3.8391,-3.8391,-3.8391,-3.8391,-3.8391,-3.8391,-3.8391,-3.8391,-3.8391,-3.8391,-3.8234,-3.8075,-3.8335,-3.8234,-3.8075,-3.8335,-3.8234,-3.8046,-3.8046,-3.7857,-3.7653,-3.7565,-3.7594,-3.7623,-3.7447,-3.7476,-3.7447,-3.7165,-3.7254,-3.7328,-3.7165,-3.7261,-3.7274,-3.6996,-3.6568,-3.6121,-3.5804,-3.5308,0.0,-3.4752,-3.4568,-3.4459,-3.4459,-3.3808,-3.3256,-3.2971,-3.1458,-3.0197,-2.9458,-2.7913,-2.7187,-2.7458,-2.698,-2.7116,-2.7938,-2.7726,-2.734,0.0,0.0,0.0,0.0,0.0,0.0,0.0,0.0,0.0,0.0,0.0,0.0,0.0,0.0,0.0,0.0,0.0,0.0,0.0,0.0,0.0,0.0,-2.456,-2.671,-2.8729,-2.9723,-3.0867,-3.2668,-3.3874,-3.4959,-3.5979,-3.6481,-3.6853,-3.7161,-3.7549,-3.7776,-3.7776,-3.8165,-3.8391,-3.8391,-3.8391,-3.8391,-3.8391,-3.8391,-3.8391,-3.8391,-3.8391,-3.8391,-3.8391,-3.8391,-3.8391,0.0,-3.8391,-3.8391,-3.8391,-3.8391,-3.8391,0.0,0.0,0.0,0.0,0.0,-3.8391,-3.8391,-3.8391,-3.8177,-3.7943,-3.8148,-3.796,-3.774,-3.7931,-3.7844,-3.7711,-3.7711,-3.7565,-3.7358,-3.7254,-3.7314,-3.7328,-3.7074,-3.7134,-3.715,-3.6831,-3.6907,-3.6998,-3.68,0.0,0.0,-3.7013,-3.682,-3.654,-3.6195,-3.5824,-3.5516,-3.5352,-3.5106,-3.4936,-3.4936,-3.4275,-3.3737,-3.3429,-3.2074,0.0,0.0,0.0,-2.802,-2.7914,-2.7788,0.0,0.0,0.0,0.0,0.0,0.0,0.0,0.0,-2.942,-2.9903,0.0,0.0,0.0,0.0,0.0,0.0,0.0,0.0,0.0,0.0,0.0,0.0,0.0,0.0,0.0,0.0,-2.6464,-2.8172,-3.1711,-3.2217,-3.2713,-3.4057,-3.4926,-3.593,-3.7166,-3.7376,-3.7711,-3.8359,-3.8391,-3.8391,-3.8391,0.0,0.0,0.0,0.0,-3.8391,-3.8391,-3.8472,-3.8537,-3.8553,-3.844,-3.8456,-3.8553,-3.8553,-3.8537,-3.8521,-3.8602,-3.8586,-3.8521,-3.8521,-3.8444,-3.8335,-3.8408,-3.8391,-3.8408,-3.8363,-3.8335,-3.8335,-3.8307,0.0,0.0,-3.7828,-3.7623,-3.7358,-3.7387,-3.7387,-3.7358,-3.7358,-3.7328,-3.7238,-3.6999,-3.7119,-3.7148,-3.6647,-3.6724,-3.6847,-3.6554,-3.6492,-3.6492,-3.6492,-3.6492,-3.6492,-3.6492,-3.6754,-3.6847,-3.6554,-3.6492,-3.6492,-3.6492,-3.5968,-3.5629,-3.5629,0.0,0.0,-3.369,-3.2936,-3.2213,-3.1563,-3.0889,-2.9986,-2.8845,-2.9304,-2.9666,-2.9834,-3.0714,-3.1875,-3.3339,-3.4554,-3.5322,-3.5609,-3.2134,-3.2281,0.0,0.0,0.0,0.0,0.0,0.0,0.0,0.0,0.0,0.0,0.0,0.0,0.0,0.0,0.0,-2.6884,-2.8252,-2.9793,-3.2057,-3.2355,-3.3013,-3.4788,-3.6125,-3.6988,-3.7263,-3.7841,-3.8246,-3.8391,-3.8391,-3.8391,-3.8391,-3.8391,0.0,-3.8391,-3.8391,-3.8391,-3.8391,-3.8974,-3.9376,-3.9538,0.0,0.0,-3.9538,-3.9538,-3.9457,-3.9327,-3.9849,-3.9784,-3.9295,-3.9295,-3.8795,-3.8001,-3.8307,-3.8391,-3.8363,-3.8103,-3.8001,-3.796,-3.7682,-3.7419,-3.7195,-3.7433,-3.7314,-3.7105,-3.7328,-3.7254,0.0,-3.709,-3.6892,-3.6662,-3.6616,-3.6647,-3.6631,-3.6523,-3.6554,-3.6585,-3.6523,-3.6492,-3.6492,-3.6492,-3.6492,-3.6492,-3.6492,-3.6554,-3.6585,-3.6523,-3.6492,-3.6492,-3.6492,-3.6384,-3.6307,-3.6307,-3.5691,-3.526,-3.5121,-3.3921,-3.2921,-3.2244,-3.1567,-3.0869,-3.0068,-3.1658,-3.2342,-3.1854,-3.2919,-3.393,-3.4879,-3.5619,-3.6895,-3.8647,-3.7305,-3.6797,0.0,0.0,0.0,0.0,0.0,0.0,0.0,0.0,0.0,0.0,0.0,-2.1612,0.0,0.0,-2.6547,-2.8782,-2.9682,-3.0777,-3.2646,-3.3185,-3.3998,-3.555,-3.6382,-3.7086,-3.7797,-3.8181,-3.8391,-3.8391,-3.8391,-3.8391,-3.8391,-3.8391,-3.857,-3.8926,-3.8942,-3.9104,-3.9444,-3.98,-4.0056,-4.0124,-3.9654,-3.9687,-4.014,-4.014,-4.0105,-4.004,-4.0335,-4.0213,-3.9744,-3.9578,-3.9173,-3.8718,-3.89,-3.8512,-3.7902,-3.7886,-3.7799,-3.7623,-3.7476,-3.721,-3.703,-3.7165,-3.6984,-3.677,-3.6907,-3.6846,-3.6754,-3.6754,-3.6616,-3.6492,-3.6492,-3.6492,-3.6492,-3.6492,-3.6492,-3.6492,-3.6492,-3.6492,-3.6492,-3.6492,-3.6492,-3.6492,-3.6492,-3.6492,-3.6492,-3.6492,-3.6492,-3.6492,-3.6492,-3.6492,-3.6492,-3.6492,-3.6184,-3.5845,-3.5537,-3.4566,-3.3798,-3.3488,-3.3149,-3.2782,-3.2459,-3.3693,-3.4235,-3.392,-3.4768,-3.5546,-3.63,-3.691,-3.797,-3.9462,-3.9367,-3.9311,0.0,0.0,0.0,0.0,0.0,0.0,0.0,0.0,-2.0568,-2.2896,-2.3587,-2.4472,-2.6698,-2.736,-2.8258,-3.0438,-3.0888,-3.1521,-3.3207,-3.388,-3.4709,-3.5957,-3.6371,-3.6914,-3.7895,-3.825,-3.8335,-3.8221,-3.8335,-3.8391,-3.8391,-3.8537,-3.8877,-3.9489,-3.9635,-3.993,-4.048,-4.0626,-4.0707,-4.0707,-4.0707,-4.0707,-4.0707,-4.0707,-4.0707,-4.0707,-4.0647,-4.0405,-4.0067,-3.9598,-3.9409,-3.9409,-3.9409,-3.8685,-3.7646,-3.7848,-3.7662,-3.7314,-3.7254,-3.7089,-3.6908,-3.6908,-3.6724,-3.6492,-3.6492,-3.6492,-3.6492,-3.6492,-3.6492,-3.6492,-3.6492,-3.6492,-3.6492,-3.6492,-3.6492,-3.6492,-3.6492,-3.6492,-3.6492,-3.6492,-3.6492,-3.6492,-3.6492,-3.6492,-3.6492,-3.6492,-3.6492,-3.6492,-3.6492,-3.6492,-3.6492,-3.6492,-3.6492,-3.6276,-3.5752,-3.509,-3.4705,-3.4705,-3.4582,-3.4505,-3.4505,-3.5091,-3.5468,-3.5593,-3.6204,-3.688,-3.7682,-3.818,-3.8844,-3.9636,-4.0146,-4.0551,-1.3915,-1.476,-1.5916,-1.7584,-1.8754,-2.0348,0.0,0.0,-2.4024,-2.5428,-2.6381,-2.723,-2.808,-2.9291,-3.0422,-3.1279,-3.1917,-3.2573,-3.3383,-3.3543,-3.4071,-3.5334,-3.6538,-3.7098,-3.6661,-3.7695,-3.8148,-3.7565,-3.8062,-3.8391,-3.8391,-3.9007,-3.9424,-3.9505,-4.0089,-4.0415,-4.0496,-4.1158,-4.1482,-4.1482,-4.1482,-4.1482,-4.1482,-4.1482,-4.1482,-4.1452,-4.116,-4.08,-4.0372,-3.9454,-3.9075,-3.9075,-3.9075,-3.8789,-3.8362,-3.8091,-3.7591,-3.6999,-3.6708,-3.6585,-3.6554,-3.6554,-3.6523,-3.6492,-3.6492,-3.6492,-3.6492,-3.6492,-3.6492,-3.6492,-3.6492,-3.6492,-3.6492,-3.6492,-3.6492,-3.6492,-3.6492,-3.6492,-3.6492,-3.6492,-3.6492,-3.6492,-3.6492,-3.6492,-3.6492,-3.6492,-3.6492,-3.6492,-3.6492,-3.6492,-3.6492,-3.6492,-3.6492,-3.6461,-3.6384,-3.5753,-3.5398,-3.5398,-3.4828,-3.4505,-3.4505,-3.5134,-3.5725,-3.6263,-3.6951,-3.7833,-3.8993,-3.9163,-3.9656,-4.0395,-4.0576,-4.0624,-1.6626,0.0,0.0,0.0,-2.2021,-2.3721,-2.5192,-2.5692,-2.6183,-2.7471,-2.8211,-2.8785,-2.939,-3.0116,-3.0946,0.0,-3.2307,-3.2875,-3.3877,-3.3736,-3.3689,-3.4233,-3.5101,-3.5845,-3.6338,-3.692,-3.7117,-3.6829,-3.7071,-3.7401,-3.7815,-3.8515,-3.9285,-4.0059,-4.0785,-4.1322,-4.1727,-4.2035,-4.2197,-4.2197,-4.2197,-4.2197,-4.2197,-4.1993,-4.1773,-4.1582,-4.1243,-4.0998,-4.0802,-4.0155,-3.988,-3.988,-3.988,-3.9532,-3.9049,-3.8712,-3.8028,-3.7327,-3.7602,-3.7153,-3.6553,-3.6953,-3.6815,-3.6492,-3.6492,-3.6492,-3.6492,-3.6492,-3.6492,-3.6492,-3.6492,-3.6492,-3.6492,-3.6492,-3.6492,-3.6492,-3.6492,-3.6492,-3.6492,-3.6492,-3.6492,-3.6492,-3.6492,-3.6492,-3.6492,-3.6492,-3.6492,-3.6492,-3.6492,-3.6492,-3.6492,-3.6492,-3.6492,-3.6492,-3.6492,-3.623,-3.6076,-3.6076,-3.5814,-3.5645,-3.5645,-3.6255,-3.6886,-3.7491,-3.8121,-3.8865,-3.9722,-3.9782,-3.9978,-4.0288,-4.0337,-4.0362,-1.8358,0.0,0.0,-2.2564,-2.4512,-2.6245,-2.6582,-2.7103,-2.7781,-2.887,-2.9165,-2.9445,-3.0045,-3.0312,0.0,-3.2246,-3.2593,-3.3086,-3.4221,-3.3862,-3.3529,-3.3636,-3.3939,-3.4588,-3.5663,-3.6166,-3.6322,-3.6134,-3.6291,-3.6693,-3.7369,-3.8258,-3.9306,-4.0453,-4.1392,-4.2068,-4.246,-4.2555,-4.2555,-4.246,-4.2571,-4.2539,-4.2429,-4.2109,-4.1785,-4.1456,-4.1205,-4.1037,-4.0901,-4.0627,-4.0489,-4.0489,-4.0489,-4.0197,-3.9739,-3.9497,-3.8704,-3.7831,-3.8123,-3.7584,-3.683,-3.7123,-3.6892,-3.6492,-3.6492,-3.6492,-3.6492,-3.6492,-3.6492,-3.6492,-3.6492,-3.6492,-3.6492,-3.6492,-3.6492,-3.6492,-3.6492,-3.6492,-3.6492,-3.6492,-3.6492,-3.6492,-3.6492,-3.6492,-3.6492,-3.6492,-3.6492,-3.6492,-3.6492,-3.6492,-3.6492,-3.6492,-3.6492,-3.6492,-3.6492,-3.6492,-3.6492,-3.6492,-3.6492,-3.6492,-3.6492,-3.6922,-3.7504,-3.8278,-3.8739,-3.9339,-4.0096,-4.0096,-4.0138,-4.0163,-4.0163,-4.0332,0.0,0.0,-2.2087,-2.381,-2.5536,-2.7102,-2.8324,-2.8619,-2.8816,-2.9448,-2.9235,-2.9102,-2.9695,-2.9976,-3.059,-3.2072,-3.2793,-3.3446,-3.4279,-3.3862,-3.3622,-3.4027,-3.3767,-3.3703,0.0,-3.5499,-3.6134,-3.5497,-3.604,-3.6676,-3.7369,-3.8701,-3.9787,-4.0482,-4.1836,-4.2412,-4.2109,-4.2445,-4.2445,-4.2109,-4.2429,-4.2445,-4.2109,-4.1785,-4.1423,-4.1104,-4.1088,-4.0867,-4.0524,-4.0489,-4.0489,-4.0489,-4.0489,-4.0489,-4.0459,-4.0478,-3.9616,-3.8385,-3.7754,-3.7507,-3.7369,-3.6738,-3.6507,-3.6492,-3.6492,-3.6492,-3.6492,-3.6492,-3.6492,-3.6492,-3.6492,-3.6492,-3.6492,-3.6492,-3.6492,-3.6492,-3.6492,-3.6492,-3.6492,-3.6492,-3.6492,-3.6492,-3.6492,-3.6492,-3.6492,-3.6492,-3.6492,-3.6492,-3.6492,-3.6492,-3.6492,-3.6492,-3.6492,-3.6492,-3.6492,-3.6492,-3.6492,-3.6492,-3.6492,-3.6492,-3.6492,-3.6523,-3.7088,-3.8278,-3.8306,-3.8903,-4.0096,-4.0096,-4.0163,-4.0288,-4.0288,-4.0746,0.0,0.0,-2.2724,-2.5264,-2.6619,-2.7668,-2.9005,-2.9307,-2.9237,-2.904,-2.8642,-2.8364,-2.8577,-2.8826,-2.9621,-3.1351,-3.2141,-3.2933,-3.4052,-3.3581,-3.3197,-3.348,-3.3388,0.0,0.0,0.0,0.0,-3.4539,-3.4758,-3.537,-3.649,-3.7981,-3.9244,-4.0125,-4.1533,-4.2206,-4.2109,-4.2206,-4.2206,-4.2109,-4.198,-4.1753,-4.1423,-4.1323,-4.1055,-4.0696,-4.0696,-4.0627,-4.0489,-4.0489,-4.0489,-4.0489,-4.0489,-4.0489,-4.0489,-4.0489,-4.0197,-3.9782,-3.9551,-3.8923,-3.82,-3.8431,-3.7892,-3.7153,-3.7153,-3.6846,-3.6492,-3.6492,-3.6492,-3.6492,-3.6492,-3.6492,-3.6492,-3.6492,-3.6492,-3.6492,-3.6492,-3.6492,-3.6492,-3.6492,-3.6492,-3.6492,-3.6492,-3.6492,-3.6492,-3.6492,-3.6492,-3.6492,-3.6492,-3.6492,-3.6492,-3.6492,-3.6492,-3.6492,-3.6492,-3.6492,-3.6492,-3.6492,-3.6492,-3.6492,-3.6492,-3.6492,-3.6892,-3.7679,-3.8096,-3.8712,-3.9497,-3.9901,-4.0138,-4.0163,-4.0163,-4.0629,0.0,-2.2313,-2.3501,-2.6021,-2.7108,-2.7795,-2.8681,-2.8722,-2.8457,-2.8094,-2.724,-2.6708,-2.7173,-2.7058,-2.7768,-3.0391,-3.1197,-3.2087,-3.3796,-3.346,-3.3097,-3.3307,-3.3188,0.0,0.0,0.0,0.0,-3.404,-3.4059,-3.466,-3.6001,-3.7274,-3.8498,-3.96,-4.0908,-4.1557,-4.1425,-4.1737,-4.1916,-4.1916,-4.1588,-4.129,-4.1104,-4.0969,-4.073,-4.0489,-4.0489,-4.0489,-4.0489,-4.0489,-4.0489,-4.0489,-4.0489,-4.0489,-4.0489,-4.0489,-4.0489,-4.0459,-4.0213,-3.9567,-3.8908,-3.9093,-3.8569,-3.7815,-3.7569,-3.72,-3.6799,-3.6553,-3.6492,-3.6492,-3.6492,-3.6492,-3.6492,-3.6492,-3.6492,-3.6492,-3.6492,-3.6492,-3.6492,-3.6492,-3.6492,-3.6492,-3.6492,-3.6492,-3.6492,-3.6492,-3.6492,-3.6492,-3.6492,-3.6492,-3.6492,-3.6492,-3.6492,-3.6492,-3.6492,-3.6492,-3.6492,-3.6492,-3.6492,-3.6492,-3.6492,-3.6492,-3.6785,-3.7387,-3.7982,-3.8601,-3.9206,-3.9799,-4.0096,-4.0113,-4.0383,-4.0917,-2.191,-2.3175,-2.4431,-2.6091,-2.6954,-2.7459,-2.7534,-2.7088,-2.6653,-2.6647,-2.5191,-2.4286,0.0,0.0,-2.5367,-2.9201,-3.0036,-3.1103,-3.3539,-3.3489,-3.3298,0.0,0.0,0.0,0.0,0.0,0.0,-3.3905,0.0,-3.4669,-3.5906,-3.6696,-3.7693,-3.892,-4.0054,-4.0466,-4.0181,-4.1073,-4.1555,-4.1555,-4.1239,-4.107,-4.107,-4.0662,-4.0489,-4.0489,-4.0489,-4.0489,-4.0489,-4.0489,-4.0489,-4.0489,-4.0489,-4.0489,-4.0489,-4.0489,-4.0489,-4.0397,-3.9767,-3.9536,-3.9428,-3.8831,-3.8585,-3.8446,-3.78,-3.7554,-3.7369,-3.6722,-3.6522,-3.6492,-3.6492,-3.6492,-3.6492,-3.6492,-3.6492,-3.6492,-3.6492,-3.6492,-3.6492,-3.6492,-3.6492,-3.6492,-3.6492,-3.6492,-3.6492,-3.6492,-3.6492,-3.6492,-3.6492,-3.6492,-3.6492,-3.6492,-3.6492,-3.6492,-3.6492,-3.6492,-3.6492,-3.6492,-3.6492,-3.6492,-3.6492,-3.6492,-3.6785,-3.7358,-3.7953,-3.8546,-3.9152,-3.9747,-4.0104,-4.018,-4.0865,-4.1627,-2.2972,-2.3879,-2.4691,-2.608,-2.654,-2.6739,-2.6881,-2.6485,-2.5845,-2.4897,-2.366,-2.2824,-2.3084,0.0,0.0,-2.8024,-2.97,0.0,-3.3391,-3.3429,0.0,0.0,0.0,-3.3456,-3.3591,-3.3605,0.0,0.0,-3.4285,-3.4768,-3.5587,-3.6887,-3.7862,-3.8383,-3.9233,-3.9626,-3.9535,-4.022,-4.0768,-4.1223,-4.0833,-4.0662,-4.0662,-4.0558,-4.0489,-4.0489,-4.0489,-4.0489,-4.0489,-4.0489,-4.0489,-4.0489,-4.0489,-4.0489,-4.0489,-4.0489,-4.0489,-4.0474,-4.029,-4.0243,-4.0213,-4.0043,-3.9644,-3.9198,-3.9046,-3.8292,-3.7461,-3.7292,-3.6892,-3.6492,-3.6492,-3.6492,-3.6492,-3.6492,-3.6492,-3.6492,-3.6492,-3.6492,-3.6492,-3.6492,-3.6492,-3.6492,-3.6492,-3.6492,-3.6492,-3.6492,-3.6492,-3.6492,-3.6492,-3.6492,-3.6492,-3.6492,-3.6492,-3.6492,-3.6492,-3.6492,-3.6492,-3.6492,-3.6492,-3.6492,-3.6492,-3.6492,-3.6585,-3.6723,-3.7312,-3.794,-3.8546,-3.9135,-3.9955,-4.0916,-4.1119,-4.1897,-2.3737,-2.447,-2.5009,-2.5753,-2.5758,-2.5539,-2.5451,-2.4766,-2.3914,-2.3007,-2.1874,0.0,0.0,0.0,0.0,0.0,0.0,0.0,-3.2794,-3.3296,-3.3431,0.0,-3.3466,0.0,-3.3466,-3.3706,-3.398,0.0,-3.4383,-3.4923,-3.5852,-3.6712,-3.7372,-3.781,-3.8642,-3.9334,-3.9814,-4.0146,-4.0509,-4.0833,-4.0593,-4.0489,-4.0489,-4.0489,-4.0489,-4.0489,0.0,-4.0489,-4.0489,-4.0489,-4.0489,-4.0489,-4.0489,-4.0489,-4.0489,-4.0489,-4.0489,-4.0489,-4.0489,-4.0489,-4.0489,-4.0489,-4.0243,-3.9874,-3.9582,-3.8985,-3.8262,-3.7677,-3.723,-3.6861,-3.6569,-3.6492,-3.6492,-3.6492,-3.6492,-3.6492,-3.6492,-3.6492,-3.6492,-3.6492,-3.6492,-3.6492,-3.6492,-3.6492,-3.6492,-3.6492,-3.6492,-3.6492,-3.6492,-3.6492,-3.6492,-3.6492,-3.6492,-3.6492,-3.6492,-3.6492,-3.6492,-3.6492,-3.6492,-3.6492,-3.6492,-3.6492,-3.6492,-3.6492,-3.7342,-3.7953,-3.8306,-3.9493,-4.0452,-4.1221,-4.1863,-4.2625,-2.435,-2.4963,-2.5312,-2.5312,-2.4867,-2.4247,-2.3695,-2.2648,-2.1637,-2.1078,0.0,0.0,-2.0041,0.0,-2.2194,-2.5275,0.0,-2.9563,-3.2067,-3.3,-3.3402,-3.3312,-3.329,-3.329,-3.329,-3.3852,-3.4231,-3.4315,-3.458,-3.5212,-3.6288,-3.6415,-3.6712,-3.7236,-3.8113,-3.906,-4.0126,-4.0231,-4.0316,-4.0385,-4.0455,-4.0489,-4.0489,-4.0489,-4.0489,-4.0489,0.0,0.0,-4.0489,-4.0489,-4.0489,-4.0489,-4.0489,-4.0489,-4.0489,-4.0489,-4.0489,-4.0489,-4.0489,-4.0489,-4.0489,-4.0489,-4.0489,-4.0382,-3.9797,-3.9551,-3.9244,-3.8092,-3.7646,-3.7369,-3.6784,-3.6553,-3.6492,-3.6492,-3.6492,-3.6492,-3.6492,-3.6492,-3.6492,-3.6492,-3.6492,-3.6492,-3.6492,-3.6492,-3.6492,-3.6492,-3.6492,-3.6492,-3.6492,-3.6492,-3.6492,-3.6492,-3.6492,-3.6492,-3.6492,-3.6492,-3.6492,-3.6492,-3.6492,-3.6492,-3.6492,-3.6492,-3.6554,-3.6616,-3.765,-3.8266,-3.8418,-4.0204,-4.1159,-4.139,-4.275,-4.3443,-2.4891,-2.524,-2.5312,-2.5312,-2.4602,-2.367,-2.2688,-2.1592,0.0,0.0,0.0,-1.8758,-1.8825,-1.9782,0.0,-2.4655,0.0,0.0,0.0,0.0,-3.2784,0.0,0.0,0.0,0.0,0.0,0.0,0.0,0.0,0.0,-3.6141,-3.662,-3.6958,-3.7056,-3.7211,-3.7658,-3.8323,-3.8855,-3.9343,-3.9824,-4.0281,-4.0489,-4.0489,-4.0489,-4.0489,-4.0489,0.0,0.0,-4.0489,-4.0489,-4.0489,-4.0489,-4.0489,-4.0489,-4.0489,-4.0489,-4.0489,-4.0489,-4.0489,-4.0489,-4.0489,-4.0489,-4.0489,-4.0474,-4.0351,-3.992,-3.9428,-3.9231,-3.8354,-3.7477,-3.7353,-3.6907,-3.6492,-3.6492,-3.6492,-3.6492,-3.6492,-3.6492,-3.6492,-3.6492,-3.6492,-3.6492,-3.6492,-3.6492,-3.6492,-3.6492,-3.6492,-3.6492,-3.6492,-3.6492,-3.6492,-3.6492,-3.6492,-3.6492,-3.6492,-3.6492,-3.6492,-3.6492,-3.6492,-3.6492,-3.6492,-3.6492,-3.6723,-3.7238,-3.7431,-3.8055,-3.9044,-3.9999,-4.1033,-4.2117,-4.3014,-4.3775,-2.5035,-2.5312,-2.524,-2.4963,-2.4356,-2.3364,-2.1709,0.0,0.0,0.0,0.0,-1.807,-1.8039,0.0,0.0,0.0,0.0,0.0,0.0,0.0,0.0,0.0,0.0,0.0,0.0,0.0,0.0,0.0,0.0,0.0,-3.6581,-3.6824,-3.7134,-3.7467,-3.7481,-3.7772,-3.8375,-3.8965,-3.9415,-3.9717,-4.0246,-4.0489,-4.0489,-4.0489,-4.0489,-4.0489,-4.0489,0.0,-4.0489,-4.0489,-4.0489,-4.0489,-4.0489,-4.0489,-4.0489,-4.0489,-4.0489,-4.0489,-4.0489,-4.0489,-4.0489,-4.0489,-4.0489,-4.0489,-4.0489,-4.0274,-3.9936,-3.9582,-3.88,-3.7938,-3.7584,-3.6999,-3.6492,-3.6492,-3.6492,-3.6492,-3.6492,-3.6492,-3.6492,-3.6492,-3.6492,-3.6492,-3.6492,-3.6492,-3.6492,-3.6492,-3.6492,-3.6492,-3.6492,-3.6492,-3.6492,-3.6492,-3.6492,-3.6492,-3.6492,-3.6492,-3.6492,-3.6492,-3.6492,-3.6492,-3.6492,-3.6492,-3.6631,-3.6922,-3.7533,-3.833,-3.9313,-4.0673,-4.1876,-4.2895,-4.3656,-4.4215,-2.4855,-2.5216,-2.518,-2.4616,-2.3969,-2.2935,-2.0951,-1.9753,0.0,0.0,0.0,-1.7604,-1.7604,0.0,0.0,0.0,0.0,0.0,0.0,0.0,0.0,0.0,0.0,0.0,0.0,0.0,0.0,0.0,0.0,0.0,-3.6978,-3.6978,-3.7211,-3.7696,-3.7696,-3.7924,-3.8412,-3.9126,-3.9502,-3.9538,-4.0176,-4.0489,-4.0489,-4.0489,-4.0489,-4.0489,-4.0489,0.0,0.0,-4.0489,-4.0489,-4.0489,-4.0489,-4.0489,-4.0489,-4.0489,-4.0489,-4.0489,-4.0489,-4.0489,-4.0489,-4.0489,-4.0489,-4.0489,-4.0489,-4.0489,-4.0382,-3.9844,-3.9139,-3.8385,-3.7861,-3.7107,-3.6492,-3.6492,-3.6492,-3.6492,-3.6492,-3.6492,-3.6492,-3.6492,-3.6492,-3.6492,-3.6492,-3.6492,-3.6492,-3.6492,-3.6492,-3.6492,-3.6492,-3.6492,-3.6492,-3.6492,-3.6492,-3.6492,-3.6492,-3.6492,-3.6492,-3.6492,-3.6492,-3.6492,-3.6492,-3.6492,-3.6554,-3.6693,-3.7764,-3.8739,-3.9593,-4.1427,-4.2692,-4.3409,-4.4215,-4.4615,-2.4314,-2.4939,-2.518,-2.4616,-2.3408,-2.2037,-2.0782,0.0,0.0,0.0,-1.7277,-1.7604,-1.7604,0.0,0.0,0.0,0.0,0.0,0.0,0.0,0.0,0.0,0.0,0.0,0.0,0.0,0.0,0.0,0.0,0.0,0.0,-3.6978,-3.7017,-3.7095,-3.7095,-3.7095,-3.7173,-3.83,-3.8892,-3.8892,-3.9985,-4.0489,-4.0489,-4.0489,-4.0489,-4.0489,0.0,0.0,0.0,-4.0489,-4.0489,-4.0489,-4.0489,-4.0489,-4.0489,-4.0489,-4.0489,-4.0489,-4.0489,-4.0489,-4.0489,-4.0489,-4.0489,-4.0489,-4.0489,-4.0489,-4.0489,-4.0428,-3.9474,-3.8492,-3.8431,-3.7461,-3.6492,-3.6492,-3.6492,-3.6492,-3.6492,-3.6492,-3.6492,-3.6492,-3.6492,-3.6492,-3.6492,-3.6492,-3.6492,-3.6492,-3.6492,-3.6492,-3.6492,-3.6492,-3.6492,-3.6492,-3.6492,-3.6492,-3.6492,-3.6492,-3.6492,-3.6492,-3.6492,-3.6492,-3.6492,-3.6492,-3.6754,-3.7298,-3.8017,-3.9007,-4.0211,-4.1674,-4.2745,-4.3409,-4.4215,-4.4615,-2.3701,-2.4446,-2.4711,-2.4194,-2.3631,-2.2615,-2.0509,0.0,-1.8405,-1.7151,-1.7277,-1.7604,-1.7604,-1.8077,-1.8863,0.0,-2.0049,0.0,0.0,0.0,0.0,0.0,0.0,0.0,0.0,0.0,0.0,0.0,0.0,0.0,0.0,-3.6624,-3.6978,-3.6978,-3.6978,-3.6978,-3.6978,-3.8188,-3.8782,-3.8819,-3.995,-4.0489,-4.0489,-4.0489,-4.0489,-4.0489,0.0,0.0,0.0,-4.0489,-4.0489,-4.0489,-4.0489,-4.0489,-4.0489,-4.0489,-4.0489,-4.0489,-4.0489,-4.0489,-4.0489,-4.0489,-4.0489,-4.0489,-4.0489,-4.0489,-4.0489,-4.0489,-3.9521,-3.8508,-3.8508,-3.7507,-3.6492,-3.6492,-3.6492,-3.6492,-3.6492,-3.6492,-3.6492,-3.6492,-3.6492,-3.6492,-3.6492,-3.6492,-3.6492,-3.6492,-3.6492,-3.6492,-3.6492,-3.6492,-3.6492,-3.6492,-3.6492,-3.6492,-3.6492,-3.6492,-3.6492,-3.6492,-3.6492,-3.6492,-3.6492,-3.6492,-3.6801,-3.7437,-3.8073,-3.9265,-4.1023,-4.1951,-4.2989,-4.413,-4.4462,-4.4615,-2.2969,-2.3794,-2.4229,-2.3919,-2.3439,-2.2498,0.0,0.0,-1.856,-1.7337,-1.7385,-1.7604,-1.7604,-1.8077,-1.8638,0.0,-1.8933,-1.9775,-2.269,0.0,0.0,0.0,0.0,0.0,0.0,0.0,0.0,0.0,0.0,0.0,0.0,-3.6019,-3.6567,-3.675,-3.6894,-3.6978,-3.6978,-3.8037,-3.8634,-3.8819,-3.9809,-4.0351,-4.0489,-4.0489,-4.0489,-4.0489,0.0,0.0,0.0,-4.0489,-4.0489,-4.0489,-4.0489,-4.0489,-4.0489,-4.0489,-4.0489,-4.0489,-4.0489,-4.0489,-4.0489,-4.0489,-4.0489,-4.0489,-4.0489,-4.0489,-4.0489,-4.0489,-3.9521,-3.8415,-3.8015,-3.7215,-3.6538,-3.6738,-3.663,-3.6538,-3.6738,-3.663,-3.6492,-3.6492,-3.6492,-3.6492,-3.6492,-3.6492,-3.6492,-3.6492,-3.6492,-3.6492,-3.6492,-3.6492,-3.6492,-3.6492,-3.6492,-3.6492,-3.6492,-3.6492,-3.6492,-3.6492,-3.6492,-3.6492,-3.6492,-3.6676,-3.7015,-3.7492,-3.8309,-3.9643,-4.1482,-4.2133,-4.3165,-4.4615,-4.4615,-4.4615,-2.1983,-2.3065,-2.381,-2.3866,-2.2588,-2.1138,0.0,-1.8957,-1.7678,-1.7604,-1.7604,-1.7604,-1.7604,-1.8077,-1.8498,-1.8512,-1.9017,-2.0266,-2.2746,0.0,0.0,0.0,0.0,0.0,0.0,0.0,0.0,0.0,0.0,0.0,0.0,-3.5203,-3.5484,-3.6103,-3.6708,-3.6978,-3.6978,-3.7582,-3.8225,-3.8819,-3.9415,-4.0001,-4.0489,-4.0489,-4.0489,0.0,0.0,0.0,0.0,-4.0489,-4.0489,-4.0489,-4.0489,-4.0489,-4.0489,-4.0489,-4.0489,-4.0489,-4.0489,-4.0489,-4.0489,-4.0489,-4.0489,-4.0489,-4.0489,-4.0489,-4.0489,-4.0489,-3.9521,-3.82,-3.6861,-3.6507,-3.6661,-3.7338,-3.6984,-3.6676,-3.7353,-3.6969,-3.6492,-3.6492,-3.6492,-3.6492,-3.6492,-3.6492,-3.6492,-3.6492,-3.6492,-3.6492,-3.6492,-3.6492,-3.6492,-3.6492,-3.6492,-3.6492,-3.6492,-3.6492,-3.6492,-3.6492,-3.6492,-3.6492,-3.6492,-3.7138,-3.7492,-3.7507,-3.8816,-4.0142,-4.1482,-4.2164,-4.3213,-4.4615,-4.4615,-4.4615,-1.9192,-2.0486,-2.1472,-2.1127,-2.1094,-2.0905,-1.9903,-1.9252,-1.8732,-1.8291,-1.8217,-1.8217,-1.8217,-1.8372,-1.8925,-2.021,0.0,0.0,0.0,0.0,0.0,0.0,0.0,0.0,0.0,0.0,0.0,0.0,0.0,0.0,0.0,-3.4295,-3.4801,-3.5456,-3.5667,-3.5766,-3.5766,-3.6776,-3.7557,-3.814,-3.9191,-3.9965,-4.0489,-4.0489,0.0,0.0,0.0,0.0,0.0,-4.0305,-4.0213,-3.9797,-3.9797,-3.9797,-3.9797,-3.9797,-3.9797,-3.9874,-4.0336,-4.0489,-4.0489,-4.0489,-4.0489,-4.0489,-4.0489,-4.0489,-4.0305,-3.9367,-3.9136,-3.8785,-3.6969,-3.683,-3.7123,-3.6876,-3.6999,-3.723,-3.7446,-3.7338,-3.7184,-3.7184,-3.6799,-3.6492,-3.6492,-3.6492,-3.6492,-3.6492,-3.6492,-3.6492,-3.6492,-3.6492,-3.6492,-3.6492,-3.6492,-3.6492,-3.6492,-3.6492,-3.6492,-3.6492,-3.6923,-3.7184,-3.7184,-3.7831,-3.8613,-3.9516,-3.9971,-4.1055,-4.2867,-4.3081,-4.3676,-4.4615,-4.4615,-4.4615,0.0,-1.9118,-2.0104,-2.026,-2.0366,-2.0274,-1.9562,-1.9211,-1.8961,-1.8582,-1.8498,-1.8498,-1.8498,-1.8498,-1.8877,-2.0056,0.0,0.0,0.0,0.0,0.0,0.0,0.0,0.0,0.0,0.0,0.0,0.0,0.0,0.0,0.0,0.0,-3.407,-3.4486,-3.495,-3.5189,-3.5189,-3.5941,-3.6576,-3.7126,-3.8124,-3.8913,-3.9448,-3.9653,0.0,0.0,0.0,0.0,0.0,-3.9551,-3.949,-3.9105,-3.9105,-3.9105,-3.9105,-3.9105,-3.9105,-3.9167,-3.9582,-3.9905,-4.0105,-4.0105,-4.029,-4.0489,-4.0489,-4.0489,-4.0259,-3.9167,-3.92,-3.9108,-3.7338,-3.7184,-3.74,-3.6969,-3.72,-3.7507,-3.7507,-3.7507,-3.743,-3.7169,-3.6784,-3.6569,-3.683,-3.6876,-3.6953,-3.7215,-3.7246,-3.7246,-3.7246,-3.703,-3.6969,-3.723,-3.703,-3.6969,-3.723,-3.7015,-3.6876,-3.6876,-3.7507,-3.7877,-3.7877,-3.8769,-3.9655,-4.0482,-4.0992,-4.199,-4.3512,-4.3781,-4.4133,-4.4615,-4.4615,-4.4615,0.0,-1.8563,-1.9439,-2.057,-2.0029,-1.9225,-1.9217,-1.8779,0.0,-1.8428,-1.8442,-1.8484,-1.861,-1.8554,-1.8582,-1.8849,0.0,0.0,0.0,0.0,0.0,0.0,0.0,0.0,0.0,0.0,0.0,0.0,0.0,0.0,0.0,0.0,-3.329,-3.329,-3.4472,-3.5062,-3.5062,-3.5142,-3.5472,-3.5992,-3.6567,-3.7154,-3.7763,-3.8262,0.0,0.0,0.0,0.0,0.0,-3.846,-3.8444,-3.8365,-3.8398,-3.8431,-3.8431,-3.8431,-3.8431,-3.8446,-3.8492,-3.8954,-3.949,-3.957,-3.9982,-4.0489,-4.0489,-4.0489,-4.0351,-3.9674,-3.9521,-3.9244,-3.7923,-3.7569,-3.7569,-3.7569,-3.7538,-3.7523,-3.7631,-3.76,-3.74,-3.683,-3.6661,-3.683,-3.7461,-3.7569,-3.7784,-3.8415,-3.8508,-3.8508,-3.8508,-3.7969,-3.7815,-3.8446,-3.7938,-3.7831,-3.8462,-3.7938,-3.7569,-3.7569,-3.82,-3.8569,-3.8635,-3.9893,-4.0626,-4.0721,-4.2009,-4.2953,-4.3571,-4.4281,-4.4615,-4.4615,-4.4615,-4.4615,-1.5618,0.0,-1.6767,-1.666,-1.6987,-1.7325,0.0,-1.7211,0.0,0.0,0.0,0.0,0.0,0.0,0.0,0.0,0.0,0.0,0.0,0.0,0.0,0.0,0.0,0.0,0.0,0.0,0.0,0.0,0.0,0.0,0.0,0.0,-3.329,-3.329,-3.3607,-3.3747,-3.3747,-3.4612,-3.5357,-3.5947,-3.693,-3.7729,-3.8343,-3.8442,0.0,0.0,0.0,0.0,-3.6604,-3.7948,-3.7956,-3.714,-3.7562,-3.7738,-3.7738,-3.7738,-3.7738,-3.7815,-3.8323,-3.8954,-3.9567,-4.009,-4.0366,-4.0489,-4.0489,-4.0489,-4.0351,-3.9674,-3.9859,-3.9951,-3.8616,-3.8262,-3.8262,-3.8262,-3.7877,-3.7784,-3.8831,-3.8646,-3.8385,-3.8739,-3.8385,-3.8077,-3.8246,-3.8262,-3.8323,-3.8492,-3.8508,-3.8508,-3.8508,-3.8369,-3.8338,-3.8492,-3.8369,-3.8338,-3.8492,-3.8369,-3.8262,-3.8262,-3.8875,-3.9495,-4.0004,-4.0827,-4.1742,-4.2752,-4.3668,-4.4179,-4.4338,-4.4514,-4.4615,-4.4615,-4.4615,-4.4615,-1.4927,-1.5861,-1.6743,-1.6725,-1.733,-1.7941,-1.7941,0.0,0.0,0.0,0.0,0.0,0.0,0.0,0.0,0.0,0.0,0.0,0.0,0.0,0.0,0.0,0.0,0.0,0.0,0.0,0.0,0.0,0.0,0.0,0.0,0.0,-3.329,-3.329,-3.3542,-3.3542,-3.329,-3.3903,-3.436,-3.4721,-3.559,-3.6294,-3.6857,-3.7101,0.0,0.0,0.0,0.0,-3.5622,-3.6917,-3.6808,-3.5953,-3.6618,-3.6872,-3.684,-3.6967,-3.6967,-3.6981,-3.7414,-3.8031,-3.8754,-3.9705,-4.0028,-4.009,-4.0397,-4.0274,-4.0013,-3.9967,-4.0213,-4.0259,-3.9247,-3.897,-3.8893,-3.8585,-3.8477,-3.8539,-3.897,-3.9016,-3.8985,-3.9046,-3.8769,-3.8616,-3.8923,-3.897,-3.9077,-3.9351,-3.9431,-3.9431,-3.9431,-3.917,-3.9093,-3.9367,-3.9154,-3.9059,-3.9367,-3.9431,-3.9308,-3.8985,-3.9887,-4.0595,-4.0924,-4.1917,-4.2923,-4.3972,-4.4412,-4.4615,-4.4615,-4.4615,-4.4615,-4.4615,-4.4615,-4.4615,-1.5033,-1.6396,-1.7801,-1.8021,-1.861,-1.9101,-1.9017,0.0,0.0,0.0,0.0,0.0,0.0,0.0,0.0,0.0,0.0,0.0,0.0,0.0,0.0,0.0,0.0,0.0,0.0,0.0,0.0,0.0,0.0,0.0,0.0,0.0,0.0,-3.329,-3.3736,-3.3791,-3.3417,-3.3521,-3.3521,-3.3417,-3.3962,-3.4509,-3.5055,-3.5479,-3.5958,0.0,0.0,0.0,-3.5077,-3.5864,-3.5705,-3.5023,-3.5847,-3.6085,-3.6037,-3.6352,-3.6352,-3.6242,-3.6537,-3.7015,-3.7707,-3.8921,-3.9431,-3.9631,-4.0166,-3.9936,-3.9598,-4.0182,-4.0259,-4.0105,-3.9736,-3.949,-3.9277,-3.8908,-3.9059,-3.9228,-3.8893,-3.9152,-3.9351,-3.8908,-3.8816,-3.9,-3.9536,-3.9644,-3.9844,-4.0397,-4.0489,-4.0489,-4.0489,-3.9982,-3.9859,-4.0428,-3.9982,-3.9874,-4.0443,-4.0489,-4.0259,-3.9674,-4.0829,-4.1575,-4.1804,-4.2984,-4.3972,-4.4587,-4.4615,-4.4615,-4.4615,-4.4615,-4.4615,-4.4615,-4.4615,-4.4615,-1.6115,-1.7365,-1.8007,-1.6505,-1.701,-1.7745,0.0,0.0,0.0,0.0,0.0,0.0,0.0,0.0,0.0,0.0,0.0,0.0,0.0,0.0,0.0,0.0,0.0,0.0,0.0,0.0,0.0,0.0,0.0,0.0,0.0,0.0,0.0,-3.329,-3.3382,-3.3597,-3.3982,-3.4423,-3.4423,-3.3982,-3.4509,-3.5055,-3.5591,-3.5655,-3.5752,0.0,0.0,-3.5816,-3.4762,-3.5769,-3.5784,-3.5201,-3.5799,-3.6037,-3.6037,-3.6179,-3.6242,-3.6319,-3.7075,-3.7415,-3.7631,-3.8415,-3.9046,-3.9505,-3.9613,-3.9567,-3.9505,-3.9613,-3.9228,-3.9029,-4.0074,-3.949,-3.8923,-3.9936,-3.9382,-3.8954,-3.9967,-3.9813,-3.9628,-4.009,-4.0182,-4.0213,-4.032,-4.0336,-4.0382,-4.0474,-4.0489,-4.0489,-4.0489,-4.0397,-4.0382,-4.0489,-4.0397,-4.0382,-4.0489,-4.0489,-4.0443,-4.0336,-4.1062,-4.2013,-4.3136,-4.3989,-4.4468,-4.4615,-4.4615,-4.4615,-4.4615,-4.4615,-4.4615,-4.4615,-4.4615,-4.4615,-1.5511,-1.6817,-1.7815,-1.6926,-1.8419,-2.0014,0.0,0.0,0.0,0.0,0.0,0.0,0.0,0.0,0.0,0.0,0.0,0.0,0.0,0.0,0.0,0.0,0.0,0.0,0.0,0.0,0.0,0.0,0.0,0.0,0.0,0.0,0.0,0.0,-3.3577,-3.3859,-3.4104,-3.4643,-3.4643,-3.4104,-3.4341,-3.4743,-3.5285,-3.5285,-3.5512,-3.5975,0.0,-3.5672,-3.4662,-3.5576,-3.5447,-3.4795,-3.5544,-3.5782,-3.578,-3.6005,-3.6211,-3.6429,-3.6814,-3.6953,-3.7076,-3.7738,-3.8169,-3.8492,-3.8862,-3.8723,-3.8508,-3.8877,-3.9016,-3.9167,-3.9782,-3.9767,-3.9721,-4.0336,-4.0013,-3.9736,-4.0366,-4.0259,-4.012,-4.0428,-4.0489,-4.0489,-4.0489,-4.0489,-4.0489,-4.0489,-4.0489,-4.0489,-4.0489,-4.0489,-4.0489,-4.0489,-4.0489,-4.0489,-4.0489,-4.0489,-4.0802,-4.1525,-4.1868,-4.2645,-4.4047,-4.4412,-4.4615,-4.4615,-4.4615,-4.4615,-4.4615,-4.4615,-4.4615,-4.4615,-4.4615,-4.4615,-1.5159,-1.6396,-1.7674,-1.7955,0.0,0.0,0.0,0.0,0.0,0.0,0.0,0.0,0.0,0.0,0.0,0.0,0.0,0.0,0.0,0.0,0.0,0.0,0.0,0.0,0.0,0.0,0.0,0.0,0.0,0.0,0.0,0.0,0.0,0.0,-3.3791,-3.4119,-3.4138,-3.461,-3.4643,-3.4274,-3.424,-3.4509,-3.5008,-3.4975,-3.5415,-3.6148,-3.6148,-3.5672,-3.4894,-3.5479,-3.5252,-3.4643,-3.5365,-3.5621,-3.5587,-3.5846,-3.6132,-3.6414,-3.6414,-3.646,-3.6569,-3.7092,-3.7369,-3.76,-3.8123,-3.7923,-3.7615,-3.8123,-3.8646,-3.9108,-3.9431,-3.9751,-4.0105,-4.0428,-4.0489,-4.0489,-4.0489,-4.0489,-4.0489,-4.0489,-4.0489,-4.0489,-4.0489,-4.0489,-4.0489,-4.0489,-4.0489,-4.0489,-4.0489,-4.0489,-4.0489,-4.0489,-4.0489,-4.0489,-4.0489,-4.0489,-4.1091,-4.2426,-4.252,-4.3122,-4.4542,-4.4615,-4.4615,-4.4615,-4.4615,-4.4615,-4.4615,-4.4615,-4.4615,-4.4615,-4.4615,-4.4615,-1.6227,-1.7056,-1.7871,-1.8989,0.0,0.0,0.0,0.0,0.0,0.0,0.0,0.0,0.0,0.0,0.0,0.0,0.0,0.0,0.0,0.0,0.0,0.0,0.0,0.0,0.0,0.0,0.0,0.0,0.0,0.0,0.0,0.0,0.0,0.0,0.0,-3.4172,-3.4279,-3.4528,-3.471,-3.4843,-3.4662,-3.4828,-3.5367,-3.5234,-3.5462,-3.6005,-3.6005,-3.5863,-3.5608,-3.5688,-3.5589,-3.5424,-3.5504,-3.5572,-3.5688,-3.572,-3.5943,-3.6211,-3.6211,-3.6352,-3.6507,-3.6553,-3.6984,-3.7507,-3.7569,-3.7538,-3.7507,-3.7569,-3.7615,-3.7938,-3.92,-3.9059,-3.897,-4.0197,-4.0489,-4.0489,-4.0489,-4.0489,-4.0489,-4.0489,-4.0489,-4.0489,-4.0489,-4.0489,-4.0489,-4.0489,-4.0489,-4.0489,-4.0489,-4.0489,-4.0489,-4.0489,-4.0489,-4.0489,-4.0489,-4.0489,-4.1091,-4.2426,-4.252,-4.3122,-4.4542,-4.4615,-4.4615,-4.4615,-4.4615,-4.4615,-4.4615,-4.4615,-4.4615,-4.4615,-4.4615,-4.4615,-1.5286,-1.6536,-1.7801,-1.8624,0.0,0.0,0.0,0.0,0.0,0.0,0.0,0.0,0.0,0.0,0.0,0.0,0.0,0.0,0.0,0.0,0.0,0.0,0.0,0.0,0.0,0.0,0.0,0.0,0.0,0.0,0.0,0.0,0.0,0.0,0.0,-3.4471,-3.4843,-3.4957,-3.5187,-3.5559,-3.5154,-3.5088,-3.5285,-3.5234,-3.5429,-3.5831,-3.5831,-3.5703,-3.5572,-3.5572,-3.5554,-3.5504,-3.5504,-3.5572,-3.5688,-3.5688,-3.5911,-3.6196,-3.6196,-3.6352,-3.6492,-3.6352,-3.6552,-3.6845,-3.672,-3.6767,-3.6876,-3.6876,-3.6876,-3.7184,-3.8539,-3.9016,-3.9336,-4.0274,-4.0436,-4.0401,-4.0489,-4.0436,-4.0401,-4.0489,-4.0489,-4.0489,-4.0489,-4.0489,-4.0489,-4.0489,-4.0489,-4.0489,-4.0489,-4.0489,-4.0489,-4.0489,-4.0489,-4.0489,-4.0489,-4.0489,-4.0972,-4.2045,-4.2363,-4.3122,-4.4542,-4.4615,-4.4615,-4.4615,-4.4615,-4.4615,-4.4615,-4.4615,-4.4615,-4.4615,-4.4615,-4.4615,-1.4738,-1.6171,-1.7824,0.0,0.0,0.0,0.0,0.0,0.0,0.0,0.0,0.0,0.0,0.0,0.0,0.0,0.0,0.0,0.0,0.0,0.0,0.0,0.0,0.0,0.0,0.0,0.0,0.0,0.0,0.0,0.0,0.0,0.0,0.0,0.0,-3.4787,-3.5023,-3.507,-3.5365,-3.5894,-3.5477,-3.5314,-3.5365,-3.5314,-3.5427,-3.5653,-3.5653,-3.5572,-3.5504,-3.5504,-3.5504,-3.5504,-3.5504,-3.5554,-3.5653,-3.5653,-3.5799,-3.6038,-3.6116,-3.6242,-3.6383,-3.6305,-3.6383,-3.646,-3.6352,-3.6383,-3.6492,-3.6492,-3.646,-3.6675,-3.7795,-3.8578,-3.9253,-3.9876,-4.0178,-4.0347,-4.0436,-4.0401,-4.0401,-4.0489,-4.0489,-4.0489,-4.0489,-4.0489,-4.0489,-4.0489,-4.0489,-4.0489,-4.0489,-4.0489,-4.0489,-4.0489,-4.0489,-4.0489,-4.0489,-4.0489,-4.0783,-4.1425,-4.2253,-4.329,-4.4542,-4.4615,-4.4615,-4.4615,-4.4615,-4.4615,-4.4615,-4.4615,-4.4615,-4.4615,-4.4615,-4.4615,-1.4977,-1.6185,0.0,0.0,0.0,0.0,0.0,0.0,0.0,0.0,0.0,0.0,0.0,0.0,0.0,0.0,0.0,0.0,0.0,0.0,0.0,0.0,0.0,0.0,0.0,0.0,0.0,0.0,0.0,0.0,0.0,0.0,0.0,0.0,0.0,0.0,-3.4595,-3.4806,-3.5184,-3.5688,-3.5572,-3.5572,-3.5688,-3.5554,-3.5504,-3.5504,-3.5504,-3.5504,-3.5504,-3.5504,-3.5504,-3.5504,-3.5504,-3.5504,-3.5504,-3.5504,-3.5572,-3.572,-3.5941,-3.6085,-3.6242,-3.6414,-3.6492,-3.6492,-3.6492,-3.6492,-3.6492,-3.6492,-3.6352,-3.6364,-3.7021,-3.7693,-3.8348,-3.8865,-3.9669,-4.0312,-4.0312,-4.0401,-4.0505,-4.0489,-4.0489,-4.0489,-4.0489,-4.0489,-4.0489,-4.0489,-4.0489,-4.0489,-4.0489,-4.0489,-4.0489,-4.0489,-4.0489,-4.0489,-4.0489,-4.0489,-4.0489,-4.0489,-4.2189,-4.3621,-4.4542,-4.4615,-4.4615,-4.4615,-4.4615,-4.4615,-4.4615,-4.4615,-4.4615,-4.4615,-4.4615,-4.4615,-1.5368,0.0,0.0,0.0,0.0,0.0,0.0,0.0,0.0,0.0,0.0,0.0,0.0,0.0,0.0,0.0,0.0,0.0,0.0,0.0,0.0,0.0,0.0,0.0,0.0,0.0,0.0,0.0,0.0,0.0,0.0,0.0,0.0,0.0,0.0,0.0,-3.5231,-3.5279,-3.5392,-3.5554,-3.5537,-3.5537,-3.5554,-3.5537,-3.5504,-3.5504,-3.5504,-3.5504,-3.5504,-3.5504,-3.5504,-3.5504,-3.5504,-3.5504,-3.5504,-3.5504,-3.5572,-3.572,-3.5752,-3.5894,-3.6053,-3.5958,-3.6116,-3.6274,-3.6163,-3.6211,-3.6274,-3.6274,-3.6195,-3.6067,-3.6122,-3.6998,-3.8076,-3.8998,-3.9649,-4.0137,-4.0401,-4.0296,-4.0207,-4.0331,-4.0366,-4.0366,-4.0366,-4.0436,-4.0489,-4.0489,-4.0489,-4.0489,-4.0489,-4.0489,-4.0489,-4.0489,-4.0489,-4.0489,-4.0489,-4.0489,-4.0489,-4.0489,-4.1901,-4.329,-4.4542,-4.4615,-4.4615,-4.4615,-4.4615,-4.4615,-4.4615,-4.4615,-4.4615,-4.4615,-4.4615,-4.4615,-1.6329,0.0,0.0,0.0,0.0,0.0,0.0,0.0,0.0,0.0,0.0,0.0,0.0,0.0,0.0,0.0,0.0,0.0,0.0,0.0,0.0,0.0,0.0,0.0,0.0,0.0,0.0,0.0,0.0,0.0,0.0,0.0,0.0,0.0,0.0,0.0,-3.5504,-3.5504,-3.5504,-3.5504,-3.5504,-3.5504,-3.5504,-3.5504,-3.5504,-3.5504,-3.5504,-3.5504,-3.5504,-3.5504,-3.5504,-3.5504,-3.5504,-3.5504,-3.5504,-3.5504,-3.5554,-3.5621,-3.5688,-3.5784,-3.5894,-3.5879,-3.6038,-3.6211,-3.6195,-3.6179,-3.6196,-3.6196,-3.6085,-3.5894,-3.5752,-3.6273,-3.7131,-3.8254,-3.9228,-3.9945,-4.0141,-4.0101,-4.0066,-4.0277,-4.0312,-4.0312,-4.0366,-4.047,-4.0489,-4.0489,-4.0489,-4.0489,-4.0489,-4.0489,-4.0489,-4.0489,-4.0489,-4.0489,-4.0489,-4.0489,-4.0489,-4.0489,-4.2285,-4.3693,-4.457,-4.4615,-4.4615,-4.4615,-4.4615,-4.4615,-4.4615,-4.4615,-4.4615,-4.4615,-4.4615,-4.4615,0.0,0.0,0.0,0.0,0.0,0.0,0.0,0.0,0.0,0.0,0.0,0.0,0.0,0.0,0.0,0.0,0.0,0.0,0.0,0.0,0.0,0.0,0.0,0.0,0.0,0.0,0.0,0.0,0.0,0.0,0.0,0.0,0.0,0.0,0.0,0.0,-3.5504,-3.5504,-3.5504,0.0,-3.5504,-3.5504,-3.5504,-3.5504,-3.5504,-3.5504,-3.5504,-3.5504,-3.5504,-3.5504,-3.5504,-3.5504,-3.5504,-3.5504,-3.5504,-3.5504,-3.5504,-3.5537,-3.5638,-3.5688,-3.572,-3.6038,-3.6179,-3.6211,-3.6383,-3.632,-3.6179,-3.6179,-3.599,-3.5767,-3.5767,-3.5668,-3.5821,-3.6956,-3.8487,-3.9681,-3.9732,-3.9889,-4.0066,-4.0242,-4.0312,-4.0331,-4.047,-4.0489,-4.0489,-4.0489,-4.0489,-4.0489,-4.0489,-4.0489,-4.0489,-4.0489,-4.0489,-4.0489,-4.0489,-4.0489,-4.0627,-4.0851,-4.3216,-4.4615,-4.4615,-4.4615,-4.4615,-4.4615,-4.4615,-4.4615,-4.4615,-4.4615,-4.4615,-4.4615,-4.4615,-4.4615,0.0,0.0,0.0,0.0,0.0,0.0,0.0,0.0,0.0,0.0,0.0,0.0,0.0,0.0,0.0,0.0,0.0,0.0,0.0,0.0,0.0,0.0,0.0,0.0,0.0,0.0,0.0,0.0,0.0,0.0,0.0,0.0,0.0,0.0,0.0,-3.5504,-3.5504,-3.5504,-3.5504,0.0,-3.5504,-3.5504,-3.5504,-3.5504,-3.5504,-3.5504,-3.5504,-3.5504,-3.5504,-3.5504,-3.5504,-3.5504,-3.5504,-3.5504,-3.5504,-3.5504,-3.5504,-3.5504,-3.5522,-3.5554,-3.5587,-3.5767,-3.5911,-3.6068,-3.61,-3.6068,-3.6037,-3.5926,-3.5718,-3.5554,-3.5554,-3.5733,-3.5905,-3.5914,-3.7738,-3.9553,-3.9854,-3.996,-4.0031,-4.0191,-4.0226,-4.0261,-4.0331,-4.0436,-4.0489,-4.0489,-4.0489,-4.0489,-4.0489,-4.0489,-4.0489,-4.0489,-4.0489,-4.0489,-4.0489,-4.0489,-4.1409,-4.3591,-4.4253,-4.4615,-4.4615,-4.4615,-4.4615,-4.4615,-4.4615,-4.4615,-4.4615,-4.4615,-4.4615,-4.4615,-4.4615,-4.4615,0.0,0.0,0.0,0.0,0.0,0.0,0.0,0.0,0.0,0.0,0.0,0.0,0.0,0.0,0.0,0.0,0.0,0.0,0.0,0.0,0.0,0.0,0.0,0.0,0.0,0.0,0.0,0.0,0.0,0.0,0.0,0.0,0.0,0.0,-3.5115,-3.5504,-3.5504,-3.5504,-3.5504,-3.5504,-3.5504,-3.5504,-3.5504,-3.5504,-3.5504,-3.5504,-3.5504,-3.5504,-3.5504,-3.5504,-3.5504,-3.5504,-3.5504,-3.5504,-3.5504,-3.5504,-3.5504,-3.5504,-3.5504,-3.5504,-3.5537,-3.5671,-3.5752,-3.5863,-3.5973,-3.5973,-3.5894,-3.5831,-3.5668,-3.5504,-3.5504,-3.5619,-3.5716,-3.5537,-3.7015,-3.8487,-3.8697,-3.9259,-3.9747,-3.9803,-3.998,-4.0172,-4.0366,-4.0455,-4.0489,-4.0489,-4.0489,-4.0489,-4.0489,-4.0489,-4.0489,-4.0489,-4.0489,-4.1024,-4.2364,-4.2459,-4.3078,-4.4514,-4.4615,-4.4615,-4.4615,-4.4615,-4.4615,-4.4615,-4.4615,-4.4615,-4.4615,-4.4615,-4.4615,-4.4615,-4.4615,-4.4615,0.0,0.0,0.0,0.0,0.0,0.0,0.0,0.0,0.0,0.0,0.0,0.0,0.0,0.0,0.0,0.0,0.0,0.0,0.0,0.0,0.0,0.0,0.0,0.0,0.0,0.0,0.0,0.0,0.0,0.0,0.0,0.0,-3.3642,-3.4307,-3.4861,-3.516,-3.516,-3.516,-3.516,-3.516,-3.5265,-3.5385,-3.5504,-3.5504,-3.5504,-3.5504,-3.5504,-3.5504,-3.5504,-3.5504,-3.5504,-3.5504,-3.5504,-3.5504,-3.5504,-3.5504,-3.5504,-3.5504,-3.5504,-3.5504,-3.5537,-3.5671,-3.5688,-3.572,-3.5894,-3.5894,-3.5799,-3.5767,-3.5636,-3.5504,-3.5504,-3.5504,-3.5504,-3.5504,-3.6312,-3.7075,-3.7075,-3.7958,-3.8871,-3.9298,-3.9783,-4.0172,-4.0455,-4.0489,-4.0489,-4.0489,-4.0489,-4.0489,-4.0489,-4.0489,-4.0489,-4.0489,-4.0489,-4.1409,-4.3697,-4.4327,-4.4615,-4.4615,-4.4615,-4.4615,-4.4615,-4.4615,-4.4615,-4.4615,-4.4615,-4.4615,-4.4615,-4.4615,-4.4615,-4.4615,-4.4615,-4.4615,0.0,0.0,0.0,0.0,0.0,0.0,0.0,0.0,0.0,0.0,0.0,0.0,0.0,0.0,0.0,0.0,0.0,0.0,0.0,0.0,0.0,0.0,0.0,0.0,0.0,0.0,0.0,0.0,0.0,0.0,0.0,-3.1907,-3.2952,-3.3619,-3.3709,-3.3769,-3.3769,-3.3769,-3.3769,-3.3769,-3.4337,-3.4921,-3.5504,-3.5504,-3.5504,-3.5504,-3.5504,-3.5504,-3.5504,-3.5504,-3.5504,-3.5504,-3.5504,-3.5504,-3.5504,-3.5504,-3.5504,-3.5504,-3.5504,-3.5504,-3.5537,-3.5671,-3.5688,-3.572,-3.5799,-3.5831,-3.5767,-3.5587,-3.5537,-3.5504,-3.5504,-3.5504,-3.5504,-3.5504,-3.5639,-3.5759,-3.5759,-3.5893,-3.6701,-3.894,-3.998,-4.0455,-4.0489,-4.0489,-4.0489,-4.0489,-4.0489,-4.0489,-4.0489,-4.0489,-4.0489,-4.0489,-4.0489,-4.0646,-4.1039,-4.3246,-4.4615,-4.4615,-4.4615,-4.4615,-4.4615,-4.4615,-4.4615,-4.4615,-4.4615,-4.4615,-4.4615,-4.4615,-4.4615,-4.4615,-4.4615,-4.4615,0.0,0.0,0.0,0.0,0.0,0.0,0.0,0.0,0.0,0.0,0.0,0.0,0.0,0.0,0.0,0.0,0.0,0.0,0.0,0.0,0.0,0.0,0.0,0.0,0.0,0.0,0.0,0.0,0.0,0.0,-2.9943,-3.0853,-3.1857,-3.2916,-3.3305,-3.3499,-3.3499,-3.3499,-3.3499,-3.3499,-3.4189,-3.4668,-3.4936,-3.5325,-3.5504,-3.5504,-3.5504,-3.5504,-3.5504,-3.5504,-3.5504,-3.5504,-3.5504,-3.5504,-3.5504,-3.5504,-3.5504,-3.5504,-3.5504,-3.5504,-3.5504,-3.5572,-3.5604,-3.5604,-3.5636,-3.5636,-3.5604,-3.5537,-3.5504,-3.5504,-3.5504,-3.5504,-3.5504,-3.5504,-3.5504,-3.5504,-3.5504,-3.5504,-3.6282,-3.888,-3.9661,-3.9859,-3.9859,-3.9859,-3.9859,-3.9859,-4.0261,-4.0489,-4.0489,-4.0489,-4.0489,-4.0489,-4.0489,-4.0489,-4.0489,-4.3017,-4.4615,-4.4615,-4.4615,-4.4615,-4.4615,-4.4615,-4.4615,-4.4615,-4.4615,-4.4615,-4.4615,-4.4615,-4.4615,-4.4615,-4.4615,-4.4615,0.0,0.0,0.0,0.0,0.0,0.0,0.0,0.0,0.0,0.0,0.0,0.0,0.0,0.0,0.0,0.0,0.0,0.0,0.0,0.0,0.0,0.0,0.0,0.0,0.0,0.0,0.0,0.0,0.0,0.0,-2.9504,-3.0142,-3.096,-3.1975,-3.2646,-3.2991,-3.2991,-3.2991,-3.308,-3.3245,-3.3739,-3.4099,-3.4279,-3.4936,-3.525,-3.525,-3.5429,-3.5504,-3.5504,-3.5504,-3.5504,-3.5504,-3.5504,-3.5504,-3.5504,-3.5504,-3.5504,-3.5504,-3.5504,-3.5504,-3.5504,-3.5504,-3.5504,-3.5504,-3.5504,-3.5504,-3.5504,-3.5504,-3.5504,-3.5504,-3.5504,-3.5504,-3.5504,-3.5504,-3.5504,-3.5504,-3.5504,-3.6028,-3.7075,-3.9,-3.9388,-3.9388,-3.9388,-3.9388,-3.9388,-3.9388,-3.9874,-4.0211,-4.0211,-4.0211,-4.0211,-4.0211,-4.0385,-4.0783,-4.1475,-4.3426,-4.4615,-4.4615,-4.4615,-4.4615,-4.4615,-4.4615,-4.4615,-4.4615,-4.4615,-4.4615,-4.4615,-4.4615,-4.4615,-4.4615,-4.4615,-4.4615,0.0,0.0,0.0,0.0,0.0,0.0,0.0,0.0,0.0,0.0,0.0,0.0,0.0,0.0,0.0,0.0,0.0,0.0,0.0,0.0,0.0,0.0,0.0,0.0,0.0,0.0,0.0,0.0,0.0,0.0,-2.9535,-3.0146,-3.0538,-3.0598,-3.1235,-3.16,-3.16,-3.16,-3.1914,-3.2557,-3.2602,-3.2946,-3.3559,-3.4264,-3.4563,-3.4593,-3.522,-3.5504,-3.5504,-3.5504,-3.5504,-3.5504,-3.5504,-3.5504,-3.5504,-3.5504,-3.5504,-3.5504,-3.5504,-3.5504,-3.5504,-3.5504,-3.5504,-3.5504,-3.5504,-3.5504,-3.5504,-3.5504,-3.5504,-3.5504,-3.5504,-3.5504,-3.5504,-3.5504,-3.5504,-3.5504,-3.5504,-3.7464,-3.926,-3.9358,-3.9388,-3.9388,-3.9388,-3.9388,-3.9388,-3.9388,-3.9424,-3.946,-3.946,-3.946,-3.946,-3.946,-4.0071,-4.1574,-4.4167,-4.4514,-4.4615,-4.4615,-4.4615,-4.4615,-4.4615,-4.4615,-4.4615,-4.4615,-4.4615,-4.4615,-4.4615,-4.4615,-4.4615,-4.4615,-4.4615,-4.4615,0.0,0.0,0.0,0.0,0.0,0.0,0.0,0.0,0.0,0.0,0.0,0.0,0.0,0.0,0.0,0.0,0.0,0.0,0.0,0.0,0.0,0.0,0.0,0.0,0.0,0.0,0.0,0.0,0.0,0.0,-3.0133,-2.995,-3.0238,-3.1117,-3.138,-3.1511,-3.1511,-3.1511,-3.163,-3.1854,-3.2288,-3.2647,-3.2886,-3.3544,-3.3844,-3.3888,-3.4562,-3.51,-3.5504,-3.5504,-3.5504,-3.5504,-3.5504,-3.5504,-3.5504,-3.5504,-3.5504,-3.5504,-3.5504,-3.5504,-3.5504,-3.5504,-3.5504,-3.5504,-3.5504,-3.5504,-3.5504,-3.5504,-3.5504,-3.5504,-3.5504,-3.5504,-3.5504,-3.5504,-3.5504,-3.5504,-3.5504,-3.7569,-3.9388,-3.9388,-3.9388,-3.9388,-3.9388,-3.9388,-3.9388,-3.9388,-3.9388,-3.9388,-3.9388,-3.9388,-3.9388,-3.9388,-3.9625,-4.0389,-4.1852,-4.1526,-4.1262,-4.1262,-4.335,-4.4615,-4.4615,-4.4615,-4.4615,-4.4615,-4.3499,-4.3469,-4.4615,-4.4615,-4.4615,-4.4615,-4.4615,-4.4615,0.0,0.0,0.0,0.0,0.0,0.0,0.0,0.0,0.0,0.0,0.0,0.0,0.0,0.0,0.0,0.0,0.0,0.0,0.0,0.0,0.0,0.0,0.0,0.0,0.0,0.0,0.0,0.0,0.0,0.0,-2.9856,-2.9852,-3.0351,-3.1467,-3.1511,-3.1511,-3.1511,-3.1511,-3.1511,-3.1511,-3.1944,-3.2153,-3.2183,-3.2871,-3.3155,-3.3215,-3.4129,-3.4741,-3.5175,-3.5415,-3.5504,-3.5504,-3.5504,-3.5504,-3.5504,-3.5504,-3.5504,-3.5504,-3.5504,-3.5504,-3.5504,-3.5504,-3.5504,-3.5504,-3.5504,-3.5504,-3.5504,-3.5504,-3.5504,-3.5504,-3.5504,-3.5504,-3.5504,-3.5504,-3.5504,-3.5504,-3.5504,-3.7569,-3.9388,-3.9388,-3.9388,-3.9388,-3.9388,-3.9388,-3.9388,-3.9388,-3.9388,-3.9388,-3.9388,-3.9388,-3.9388,-3.9388,-3.9388,-3.9589,-4.0071,-3.9696,-3.9388,-3.9388,-4.1576,-4.2862,-4.2862,-4.2862,-4.2862,-4.2862,-4.1707,-4.1707,-4.2862,-4.3739,-4.4327,-4.4615,-4.4615,-4.4615,0.0,0.0,0.0,0.0,0.0,0.0,0.0,0.0,0.0,0.0,0.0,0.0,0.0,0.0,0.0,0.0,0.0,0.0,0.0,0.0,0.0,0.0,0.0,0.0,0.0,0.0,0.0,0.0,0.0,-2.9277,-2.8623,-2.9785,-3.0776,-3.1421,-3.1466,-3.1466,-3.1466,-3.1496,-3.1511,-3.1511,-3.1511,-3.1511,-3.1525,-3.2168,-3.2452,-3.2527,-3.3858,-3.4459,-3.4533,-3.522,-3.5504,-3.5504,-3.5504,-3.5504,-3.5504,-3.5504,-3.5504,-3.5504,-3.5504,-3.5504,-3.5504,-3.5504,-3.5504,-3.5504,-3.5504,-3.5504,-3.5504,-3.5504,-3.5504,-3.5504,-3.5504,-3.5504,-3.5504,-3.5504,-3.5504,-3.5504,-3.5504,-3.7509,-3.9334,-3.9373,-3.9388,-3.9388,-3.9388,-3.9388,-3.9388,-3.9388,-3.9388,-3.9388,-3.9388,-3.9388,-3.9388,-3.9388,-3.9388,-3.9388,-3.9388,-3.9388,-3.9388,-3.9388,-3.9388,-3.9388,-3.9388,-3.9388,-3.9388,-3.9388,-3.9388,-3.9388,-3.9424,-4.2013,-4.371,-4.4542,-4.457,-4.4615,-1.2644,0.0,0.0,0.0,0.0,0.0,0.0,0.0,0.0,0.0,0.0,0.0,0.0,0.0,0.0,0.0,0.0,0.0,0.0,0.0,0.0,0.0,0.0,0.0,0.0,0.0,0.0,0.0,-2.8566,-2.8833,-2.8679,-2.9413,-2.9924,-3.0118,-3.0552,-3.0791,-3.0791,-3.1256,-3.1511,-3.1511,-3.1511,-3.1511,-3.1511,-3.169,-3.178,-3.1824,-3.2691,-3.332,-3.3858,-3.5026,-3.5504,-3.5504,-3.5504,-3.5504,-3.5504,-3.5504,-3.5504,-3.5504,-3.5504,-3.5504,-3.5504,-3.5504,-3.5504,-3.5504,-3.5504,-3.5504,-3.5504,-3.5504,-3.5504,-3.5504,-3.5504,-3.5504,-3.5504,-3.5504,-3.5504,-3.5504,-3.5504,-3.6073,-3.715,-3.9014,-3.9388,-3.9388,-3.9388,-3.9388,-3.9388,-3.9388,-3.9388,-3.9388,-3.9388,-3.9388,-3.9388,-3.9388,-3.9388,-3.9388,-3.9388,-3.9388,-3.9388,-3.9388,-3.9388,-3.9388,-3.9388,-3.9388,-3.9388,-3.9388,-3.9388,-3.9388,-3.9424,-4.1885,-4.3166,-4.3333,-4.4179,-4.4615,-1.3628,-1.4573,0.0,0.0,0.0,0.0,0.0,0.0,0.0,0.0,0.0,0.0,0.0,0.0,0.0,0.0,0.0,0.0,0.0,0.0,0.0,0.0,0.0,0.0,0.0,0.0,0.0,0.0,-2.7632,-2.8065,-2.863,-2.9,-2.9295,-2.9592,-2.9924,-3.0118,-3.0118,-3.0748,-3.1077,-3.1077,-3.1376,-3.1511,-3.1511,-3.1511,-3.1511,-3.154,-3.2198,-3.2886,-3.3574,-3.4637,-3.525,-3.5504,-3.5504,-3.5504,-3.5504,-3.5504,-3.5504,-3.5504,-3.5504,-3.5504,-3.5504,-3.5504,-3.5504,-3.5504,-3.5504,-3.5504,-3.5504,-3.5504,-3.5504,-3.5504,-3.5504,-3.5504,-3.5504,-3.5504,-3.5504,-3.5504,-3.5504,-3.5504,-3.5953,-3.7494,-3.8641,-3.9388,-3.9388,-3.9388,-3.9388,-3.9388,-3.9388,-3.9388,-3.9388,-3.9388,-3.9388,-3.9388,-3.9388,-3.9388,-3.9388,-3.9388,-3.9388,-3.9388,-3.9388,-3.9388,-3.9388,-3.9388,-3.9388,-3.9388,-3.9388,-3.9388,-3.9388,-4.0826,-4.2205,-4.3558,-4.4281,-4.4615,-1.5367,-1.6009,0.0,0.0,0.0,0.0,-1.8029,-1.8433,0.0,0.0,0.0,0.0,0.0,0.0,0.0,0.0,0.0,0.0,0.0,0.0,0.0,0.0,0.0,0.0,0.0,0.0,-2.5549,-2.6457,-2.6563,-2.7141,-2.8431,-2.8487,-2.8757,-2.9367,-2.9457,-2.9502,-2.9502,-3.0088,-3.0432,-3.0507,-3.1092,-3.1436,-3.1511,-3.1511,-3.1511,-3.154,-3.2123,-3.2781,-3.344,-3.4129,-3.4816,-3.5504,-3.5504,-3.5504,-3.5504,-3.5504,-3.5504,-3.5504,-3.5504,-3.5504,-3.5504,-3.5504,-3.5504,-3.5504,-3.5504,-3.5504,-3.5504,-3.5504,-3.5504,-3.5504,-3.5504,-3.5504,-3.5504,-3.5504,-3.5504,-3.5504,-3.5504,-3.5504,-3.5504,-3.5504,-3.7389,-3.908,-3.9328,-3.9388,-3.9388,-3.9388,-3.9388,-3.9388,-3.9388,-3.9388,-3.9388,-3.9388,-3.9388,-3.9388,-3.9388,-3.9388,-3.9388,-3.9388,-3.9388,-3.9388,-3.9388,-3.9388,-3.9388,-3.9388,-3.9388,-3.9388,-3.9388,-3.9388,-4.1162,-4.4485,-4.4485,-4.4485,-1.6738,-1.7699,-1.8732,-1.71,0.0,0.0,0.0,-1.6742,0.0,0.0,0.0,0.0,0.0,0.0,0.0,0.0,0.0,0.0,0.0,0.0,0.0,0.0,0.0,0.0,0.0,0.0,-2.6026,-2.537,-2.5715,-2.6527,-2.7729,-2.7809,-2.7854,-2.7989,-2.8502,-2.8801,-2.8801,-2.9445,-3.0013,-3.0507,-3.0642,-3.0972,-3.1511,-3.1511,-3.1511,-3.1511,-3.1645,-3.2064,-3.2766,-3.341,-3.4412,-3.5504,-3.5504,-3.5504,-3.5504,-3.5504,-3.5504,-3.5504,-3.5504,-3.5504,-3.5504,-3.5504,-3.5504,-3.5504,-3.5504,-3.5504,-3.5504,-3.5504,-3.5504,-3.5504,-3.5504,-3.5504,-3.5504,-3.5504,-3.5504,-3.5504,-3.5504,-3.5504,-3.5504,-3.5504,-3.5923,-3.6941,-3.905,-3.9388,-3.9388,-3.9388,-3.9388,-3.9388,-3.9388,-3.9388,-3.9388,-3.9388,-3.9388,-3.9388,-3.9388,-3.9388,-3.9388,-3.9388,-3.9388,-3.9388,-3.9388,-3.9388,-3.9388,-3.9388,-3.9388,-3.9388,-3.9388,-3.9388,-4.0925,-4.3805,-4.3805,-4.3805,0.0,-1.8687,-1.9468,-1.8446,0.0,0.0,0.0,0.0,0.0,0.0,0.0,0.0,0.0,0.0,0.0,0.0,0.0,0.0,0.0,0.0,0.0,0.0,0.0,0.0,0.0,0.0,-2.5139,-2.4884,-2.5483,-2.6216,-2.7056,-2.742,-2.76,-2.76,-2.7929,-2.8109,-2.8109,-2.8757,-2.925,-2.9564,-3.0193,-3.0687,-3.1002,-3.1346,-3.1511,-3.1511,-3.1511,-3.1869,-3.2542,-3.2871,-3.3784,-3.5026,-3.537,-3.5504,-3.5504,-3.5504,-3.5504,-3.5504,-3.5504,-3.5504,-3.5504,-3.5504,-3.5504,-3.5504,-3.5504,-3.5504,-3.5504,-3.5504,-3.5504,-3.5504,-3.5504,-3.5504,-3.5504,-3.5504,-3.5504,-3.5504,-3.5504,-3.5504,-3.5504,-3.5504,-3.5504,-3.6342,-3.894,-3.9388,-3.9388,-3.9388,-3.9388,-3.9388,-3.9388,-3.9388,-3.9388,-3.9388,-3.9388,-3.9388,-3.9388,-3.9388,-3.9388,-3.9388,-3.9388,-3.9388,-3.9388,-3.9388,-3.9388,-3.9388,-3.9388,-3.9388,-3.9388,-3.9388,-4.0839,-4.3598,-4.3598,-4.3598,0.0,0.0,0.0,0.0,0.0,-1.948,0.0,0.0,0.0,-1.9941,0.0,0.0,0.0,0.0,0.0,0.0,0.0,0.0,0.0,0.0,0.0,0.0,0.0,0.0,0.0,0.0,-2.4017,-2.4825,-2.514,-2.5683,-2.6548,-2.7121,-2.7465,-2.76,-2.76,-2.76,-2.76,-2.8154,-2.8472,-2.8607,-2.9774,-3.0387,-3.0522,-3.1182,-3.1511,-3.1511,-3.1511,-3.1809,-3.2303,-3.2437,-3.314,-3.4173,-3.4996,-3.5385,-3.5504,-3.5504,-3.5504,-3.5504,-3.5504,-3.5504,-3.5504,-3.5504,-3.5504,-3.5504,-3.5504,-3.5504,-3.5504,-3.5504,-3.5504,-3.5504,-3.5504,-3.5504,-3.5504,-3.5504,-3.5504,-3.5504,-3.5504,-3.5504,-3.5504,-3.5504,-3.5504,-3.6178,-3.8302,-3.9059,-3.9388,-3.9388,-3.9388,-3.9388,-3.9388,-3.9388,-3.9388,-3.9388,-3.9388,-3.9388,-3.9388,-3.9388,-3.9388,-3.9388,-3.9388,-3.9388,-3.9388,-3.9388,-3.9388,-3.9388,-3.9388,-3.9388,-3.9388,-3.9388,-4.0839,-4.3598,-4.3598,-4.3598,0.0,0.0,0.0,0.0,-2.1425,0.0,0.0,0.0,-1.9286,-1.8252,0.0,0.0,0.0,0.0,0.0,0.0,0.0,0.0,0.0,0.0,0.0,0.0,0.0,0.0,0.0,0.0,0.0,-2.5369,-2.4028,-2.4151,-2.6473,-2.6662,-2.7001,-2.757,-2.76,-2.76,-2.76,-2.7675,-2.8019,-2.8607,-2.934,-2.9968,-3.0522,-3.1182,-3.1511,-3.1511,-3.1511,-3.154,-3.166,-3.2243,-3.2602,-3.2856,-3.4098,-3.4966,-3.5504,-3.5504,-3.5504,-3.5504,-3.5504,-3.5504,-3.5504,-3.5504,-3.5504,-3.5504,-3.5504,-3.5504,-3.5504,-3.5504,-3.5504,-3.5504,-3.5504,-3.5504,-3.5504,-3.5504,-3.5504,-3.5504,-3.5504,-3.5504,-3.5504,-3.5504,-3.5504,-3.5594,-3.5893,-3.7883,-3.9388,-3.9388,-3.9388,-3.9388,-3.9388,-3.9388,-3.9388,-3.9388,-3.9388,-3.9388,-3.9388,-3.9388,-3.9388,-3.9388,-3.9388,-3.9388,-3.9388,-3.9388,-3.9388,-3.9388,-3.9388,-3.9388,-3.9388,-3.9388,-4.0839,-4.3598,-4.3598,-4.3598,0.0,0.0,0.0,0.0,0.0,0.0,0.0,0.0,-1.9663,0.0,0.0,0.0,0.0,0.0,0.0,0.0,0.0,0.0,0.0,0.0,0.0,0.0,0.0,0.0,0.0,0.0,0.0,0.0,0.0,-2.2733,-2.4425,-2.5839,-2.6746,-2.7016,-2.7405,-2.76,-2.76,-2.76,-2.775,-2.8034,-2.8682,-2.9355,-2.9983,-3.0642,-3.1122,-3.1511,-3.1511,-3.1511,-3.1525,-3.1795,-3.2138,-3.2572,-3.3125,-3.3978,-3.4966,-3.5355,-3.5504,-3.5504,-3.5504,-3.5504,-3.5504,-3.5504,-3.5504,-3.5504,-3.5504,-3.5504,-3.5504,-3.5504,-3.5504,-3.5504,-3.5504,-3.5504,-3.5504,-3.5504,-3.5504,-3.5504,-3.5504,-3.5504,-3.5504,-3.5504,-3.5504,-3.5504,-3.5504,-3.6417,-3.7659,-3.9149,-3.9388,-3.9388,-3.9388,-3.9388,-3.9388,-3.9388,-3.9388,-3.9388,-3.9388,-3.9388,-3.9388,-3.9388,-3.9388,-3.9388,-3.9388,-3.9388,-3.9388,-3.9388,-3.9388,-3.9388,-3.9388,-3.9388,-4.0005,-4.1194,-4.2834,-4.3598,-2.1756,0.0,0.0,0.0,0.0,0.0,0.0,0.0,0.0,0.0,0.0,0.0,0.0,0.0,0.0,0.0,0.0,0.0,0.0,0.0,0.0,0.0,0.0,0.0,0.0,0.0,0.0,0.0,0.0,0.0,-2.3062,-2.5004,-2.6213,-2.6572,-2.7255,-2.76,-2.76,-2.76,-2.76,-2.76,-2.8263,-2.8951,-2.9636,-3.0223,-3.0881,-3.1511,-3.1511,-3.1511,-3.1511,-3.1511,-3.1795,-3.2228,-3.2437,-3.3215,-3.4324,-3.4981,-3.534,-3.5504,-3.5504,-3.5504,-3.5504,-3.5504,-3.5504,-3.5504,-3.5504,-3.5504,-3.5504,-3.5504,-3.5504,-3.5504,-3.5504,-3.5504,-3.5504,-3.5504,-3.5504,-3.5504,-3.5504,-3.5504,-3.5504,-3.5504,-3.5504,-3.5504,-3.5504,-3.5504,-3.6402,-3.9,-3.9388,-3.9388,-3.9388,-3.9388,-3.9388,-3.9388,-3.9388,-3.9388,-3.9388,-3.9388,-3.9388,-3.9388,-3.9388,-3.9388,-3.9388,-3.9388,-3.9388,-3.9388,-3.9388,-3.9388,-3.9388,-3.9388,-3.9388,-3.9445,-4.1492,-4.2679,0.0,0.0,0.0,-2.1893,0.0,0.0,0.0,0.0,-2.0498,0.0,0.0,0.0,0.0,0.0,-1.8463,-1.7818,0.0,0.0,0.0,0.0,0.0,0.0,0.0,0.0,0.0,0.0,0.0,0.0,0.0,0.0,-2.3409,-2.4276,-2.5247,-2.6557,-2.7255,-2.76,-2.76,-2.76,-2.76,-2.76,-2.8263,-2.8951,-2.9636,-3.0223,-3.0881,-3.1511,-3.1511,-3.1511,-3.1511,-3.1511,-3.1511,-3.16,-3.2243,-3.2931,-3.3604,-3.4294,-3.4936,-3.5504,-3.5504,-3.5504,-3.5504,-3.5504,-3.5504,-3.5504,-3.5504,-3.5504,-3.5504,-3.5504,-3.5504,-3.5504,-3.5504,-3.5504,-3.5504,-3.5504,-3.5504,-3.5504,-3.5504,-3.5504,-3.5504,-3.5504,-3.5504,-3.5504,-3.5504,-3.5504,-3.6402,-3.9,-3.9388,-3.9388,-3.9388,-3.9388,-3.9388,-3.9388,-3.9388,-3.9388,-3.9388,-3.9388,-3.9388,-3.9388,-3.9388,-3.9388,-3.9388,-3.9388,-3.9388,-3.9388,-3.9388,-3.9388,-3.9388,-3.9388,-3.9388,-3.9388,-3.9481,-4.027,0.0,0.0,-2.189,-2.1844,0.0,0.0,0.0,0.0,0.0,0.0,0.0,0.0,0.0,0.0,-1.8627,-1.8386,-1.7624,0.0,0.0,0.0,0.0,0.0,0.0,0.0,0.0,0.0,0.0,0.0,0.0,0.0,0.0,-2.2967,-2.4358,-2.5247,-2.6363,-2.7151,-2.76,-2.76,-2.76,-2.76,-2.7839,-2.8528,-2.9621,-2.9804,-3.0492,-3.1511,-3.1511,-3.1511,-3.1511,-3.1511,-3.1511,-3.1525,-3.175,-3.2512,-3.3574,-3.4264,-3.4906,-3.5504,-3.5504,-3.5504,-3.5504,-3.5504,-3.5504,-3.5504,-3.5504,-3.5504,-3.5504,-3.5504,-3.5504,-3.5504,-3.5504,-3.5504,-3.5504,-3.5504,-3.5504,-3.5504,-3.5504,-3.5504,-3.5504,-3.5504,-3.5504,-3.5504,-3.5504,-3.5504,-3.6402,-3.9,-3.9388,-3.9388,-3.9388,-3.9388,-3.9388,-3.9388,-3.9388,-3.9388,-3.9388,-3.9388,-3.9388,-3.9388,-3.9388,-3.9388,-3.9388,-3.9388,-3.9388,-3.9388,-3.9388,-3.9388,-3.9388,-3.9388,-3.9388,-3.9388,-3.9388,-3.9646,-2.1332,-2.1455,0.0,-2.1526,-2.1052,0.0,-2.0445,0.0,0.0,0.0,0.0,0.0,0.0,0.0,-1.8919,-1.8507,-1.7659,-1.6607,0.0,0.0,0.0,0.0,0.0,0.0,0.0,0.0,-1.6515,-1.8029,0.0,0.0,0.0,0.0,-2.3684,-2.4575,-2.5899,-2.6926,-2.7585,-2.76,-2.76,-2.76,-2.76,-2.8184,-2.9235,-2.9502,-3.0163,-3.1152,-3.1406,-3.1511,-3.1511,-3.1511,-3.1511,-3.1511,-3.1511,-3.2303,-3.3544,-3.3978,-3.4711,-3.5504,-3.5504,-3.5504,-3.5504,-3.5504,-3.5504,-3.5504,-3.5504,-3.5504,-3.5504,-3.5504,-3.5504,-3.5504,-3.5504,-3.5504,-3.5504,-3.5504,-3.5504,-3.5504,-3.5504,-3.5504,-3.5504,-3.5504,-3.5504,-3.5504,-3.5504,-3.5504,-3.6402,-3.9,-3.9388,-3.9388,-3.9388,-3.9388,-3.9388,-3.9388,-3.9388,-3.9388,-3.9388,-3.9388,-3.9388,-3.9388,-3.9388,-3.9388,-3.9388,-3.9388,-3.9388,-3.9388,-3.9388,-3.9388,-3.9388,-3.9388,-3.9388,-3.9388,-3.9388,-3.9388]}]]